<?xml version="1.0" encoding="UTF-8" standalone="no" ?>
<gpx xmlns="http://www.topografix.com/GPX/1/1" xmlns:xsi="http://www.w3.org/2001/XMLSchema-instance" xsi:schemaLocation="http://www.topografix.com/GPX/1/1 http://www.topografix.com/GPX/1/1/gpx.xsd" version="1.1" creator="VisuGPX - https://www.visugpx.com">
  <metadata>
    <name>Lescure Trail</name>
    <desc><![CDATA[GPX du Grand Trail 18 KM téléchargeable ! 

N'hésitez pas à nous suivre sur notre page Facebook (L'escuroise - Trail et marche) et sur notre compte Instagram (@lescuroise)

« Un athlète ne peut pas courir avec de l'argent dans ses poches. Il doit courir avec de l'espoir dans son coeur et des rêves plein la tête ».

Emil Zátopek ]]></desc>
  </metadata>
  <trk>
    <name><![CDATA[Lescure Trail]]></name>
    <trkseg>
      <trkpt lat="42.99113" lon="1.22098">
        <ele>430.39999389648</ele>
        <time>2021-07-03T09:40:58.000Z</time>
      </trkpt>
      <trkpt lat="42.99113" lon="1.22099">
        <ele>430.20001220703</ele>
        <time>2021-07-03T09:40:59.000Z</time>
      </trkpt>
      <trkpt lat="42.99116" lon="1.22108">
        <ele>430</ele>
        <time>2021-07-03T09:41:04.000Z</time>
      </trkpt>
      <trkpt lat="42.99117" lon="1.22112">
        <ele>429.60000610352</ele>
        <time>2021-07-03T09:41:05.000Z</time>
      </trkpt>
      <trkpt lat="42.99117" lon="1.22119">
        <ele>429.79998779297</ele>
        <time>2021-07-03T09:41:07.000Z</time>
      </trkpt>
      <trkpt lat="42.99119" lon="1.22128">
        <ele>429.79998779297</ele>
        <time>2021-07-03T09:41:10.000Z</time>
      </trkpt>
      <trkpt lat="42.99119" lon="1.22135">
        <ele>429.79998779297</ele>
        <time>2021-07-03T09:41:12.000Z</time>
      </trkpt>
      <trkpt lat="42.99122" lon="1.2216">
        <ele>430</ele>
        <time>2021-07-03T09:41:20.000Z</time>
      </trkpt>
      <trkpt lat="42.99122" lon="1.22166">
        <ele>430</ele>
        <time>2021-07-03T09:41:22.000Z</time>
      </trkpt>
      <trkpt lat="42.99124" lon="1.22179">
        <ele>430.20001220703</ele>
        <time>2021-07-03T09:41:26.000Z</time>
      </trkpt>
      <trkpt lat="42.99128" lon="1.22192">
        <ele>430.20001220703</ele>
        <time>2021-07-03T09:41:31.000Z</time>
      </trkpt>
      <trkpt lat="42.99129" lon="1.22192">
        <ele>430.20001220703</ele>
        <time>2021-07-03T09:41:32.000Z</time>
      </trkpt>
      <trkpt lat="42.99131" lon="1.22185">
        <ele>430.39999389648</ele>
        <time>2021-07-03T09:41:35.000Z</time>
      </trkpt>
      <trkpt lat="42.99128" lon="1.22165">
        <ele>430</ele>
        <time>2021-07-03T09:41:41.000Z</time>
      </trkpt>
      <trkpt lat="42.99125" lon="1.2214">
        <ele>429.60000610352</ele>
        <time>2021-07-03T09:41:49.000Z</time>
      </trkpt>
      <trkpt lat="42.99125" lon="1.22137">
        <ele>429.60000610352</ele>
        <time>2021-07-03T09:41:50.000Z</time>
      </trkpt>
      <trkpt lat="42.99124" lon="1.22118">
        <ele>429.60000610352</ele>
        <time>2021-07-03T09:41:56.000Z</time>
      </trkpt>
      <trkpt lat="42.99123" lon="1.22102">
        <ele>429.39999389648</ele>
        <time>2021-07-03T09:42:01.000Z</time>
      </trkpt>
      <trkpt lat="42.99123" lon="1.22098">
        <ele>429.39999389648</ele>
        <time>2021-07-03T09:42:02.000Z</time>
      </trkpt>
      <trkpt lat="42.99122" lon="1.22074">
        <ele>429.20001220703</ele>
        <time>2021-07-03T09:42:10.000Z</time>
      </trkpt>
      <trkpt lat="42.9912" lon="1.22052">
        <ele>429.20001220703</ele>
        <time>2021-07-03T09:42:17.000Z</time>
      </trkpt>
      <trkpt lat="42.99123" lon="1.22027">
        <ele>429.39999389648</ele>
        <time>2021-07-03T09:42:25.000Z</time>
      </trkpt>
      <trkpt lat="42.99126" lon="1.22006">
        <ele>429</ele>
        <time>2021-07-03T09:42:33.000Z</time>
      </trkpt>
      <trkpt lat="42.99131" lon="1.21985">
        <ele>429</ele>
        <time>2021-07-03T09:42:41.000Z</time>
      </trkpt>
      <trkpt lat="42.99137" lon="1.21963">
        <ele>428.79998779297</ele>
        <time>2021-07-03T09:42:50.000Z</time>
      </trkpt>
      <trkpt lat="42.99143" lon="1.21943">
        <ele>428.60000610352</ele>
        <time>2021-07-03T09:42:58.000Z</time>
      </trkpt>
      <trkpt lat="42.99148" lon="1.2192">
        <ele>428.39999389648</ele>
        <time>2021-07-03T09:43:06.000Z</time>
      </trkpt>
      <trkpt lat="42.99153" lon="1.21898">
        <ele>428.60000610352</ele>
        <time>2021-07-03T09:43:13.000Z</time>
      </trkpt>
      <trkpt lat="42.99159" lon="1.21874">
        <ele>428.60000610352</ele>
        <time>2021-07-03T09:43:20.000Z</time>
      </trkpt>
      <trkpt lat="42.99167" lon="1.21841">
        <ele>428</ele>
        <time>2021-07-03T09:43:30.000Z</time>
      </trkpt>
      <trkpt lat="42.99173" lon="1.21816">
        <ele>428.20001220703</ele>
        <time>2021-07-03T09:43:38.000Z</time>
      </trkpt>
      <trkpt lat="42.99174" lon="1.2181">
        <ele>428.20001220703</ele>
        <time>2021-07-03T09:43:40.000Z</time>
      </trkpt>
      <trkpt lat="42.99179" lon="1.21786">
        <ele>428.20001220703</ele>
        <time>2021-07-03T09:43:48.000Z</time>
      </trkpt>
      <trkpt lat="42.99183" lon="1.21761">
        <ele>427.60000610352</ele>
        <time>2021-07-03T09:43:57.000Z</time>
      </trkpt>
      <trkpt lat="42.99186" lon="1.21742">
        <ele>427.60000610352</ele>
        <time>2021-07-03T09:44:05.000Z</time>
      </trkpt>
      <trkpt lat="42.99188" lon="1.21733">
        <ele>427.20001220703</ele>
        <time>2021-07-03T09:44:09.000Z</time>
      </trkpt>
      <trkpt lat="42.99189" lon="1.21726">
        <ele>427.39999389648</ele>
        <time>2021-07-03T09:44:12.000Z</time>
      </trkpt>
      <trkpt lat="42.99192" lon="1.21703">
        <ele>427.20001220703</ele>
        <time>2021-07-03T09:44:20.000Z</time>
      </trkpt>
      <trkpt lat="42.99193" lon="1.217">
        <ele>427.20001220703</ele>
        <time>2021-07-03T09:44:21.000Z</time>
      </trkpt>
      <trkpt lat="42.99197" lon="1.2168">
        <ele>427.20001220703</ele>
        <time>2021-07-03T09:44:28.000Z</time>
      </trkpt>
      <trkpt lat="42.99201" lon="1.21656">
        <ele>426.79998779297</ele>
        <time>2021-07-03T09:44:37.000Z</time>
      </trkpt>
      <trkpt lat="42.99205" lon="1.2163">
        <ele>426.39999389648</ele>
        <time>2021-07-03T09:44:46.000Z</time>
      </trkpt>
      <trkpt lat="42.99207" lon="1.21615">
        <ele>426.79998779297</ele>
        <time>2021-07-03T09:44:52.000Z</time>
      </trkpt>
      <trkpt lat="42.9921" lon="1.21593">
        <ele>426.39999389648</ele>
        <time>2021-07-03T09:45:00.000Z</time>
      </trkpt>
      <trkpt lat="42.9921" lon="1.21575">
        <ele>426.20001220703</ele>
        <time>2021-07-03T09:45:06.000Z</time>
      </trkpt>
      <trkpt lat="42.99211" lon="1.21555">
        <ele>426.39999389648</ele>
        <time>2021-07-03T09:45:13.000Z</time>
      </trkpt>
      <trkpt lat="42.99211" lon="1.21532">
        <ele>426.39999389648</ele>
        <time>2021-07-03T09:45:20.000Z</time>
      </trkpt>
      <trkpt lat="42.9921" lon="1.21508">
        <ele>426.39999389648</ele>
        <time>2021-07-03T09:45:27.000Z</time>
      </trkpt>
      <trkpt lat="42.99209" lon="1.21498">
        <ele>426.60000610352</ele>
        <time>2021-07-03T09:45:30.000Z</time>
      </trkpt>
      <trkpt lat="42.99208" lon="1.21475">
        <ele>426.39999389648</ele>
        <time>2021-07-03T09:45:37.000Z</time>
      </trkpt>
      <trkpt lat="42.99203" lon="1.21453">
        <ele>426</ele>
        <time>2021-07-03T09:45:45.000Z</time>
      </trkpt>
      <trkpt lat="42.99199" lon="1.21432">
        <ele>426</ele>
        <time>2021-07-03T09:45:52.000Z</time>
      </trkpt>
      <trkpt lat="42.99197" lon="1.21414">
        <ele>425.60000610352</ele>
        <time>2021-07-03T09:45:58.000Z</time>
      </trkpt>
      <trkpt lat="42.99191" lon="1.21392">
        <ele>426</ele>
        <time>2021-07-03T09:46:05.000Z</time>
      </trkpt>
      <trkpt lat="42.99187" lon="1.21368">
        <ele>425.79998779297</ele>
        <time>2021-07-03T09:46:14.000Z</time>
      </trkpt>
      <trkpt lat="42.99184" lon="1.21348">
        <ele>425.60000610352</ele>
        <time>2021-07-03T09:46:21.000Z</time>
      </trkpt>
      <trkpt lat="42.9918" lon="1.21325">
        <ele>425.39999389648</ele>
        <time>2021-07-03T09:46:29.000Z</time>
      </trkpt>
      <trkpt lat="42.99178" lon="1.21311">
        <ele>425.20001220703</ele>
        <time>2021-07-03T09:46:34.000Z</time>
      </trkpt>
      <trkpt lat="42.99179" lon="1.21305">
        <ele>425</ele>
        <time>2021-07-03T09:46:36.000Z</time>
      </trkpt>
      <trkpt lat="42.99178" lon="1.21285">
        <ele>425</ele>
        <time>2021-07-03T09:46:43.000Z</time>
      </trkpt>
      <trkpt lat="42.99176" lon="1.21261">
        <ele>424.79998779297</ele>
        <time>2021-07-03T09:46:51.000Z</time>
      </trkpt>
      <trkpt lat="42.99181" lon="1.21242">
        <ele>424.60000610352</ele>
        <time>2021-07-03T09:46:57.000Z</time>
      </trkpt>
      <trkpt lat="42.9918" lon="1.2122">
        <ele>424.39999389648</ele>
        <time>2021-07-03T09:47:05.000Z</time>
      </trkpt>
      <trkpt lat="42.99177" lon="1.21198">
        <ele>424.39999389648</ele>
        <time>2021-07-03T09:47:12.000Z</time>
      </trkpt>
      <trkpt lat="42.99176" lon="1.2118">
        <ele>424.20001220703</ele>
        <time>2021-07-03T09:47:17.000Z</time>
      </trkpt>
      <trkpt lat="42.99176" lon="1.21176">
        <ele>424.20001220703</ele>
        <time>2021-07-03T09:47:18.000Z</time>
      </trkpt>
      <trkpt lat="42.99176" lon="1.21162">
        <ele>424.20001220703</ele>
        <time>2021-07-03T09:47:22.000Z</time>
      </trkpt>
      <trkpt lat="42.99176" lon="1.21158">
        <ele>424.20001220703</ele>
        <time>2021-07-03T09:47:23.000Z</time>
      </trkpt>
      <trkpt lat="42.99175" lon="1.21133">
        <ele>424</ele>
        <time>2021-07-03T09:47:31.000Z</time>
      </trkpt>
      <trkpt lat="42.99177" lon="1.21105">
        <ele>423.60000610352</ele>
        <time>2021-07-03T09:47:40.000Z</time>
      </trkpt>
      <trkpt lat="42.99177" lon="1.21084">
        <ele>423.39999389648</ele>
        <time>2021-07-03T09:47:47.000Z</time>
      </trkpt>
      <trkpt lat="42.99177" lon="1.21081">
        <ele>423.39999389648</ele>
        <time>2021-07-03T09:47:48.000Z</time>
      </trkpt>
      <trkpt lat="42.99176" lon="1.21054">
        <ele>423.39999389648</ele>
        <time>2021-07-03T09:47:56.000Z</time>
      </trkpt>
      <trkpt lat="42.99177" lon="1.21028">
        <ele>423.39999389648</ele>
        <time>2021-07-03T09:48:04.000Z</time>
      </trkpt>
      <trkpt lat="42.99177" lon="1.21025">
        <ele>423.39999389648</ele>
        <time>2021-07-03T09:48:05.000Z</time>
      </trkpt>
      <trkpt lat="42.99179" lon="1.21">
        <ele>423.60000610352</ele>
        <time>2021-07-03T09:48:13.000Z</time>
      </trkpt>
      <trkpt lat="42.9918" lon="1.20981">
        <ele>423.60000610352</ele>
        <time>2021-07-03T09:48:19.000Z</time>
      </trkpt>
      <trkpt lat="42.99181" lon="1.20966">
        <ele>423.20001220703</ele>
        <time>2021-07-03T09:48:24.000Z</time>
      </trkpt>
      <trkpt lat="42.99182" lon="1.2096">
        <ele>423</ele>
        <time>2021-07-03T09:48:26.000Z</time>
      </trkpt>
      <trkpt lat="42.99186" lon="1.20935">
        <ele>423.20001220703</ele>
        <time>2021-07-03T09:48:35.000Z</time>
      </trkpt>
      <trkpt lat="42.99186" lon="1.20918">
        <ele>423.20001220703</ele>
        <time>2021-07-03T09:48:41.000Z</time>
      </trkpt>
      <trkpt lat="42.99185" lon="1.20916">
        <ele>423.20001220703</ele>
        <time>2021-07-03T09:48:42.000Z</time>
      </trkpt>
      <trkpt lat="42.99171" lon="1.20914">
        <ele>422.60000610352</ele>
        <time>2021-07-03T09:48:48.000Z</time>
      </trkpt>
      <trkpt lat="42.99155" lon="1.20913">
        <ele>422.60000610352</ele>
        <time>2021-07-03T09:48:55.000Z</time>
      </trkpt>
      <trkpt lat="42.99138" lon="1.20911">
        <ele>422.60000610352</ele>
        <time>2021-07-03T09:49:03.000Z</time>
      </trkpt>
      <trkpt lat="42.99133" lon="1.2091">
        <ele>422.60000610352</ele>
        <time>2021-07-03T09:49:05.000Z</time>
      </trkpt>
      <trkpt lat="42.99115" lon="1.20905">
        <ele>422.79998779297</ele>
        <time>2021-07-03T09:49:13.000Z</time>
      </trkpt>
      <trkpt lat="42.99101" lon="1.209">
        <ele>423.39999389648</ele>
        <time>2021-07-03T09:49:20.000Z</time>
      </trkpt>
      <trkpt lat="42.99094" lon="1.20887">
        <ele>423.79998779297</ele>
        <time>2021-07-03T09:49:26.000Z</time>
      </trkpt>
      <trkpt lat="42.99085" lon="1.20864">
        <ele>423.79998779297</ele>
        <time>2021-07-03T09:49:35.000Z</time>
      </trkpt>
      <trkpt lat="42.9908" lon="1.20848">
        <ele>424</ele>
        <time>2021-07-03T09:49:42.000Z</time>
      </trkpt>
      <trkpt lat="42.99077" lon="1.20822">
        <ele>423.79998779297</ele>
        <time>2021-07-03T09:49:52.000Z</time>
      </trkpt>
      <trkpt lat="42.99069" lon="1.20799">
        <ele>423.20001220703</ele>
        <time>2021-07-03T09:50:01.000Z</time>
      </trkpt>
      <trkpt lat="42.99064" lon="1.20791">
        <ele>423.39999389648</ele>
        <time>2021-07-03T09:50:07.000Z</time>
      </trkpt>
      <trkpt lat="42.99058" lon="1.2078">
        <ele>423.79998779297</ele>
        <time>2021-07-03T09:50:14.000Z</time>
      </trkpt>
      <trkpt lat="42.99054" lon="1.20772">
        <ele>424.20001220703</ele>
        <time>2021-07-03T09:50:19.000Z</time>
      </trkpt>
      <trkpt lat="42.99052" lon="1.20769">
        <ele>424.60000610352</ele>
        <time>2021-07-03T09:50:21.000Z</time>
      </trkpt>
      <trkpt lat="42.99051" lon="1.20769">
        <ele>424.60000610352</ele>
        <time>2021-07-03T09:50:22.000Z</time>
      </trkpt>
      <trkpt lat="42.99042" lon="1.2077">
        <ele>425.20001220703</ele>
        <time>2021-07-03T09:50:27.000Z</time>
      </trkpt>
      <trkpt lat="42.99041" lon="1.2077">
        <ele>425.39999389648</ele>
        <time>2021-07-03T09:50:28.000Z</time>
      </trkpt>
      <trkpt lat="42.99034" lon="1.2078">
        <ele>426.20001220703</ele>
        <time>2021-07-03T09:50:34.000Z</time>
      </trkpt>
      <trkpt lat="42.99034" lon="1.20781">
        <ele>426.39999389648</ele>
        <time>2021-07-03T09:50:35.000Z</time>
      </trkpt>
      <trkpt lat="42.9902" lon="1.20792">
        <ele>427.20001220703</ele>
        <time>2021-07-03T09:50:42.000Z</time>
      </trkpt>
      <trkpt lat="42.99004" lon="1.2081">
        <ele>427.20001220703</ele>
        <time>2021-07-03T09:50:49.000Z</time>
      </trkpt>
      <trkpt lat="42.99002" lon="1.20812">
        <ele>427.20001220703</ele>
        <time>2021-07-03T09:50:50.000Z</time>
      </trkpt>
      <trkpt lat="42.99001" lon="1.20815">
        <ele>427.39999389648</ele>
        <time>2021-07-03T09:50:51.000Z</time>
      </trkpt>
      <trkpt lat="42.98989" lon="1.2083">
        <ele>427.79998779297</ele>
        <time>2021-07-03T09:50:58.000Z</time>
      </trkpt>
      <trkpt lat="42.98974" lon="1.20848">
        <ele>428.20001220703</ele>
        <time>2021-07-03T09:51:06.000Z</time>
      </trkpt>
      <trkpt lat="42.98961" lon="1.20865">
        <ele>428.20001220703</ele>
        <time>2021-07-03T09:51:13.000Z</time>
      </trkpt>
      <trkpt lat="42.98959" lon="1.20868">
        <ele>428.39999389648</ele>
        <time>2021-07-03T09:51:14.000Z</time>
      </trkpt>
      <trkpt lat="42.98951" lon="1.20881">
        <ele>428.79998779297</ele>
        <time>2021-07-03T09:51:20.000Z</time>
      </trkpt>
      <trkpt lat="42.9894" lon="1.20896">
        <ele>429</ele>
        <time>2021-07-03T09:51:28.000Z</time>
      </trkpt>
      <trkpt lat="42.98929" lon="1.20914">
        <ele>429.20001220703</ele>
        <time>2021-07-03T09:51:36.000Z</time>
      </trkpt>
      <trkpt lat="42.98914" lon="1.20929">
        <ele>429.39999389648</ele>
        <time>2021-07-03T09:51:44.000Z</time>
      </trkpt>
      <trkpt lat="42.98905" lon="1.2094">
        <ele>429.39999389648</ele>
        <time>2021-07-03T09:51:49.000Z</time>
      </trkpt>
      <trkpt lat="42.98901" lon="1.20944">
        <ele>429.79998779297</ele>
        <time>2021-07-03T09:51:51.000Z</time>
      </trkpt>
      <trkpt lat="42.98884" lon="1.20954">
        <ele>430.39999389648</ele>
        <time>2021-07-03T09:51:59.000Z</time>
      </trkpt>
      <trkpt lat="42.98881" lon="1.20954">
        <ele>430.39999389648</ele>
        <time>2021-07-03T09:52:00.000Z</time>
      </trkpt>
      <trkpt lat="42.98868" lon="1.20953">
        <ele>430.60000610352</ele>
        <time>2021-07-03T09:52:05.000Z</time>
      </trkpt>
      <trkpt lat="42.98853" lon="1.20954">
        <ele>430.60000610352</ele>
        <time>2021-07-03T09:52:11.000Z</time>
      </trkpt>
      <trkpt lat="42.98834" lon="1.20952">
        <ele>431</ele>
        <time>2021-07-03T09:52:19.000Z</time>
      </trkpt>
      <trkpt lat="42.98831" lon="1.20951">
        <ele>431</ele>
        <time>2021-07-03T09:52:20.000Z</time>
      </trkpt>
      <trkpt lat="42.98819" lon="1.20951">
        <ele>431</ele>
        <time>2021-07-03T09:52:26.000Z</time>
      </trkpt>
      <trkpt lat="42.98811" lon="1.20955">
        <ele>431</ele>
        <time>2021-07-03T09:52:30.000Z</time>
      </trkpt>
      <trkpt lat="42.9881" lon="1.20959">
        <ele>431</ele>
        <time>2021-07-03T09:52:32.000Z</time>
      </trkpt>
      <trkpt lat="42.98806" lon="1.20977">
        <ele>431.20001220703</ele>
        <time>2021-07-03T09:52:39.000Z</time>
      </trkpt>
      <trkpt lat="42.98803" lon="1.20992">
        <ele>431.39999389648</ele>
        <time>2021-07-03T09:52:46.000Z</time>
      </trkpt>
      <trkpt lat="42.98802" lon="1.20997">
        <ele>431.60000610352</ele>
        <time>2021-07-03T09:52:48.000Z</time>
      </trkpt>
      <trkpt lat="42.98801" lon="1.21006">
        <ele>432.60000610352</ele>
        <time>2021-07-03T09:52:53.000Z</time>
      </trkpt>
      <trkpt lat="42.98801" lon="1.21006">
        <ele>432.79998779297</ele>
        <time>2021-07-03T09:52:54.000Z</time>
      </trkpt>
      <trkpt lat="42.98799" lon="1.21006">
        <ele>433.20001220703</ele>
        <time>2021-07-03T09:52:56.000Z</time>
      </trkpt>
      <trkpt lat="42.98796" lon="1.21005">
        <ele>433.60000610352</ele>
        <time>2021-07-03T09:52:58.000Z</time>
      </trkpt>
      <trkpt lat="42.98791" lon="1.21003">
        <ele>434</ele>
        <time>2021-07-03T09:53:00.000Z</time>
      </trkpt>
      <trkpt lat="42.98774" lon="1.20998">
        <ele>434.60000610352</ele>
        <time>2021-07-03T09:53:07.000Z</time>
      </trkpt>
      <trkpt lat="42.98772" lon="1.20997">
        <ele>434.60000610352</ele>
        <time>2021-07-03T09:53:08.000Z</time>
      </trkpt>
      <trkpt lat="42.98768" lon="1.20995">
        <ele>434.60000610352</ele>
        <time>2021-07-03T09:53:10.000Z</time>
      </trkpt>
      <trkpt lat="42.98754" lon="1.2099">
        <ele>435.20001220703</ele>
        <time>2021-07-03T09:53:15.000Z</time>
      </trkpt>
      <trkpt lat="42.98747" lon="1.20987">
        <ele>435.79998779297</ele>
        <time>2021-07-03T09:53:18.000Z</time>
      </trkpt>
      <trkpt lat="42.98736" lon="1.2098">
        <ele>436.60000610352</ele>
        <time>2021-07-03T09:53:23.000Z</time>
      </trkpt>
      <trkpt lat="42.98734" lon="1.20978">
        <ele>436.79998779297</ele>
        <time>2021-07-03T09:53:24.000Z</time>
      </trkpt>
      <trkpt lat="42.98725" lon="1.20975">
        <ele>437.60000610352</ele>
        <time>2021-07-03T09:53:29.000Z</time>
      </trkpt>
      <trkpt lat="42.98721" lon="1.20976">
        <ele>438</ele>
        <time>2021-07-03T09:53:31.000Z</time>
      </trkpt>
      <trkpt lat="42.98715" lon="1.2098">
        <ele>438.20001220703</ele>
        <time>2021-07-03T09:53:35.000Z</time>
      </trkpt>
      <trkpt lat="42.98703" lon="1.2099">
        <ele>438.60000610352</ele>
        <time>2021-07-03T09:53:42.000Z</time>
      </trkpt>
      <trkpt lat="42.98698" lon="1.20998">
        <ele>439</ele>
        <time>2021-07-03T09:53:46.000Z</time>
      </trkpt>
      <trkpt lat="42.98694" lon="1.21007">
        <ele>439.20001220703</ele>
        <time>2021-07-03T09:53:49.000Z</time>
      </trkpt>
      <trkpt lat="42.98684" lon="1.21028">
        <ele>440</ele>
        <time>2021-07-03T09:53:57.000Z</time>
      </trkpt>
      <trkpt lat="42.98682" lon="1.21033">
        <ele>440</ele>
        <time>2021-07-03T09:53:59.000Z</time>
      </trkpt>
      <trkpt lat="42.98675" lon="1.21046">
        <ele>440.39999389648</ele>
        <time>2021-07-03T09:54:05.000Z</time>
      </trkpt>
      <trkpt lat="42.98665" lon="1.21058">
        <ele>440.60000610352</ele>
        <time>2021-07-03T09:54:11.000Z</time>
      </trkpt>
      <trkpt lat="42.98659" lon="1.21062">
        <ele>441</ele>
        <time>2021-07-03T09:54:14.000Z</time>
      </trkpt>
      <trkpt lat="42.98649" lon="1.21067">
        <ele>441.60000610352</ele>
        <time>2021-07-03T09:54:18.000Z</time>
      </trkpt>
      <trkpt lat="42.98637" lon="1.21074">
        <ele>442</ele>
        <time>2021-07-03T09:54:24.000Z</time>
      </trkpt>
      <trkpt lat="42.98628" lon="1.21075">
        <ele>443</ele>
        <time>2021-07-03T09:54:29.000Z</time>
      </trkpt>
      <trkpt lat="42.98624" lon="1.21076">
        <ele>443.39999389648</ele>
        <time>2021-07-03T09:54:31.000Z</time>
      </trkpt>
      <trkpt lat="42.98611" lon="1.21074">
        <ele>443.79998779297</ele>
        <time>2021-07-03T09:54:37.000Z</time>
      </trkpt>
      <trkpt lat="42.98599" lon="1.21072">
        <ele>443.39999389648</ele>
        <time>2021-07-03T09:54:43.000Z</time>
      </trkpt>
      <trkpt lat="42.98583" lon="1.21071">
        <ele>443.20001220703</ele>
        <time>2021-07-03T09:54:50.000Z</time>
      </trkpt>
      <trkpt lat="42.98568" lon="1.2107">
        <ele>443.60000610352</ele>
        <time>2021-07-03T09:54:57.000Z</time>
      </trkpt>
      <trkpt lat="42.98555" lon="1.21055">
        <ele>443.20001220703</ele>
        <time>2021-07-03T09:55:04.000Z</time>
      </trkpt>
      <trkpt lat="42.98551" lon="1.21038">
        <ele>442</ele>
        <time>2021-07-03T09:55:11.000Z</time>
      </trkpt>
      <trkpt lat="42.98548" lon="1.21017">
        <ele>441.60000610352</ele>
        <time>2021-07-03T09:55:20.000Z</time>
      </trkpt>
      <trkpt lat="42.98535" lon="1.20997">
        <ele>441.20001220703</ele>
        <time>2021-07-03T09:55:28.000Z</time>
      </trkpt>
      <trkpt lat="42.98523" lon="1.20986">
        <ele>441.60000610352</ele>
        <time>2021-07-03T09:55:34.000Z</time>
      </trkpt>
      <trkpt lat="42.98515" lon="1.20978">
        <ele>441.79998779297</ele>
        <time>2021-07-03T09:55:41.000Z</time>
      </trkpt>
      <trkpt lat="42.98508" lon="1.20965">
        <ele>441.60000610352</ele>
        <time>2021-07-03T09:55:47.000Z</time>
      </trkpt>
      <trkpt lat="42.98498" lon="1.20963">
        <ele>443.20001220703</ele>
        <time>2021-07-03T09:55:53.000Z</time>
      </trkpt>
      <trkpt lat="42.98496" lon="1.20964">
        <ele>443.60000610352</ele>
        <time>2021-07-03T09:55:54.000Z</time>
      </trkpt>
      <trkpt lat="42.9849" lon="1.20966">
        <ele>444.39999389648</ele>
        <time>2021-07-03T09:55:57.000Z</time>
      </trkpt>
      <trkpt lat="42.98486" lon="1.20969">
        <ele>445.79998779297</ele>
        <time>2021-07-03T09:56:01.000Z</time>
      </trkpt>
      <trkpt lat="42.98477" lon="1.20973">
        <ele>447</ele>
        <time>2021-07-03T09:56:08.000Z</time>
      </trkpt>
      <trkpt lat="42.98472" lon="1.20973">
        <ele>447</ele>
        <time>2021-07-03T09:56:10.000Z</time>
      </trkpt>
      <trkpt lat="42.98465" lon="1.20976">
        <ele>448</ele>
        <time>2021-07-03T09:56:15.000Z</time>
      </trkpt>
      <trkpt lat="42.98462" lon="1.20978">
        <ele>448.20001220703</ele>
        <time>2021-07-03T09:56:17.000Z</time>
      </trkpt>
      <trkpt lat="42.98455" lon="1.20979">
        <ele>449</ele>
        <time>2021-07-03T09:56:22.000Z</time>
      </trkpt>
      <trkpt lat="42.98445" lon="1.2098">
        <ele>449.20001220703</ele>
        <time>2021-07-03T09:56:26.000Z</time>
      </trkpt>
      <trkpt lat="42.98429" lon="1.20975">
        <ele>450.20001220703</ele>
        <time>2021-07-03T09:56:32.000Z</time>
      </trkpt>
      <trkpt lat="42.98427" lon="1.20974">
        <ele>450.39999389648</ele>
        <time>2021-07-03T09:56:33.000Z</time>
      </trkpt>
      <trkpt lat="42.98408" lon="1.20966">
        <ele>451.20001220703</ele>
        <time>2021-07-03T09:56:40.000Z</time>
      </trkpt>
      <trkpt lat="42.98405" lon="1.20965">
        <ele>451.39999389648</ele>
        <time>2021-07-03T09:56:41.000Z</time>
      </trkpt>
      <trkpt lat="42.98388" lon="1.2096">
        <ele>451.79998779297</ele>
        <time>2021-07-03T09:56:48.000Z</time>
      </trkpt>
      <trkpt lat="42.98387" lon="1.2096">
        <ele>451.79998779297</ele>
        <time>2021-07-03T09:56:49.000Z</time>
      </trkpt>
      <trkpt lat="42.9837" lon="1.20966">
        <ele>452.39999389648</ele>
        <time>2021-07-03T09:56:56.000Z</time>
      </trkpt>
      <trkpt lat="42.98368" lon="1.20967">
        <ele>452.39999389648</ele>
        <time>2021-07-03T09:56:57.000Z</time>
      </trkpt>
      <trkpt lat="42.98355" lon="1.20975">
        <ele>453.39999389648</ele>
        <time>2021-07-03T09:57:02.000Z</time>
      </trkpt>
      <trkpt lat="42.98349" lon="1.20978">
        <ele>454</ele>
        <time>2021-07-03T09:57:05.000Z</time>
      </trkpt>
      <trkpt lat="42.98345" lon="1.2098">
        <ele>454.60000610352</ele>
        <time>2021-07-03T09:57:07.000Z</time>
      </trkpt>
      <trkpt lat="42.98339" lon="1.20984">
        <ele>455.60000610352</ele>
        <time>2021-07-03T09:57:11.000Z</time>
      </trkpt>
      <trkpt lat="42.98335" lon="1.20988">
        <ele>456.39999389648</ele>
        <time>2021-07-03T09:57:14.000Z</time>
      </trkpt>
      <trkpt lat="42.98334" lon="1.20989">
        <ele>456.79998779297</ele>
        <time>2021-07-03T09:57:15.000Z</time>
      </trkpt>
      <trkpt lat="42.98328" lon="1.20994">
        <ele>458</ele>
        <time>2021-07-03T09:57:19.000Z</time>
      </trkpt>
      <trkpt lat="42.98322" lon="1.21">
        <ele>459.20001220703</ele>
        <time>2021-07-03T09:57:23.000Z</time>
      </trkpt>
      <trkpt lat="42.9832" lon="1.21003">
        <ele>459.60000610352</ele>
        <time>2021-07-03T09:57:25.000Z</time>
      </trkpt>
      <trkpt lat="42.98315" lon="1.21007">
        <ele>460.39999389648</ele>
        <time>2021-07-03T09:57:28.000Z</time>
      </trkpt>
      <trkpt lat="42.9831" lon="1.21014">
        <ele>461.39999389648</ele>
        <time>2021-07-03T09:57:32.000Z</time>
      </trkpt>
      <trkpt lat="42.98308" lon="1.21019">
        <ele>462</ele>
        <time>2021-07-03T09:57:34.000Z</time>
      </trkpt>
      <trkpt lat="42.98305" lon="1.21022">
        <ele>462.60000610352</ele>
        <time>2021-07-03T09:57:36.000Z</time>
      </trkpt>
      <trkpt lat="42.98301" lon="1.21028">
        <ele>463.79998779297</ele>
        <time>2021-07-03T09:57:40.000Z</time>
      </trkpt>
      <trkpt lat="42.983" lon="1.2103">
        <ele>464.20001220703</ele>
        <time>2021-07-03T09:57:41.000Z</time>
      </trkpt>
      <trkpt lat="42.98296" lon="1.21036">
        <ele>464.79998779297</ele>
        <time>2021-07-03T09:57:44.000Z</time>
      </trkpt>
      <trkpt lat="42.98288" lon="1.21049">
        <ele>466</ele>
        <time>2021-07-03T09:57:51.000Z</time>
      </trkpt>
      <trkpt lat="42.98286" lon="1.21051">
        <ele>466.20001220703</ele>
        <time>2021-07-03T09:57:52.000Z</time>
      </trkpt>
      <trkpt lat="42.98282" lon="1.21056">
        <ele>467.20001220703</ele>
        <time>2021-07-03T09:57:55.000Z</time>
      </trkpt>
      <trkpt lat="42.98277" lon="1.21063">
        <ele>468.20001220703</ele>
        <time>2021-07-03T09:57:59.000Z</time>
      </trkpt>
      <trkpt lat="42.98276" lon="1.21065">
        <ele>468.60000610352</ele>
        <time>2021-07-03T09:58:00.000Z</time>
      </trkpt>
      <trkpt lat="42.98272" lon="1.21073">
        <ele>469.39999389648</ele>
        <time>2021-07-03T09:58:04.000Z</time>
      </trkpt>
      <trkpt lat="42.9827" lon="1.2108">
        <ele>470.60000610352</ele>
        <time>2021-07-03T09:58:08.000Z</time>
      </trkpt>
      <trkpt lat="42.9827" lon="1.21081">
        <ele>471</ele>
        <time>2021-07-03T09:58:09.000Z</time>
      </trkpt>
      <trkpt lat="42.98268" lon="1.21084">
        <ele>471.60000610352</ele>
        <time>2021-07-03T09:58:11.000Z</time>
      </trkpt>
      <trkpt lat="42.98263" lon="1.21096">
        <ele>472.60000610352</ele>
        <time>2021-07-03T09:58:16.000Z</time>
      </trkpt>
      <trkpt lat="42.98261" lon="1.211">
        <ele>473.20001220703</ele>
        <time>2021-07-03T09:58:18.000Z</time>
      </trkpt>
      <trkpt lat="42.98259" lon="1.21104">
        <ele>474</ele>
        <time>2021-07-03T09:58:20.000Z</time>
      </trkpt>
      <trkpt lat="42.98249" lon="1.21122">
        <ele>475</ele>
        <time>2021-07-03T09:58:27.000Z</time>
      </trkpt>
      <trkpt lat="42.98234" lon="1.21142">
        <ele>475.20001220703</ele>
        <time>2021-07-03T09:58:35.000Z</time>
      </trkpt>
      <trkpt lat="42.98221" lon="1.21159">
        <ele>475</ele>
        <time>2021-07-03T09:58:42.000Z</time>
      </trkpt>
      <trkpt lat="42.98208" lon="1.21177">
        <ele>474.79998779297</ele>
        <time>2021-07-03T09:58:50.000Z</time>
      </trkpt>
      <trkpt lat="42.98206" lon="1.21179">
        <ele>474.79998779297</ele>
        <time>2021-07-03T09:58:51.000Z</time>
      </trkpt>
      <trkpt lat="42.9819" lon="1.21194">
        <ele>474</ele>
        <time>2021-07-03T09:58:59.000Z</time>
      </trkpt>
      <trkpt lat="42.98178" lon="1.21204">
        <ele>474</ele>
        <time>2021-07-03T09:59:06.000Z</time>
      </trkpt>
      <trkpt lat="42.98177" lon="1.21206">
        <ele>474</ele>
        <time>2021-07-03T09:59:07.000Z</time>
      </trkpt>
      <trkpt lat="42.98165" lon="1.21216">
        <ele>474.20001220703</ele>
        <time>2021-07-03T09:59:14.000Z</time>
      </trkpt>
      <trkpt lat="42.98163" lon="1.21218">
        <ele>473.79998779297</ele>
        <time>2021-07-03T09:59:15.000Z</time>
      </trkpt>
      <trkpt lat="42.98158" lon="1.21229">
        <ele>473</ele>
        <time>2021-07-03T09:59:20.000Z</time>
      </trkpt>
      <trkpt lat="42.98157" lon="1.21235">
        <ele>473.20001220703</ele>
        <time>2021-07-03T09:59:22.000Z</time>
      </trkpt>
      <trkpt lat="42.98151" lon="1.21253">
        <ele>474.60000610352</ele>
        <time>2021-07-03T09:59:28.000Z</time>
      </trkpt>
      <trkpt lat="42.98151" lon="1.21256">
        <ele>475</ele>
        <time>2021-07-03T09:59:29.000Z</time>
      </trkpt>
      <trkpt lat="42.9815" lon="1.21266">
        <ele>476</ele>
        <time>2021-07-03T09:59:33.000Z</time>
      </trkpt>
      <trkpt lat="42.9815" lon="1.21271">
        <ele>476.60000610352</ele>
        <time>2021-07-03T09:59:35.000Z</time>
      </trkpt>
      <trkpt lat="42.9815" lon="1.21275">
        <ele>477.20001220703</ele>
        <time>2021-07-03T09:59:37.000Z</time>
      </trkpt>
      <trkpt lat="42.98148" lon="1.21284">
        <ele>478.20001220703</ele>
        <time>2021-07-03T09:59:41.000Z</time>
      </trkpt>
      <trkpt lat="42.98147" lon="1.2129">
        <ele>478.79998779297</ele>
        <time>2021-07-03T09:59:45.000Z</time>
      </trkpt>
      <trkpt lat="42.98148" lon="1.21294">
        <ele>479.39999389648</ele>
        <time>2021-07-03T09:59:48.000Z</time>
      </trkpt>
      <trkpt lat="42.98148" lon="1.21302">
        <ele>480.39999389648</ele>
        <time>2021-07-03T09:59:53.000Z</time>
      </trkpt>
      <trkpt lat="42.98148" lon="1.21304">
        <ele>480.60000610352</ele>
        <time>2021-07-03T09:59:54.000Z</time>
      </trkpt>
      <trkpt lat="42.9815" lon="1.21313">
        <ele>481.79998779297</ele>
        <time>2021-07-03T09:59:58.000Z</time>
      </trkpt>
      <trkpt lat="42.9815" lon="1.21318">
        <ele>482.20001220703</ele>
        <time>2021-07-03T10:00:00.000Z</time>
      </trkpt>
      <trkpt lat="42.98151" lon="1.21324">
        <ele>482.79998779297</ele>
        <time>2021-07-03T10:00:03.000Z</time>
      </trkpt>
      <trkpt lat="42.98152" lon="1.21331">
        <ele>484</ele>
        <time>2021-07-03T10:00:06.000Z</time>
      </trkpt>
      <trkpt lat="42.98152" lon="1.21335">
        <ele>484.39999389648</ele>
        <time>2021-07-03T10:00:08.000Z</time>
      </trkpt>
      <trkpt lat="42.98153" lon="1.21341">
        <ele>485.20001220703</ele>
        <time>2021-07-03T10:00:11.000Z</time>
      </trkpt>
      <trkpt lat="42.98155" lon="1.21342">
        <ele>485.79998779297</ele>
        <time>2021-07-03T10:00:13.000Z</time>
      </trkpt>
      <trkpt lat="42.98157" lon="1.2134">
        <ele>486.20001220703</ele>
        <time>2021-07-03T10:00:15.000Z</time>
      </trkpt>
      <trkpt lat="42.98162" lon="1.21334">
        <ele>487.39999389648</ele>
        <time>2021-07-03T10:00:20.000Z</time>
      </trkpt>
      <trkpt lat="42.98164" lon="1.21329">
        <ele>488.20001220703</ele>
        <time>2021-07-03T10:00:23.000Z</time>
      </trkpt>
      <trkpt lat="42.98164" lon="1.21327">
        <ele>488.60000610352</ele>
        <time>2021-07-03T10:00:24.000Z</time>
      </trkpt>
      <trkpt lat="42.98165" lon="1.21322">
        <ele>489.79998779297</ele>
        <time>2021-07-03T10:00:27.000Z</time>
      </trkpt>
      <trkpt lat="42.98168" lon="1.21318">
        <ele>491</ele>
        <time>2021-07-03T10:00:30.000Z</time>
      </trkpt>
      <trkpt lat="42.9817" lon="1.21317">
        <ele>491.20001220703</ele>
        <time>2021-07-03T10:00:31.000Z</time>
      </trkpt>
      <trkpt lat="42.98177" lon="1.21315">
        <ele>492</ele>
        <time>2021-07-03T10:00:35.000Z</time>
      </trkpt>
      <trkpt lat="42.98183" lon="1.21313">
        <ele>493.20001220703</ele>
        <time>2021-07-03T10:00:39.000Z</time>
      </trkpt>
      <trkpt lat="42.9819" lon="1.21313">
        <ele>494.39999389648</ele>
        <time>2021-07-03T10:00:43.000Z</time>
      </trkpt>
      <trkpt lat="42.98195" lon="1.21313">
        <ele>495</ele>
        <time>2021-07-03T10:00:46.000Z</time>
      </trkpt>
      <trkpt lat="42.98196" lon="1.21311">
        <ele>495.60000610352</ele>
        <time>2021-07-03T10:00:48.000Z</time>
      </trkpt>
      <trkpt lat="42.98201" lon="1.21303">
        <ele>496.60000610352</ele>
        <time>2021-07-03T10:00:53.000Z</time>
      </trkpt>
      <trkpt lat="42.98202" lon="1.21301">
        <ele>496.79998779297</ele>
        <time>2021-07-03T10:00:54.000Z</time>
      </trkpt>
      <trkpt lat="42.98206" lon="1.21295">
        <ele>497.79998779297</ele>
        <time>2021-07-03T10:00:57.000Z</time>
      </trkpt>
      <trkpt lat="42.98211" lon="1.21292">
        <ele>498.39999389648</ele>
        <time>2021-07-03T10:01:00.000Z</time>
      </trkpt>
      <trkpt lat="42.98213" lon="1.21289">
        <ele>498.79998779297</ele>
        <time>2021-07-03T10:01:03.000Z</time>
      </trkpt>
      <trkpt lat="42.98216" lon="1.21285">
        <ele>500</ele>
        <time>2021-07-03T10:01:07.000Z</time>
      </trkpt>
      <trkpt lat="42.98222" lon="1.2128">
        <ele>501.39999389648</ele>
        <time>2021-07-03T10:01:12.000Z</time>
      </trkpt>
      <trkpt lat="42.98227" lon="1.21277">
        <ele>502.20001220703</ele>
        <time>2021-07-03T10:01:16.000Z</time>
      </trkpt>
      <trkpt lat="42.98229" lon="1.21275">
        <ele>502.60000610352</ele>
        <time>2021-07-03T10:01:18.000Z</time>
      </trkpt>
      <trkpt lat="42.98234" lon="1.21272">
        <ele>503.60000610352</ele>
        <time>2021-07-03T10:01:22.000Z</time>
      </trkpt>
      <trkpt lat="42.98238" lon="1.2127">
        <ele>504.60000610352</ele>
        <time>2021-07-03T10:01:25.000Z</time>
      </trkpt>
      <trkpt lat="42.98239" lon="1.21269">
        <ele>504.79998779297</ele>
        <time>2021-07-03T10:01:26.000Z</time>
      </trkpt>
      <trkpt lat="42.98245" lon="1.21266">
        <ele>506</ele>
        <time>2021-07-03T10:01:30.000Z</time>
      </trkpt>
      <trkpt lat="42.98251" lon="1.21263">
        <ele>507.20001220703</ele>
        <time>2021-07-03T10:01:34.000Z</time>
      </trkpt>
      <trkpt lat="42.98252" lon="1.21262">
        <ele>507.39999389648</ele>
        <time>2021-07-03T10:01:35.000Z</time>
      </trkpt>
      <trkpt lat="42.98256" lon="1.21259">
        <ele>508.39999389648</ele>
        <time>2021-07-03T10:01:38.000Z</time>
      </trkpt>
      <trkpt lat="42.98262" lon="1.21255">
        <ele>509.39999389648</ele>
        <time>2021-07-03T10:01:42.000Z</time>
      </trkpt>
      <trkpt lat="42.98266" lon="1.21249">
        <ele>510.60000610352</ele>
        <time>2021-07-03T10:01:46.000Z</time>
      </trkpt>
      <trkpt lat="42.98271" lon="1.21246">
        <ele>511.79998779297</ele>
        <time>2021-07-03T10:01:50.000Z</time>
      </trkpt>
      <trkpt lat="42.98275" lon="1.21242">
        <ele>513</ele>
        <time>2021-07-03T10:01:54.000Z</time>
      </trkpt>
      <trkpt lat="42.9828" lon="1.21238">
        <ele>514</ele>
        <time>2021-07-03T10:01:58.000Z</time>
      </trkpt>
      <trkpt lat="42.98285" lon="1.21234">
        <ele>515.20001220703</ele>
        <time>2021-07-03T10:02:02.000Z</time>
      </trkpt>
      <trkpt lat="42.98291" lon="1.21228">
        <ele>516.59997558594</ele>
        <time>2021-07-03T10:02:08.000Z</time>
      </trkpt>
      <trkpt lat="42.98292" lon="1.21226">
        <ele>516.79998779297</ele>
        <time>2021-07-03T10:02:09.000Z</time>
      </trkpt>
      <trkpt lat="42.98298" lon="1.21221">
        <ele>517.59997558594</ele>
        <time>2021-07-03T10:02:13.000Z</time>
      </trkpt>
      <trkpt lat="42.98303" lon="1.21216">
        <ele>518.79998779297</ele>
        <time>2021-07-03T10:02:17.000Z</time>
      </trkpt>
      <trkpt lat="42.98313" lon="1.21208">
        <ele>520</ele>
        <time>2021-07-03T10:02:24.000Z</time>
      </trkpt>
      <trkpt lat="42.98315" lon="1.21206">
        <ele>520</ele>
        <time>2021-07-03T10:02:25.000Z</time>
      </trkpt>
      <trkpt lat="42.98325" lon="1.21197">
        <ele>521</ele>
        <time>2021-07-03T10:02:32.000Z</time>
      </trkpt>
      <trkpt lat="42.98327" lon="1.21196">
        <ele>521.20001220703</ele>
        <time>2021-07-03T10:02:33.000Z</time>
      </trkpt>
      <trkpt lat="42.9834" lon="1.21187">
        <ele>522.20001220703</ele>
        <time>2021-07-03T10:02:41.000Z</time>
      </trkpt>
      <trkpt lat="42.98347" lon="1.21181">
        <ele>523.20001220703</ele>
        <time>2021-07-03T10:02:46.000Z</time>
      </trkpt>
      <trkpt lat="42.9835" lon="1.21179">
        <ele>523.40002441406</ele>
        <time>2021-07-03T10:02:48.000Z</time>
      </trkpt>
      <trkpt lat="42.98355" lon="1.21174">
        <ele>524.59997558594</ele>
        <time>2021-07-03T10:02:53.000Z</time>
      </trkpt>
      <trkpt lat="42.98357" lon="1.21172">
        <ele>525</ele>
        <time>2021-07-03T10:02:55.000Z</time>
      </trkpt>
      <trkpt lat="42.98359" lon="1.21172">
        <ele>525.20001220703</ele>
        <time>2021-07-03T10:02:57.000Z</time>
      </trkpt>
      <trkpt lat="42.9836" lon="1.21173">
        <ele>525.59997558594</ele>
        <time>2021-07-03T10:02:59.000Z</time>
      </trkpt>
      <trkpt lat="42.98359" lon="1.21175">
        <ele>526.20001220703</ele>
        <time>2021-07-03T10:03:01.000Z</time>
      </trkpt>
      <trkpt lat="42.98358" lon="1.21177">
        <ele>527.20001220703</ele>
        <time>2021-07-03T10:03:03.000Z</time>
      </trkpt>
      <trkpt lat="42.98356" lon="1.21183">
        <ele>527.79998779297</ele>
        <time>2021-07-03T10:03:07.000Z</time>
      </trkpt>
      <trkpt lat="42.98355" lon="1.21184">
        <ele>528.20001220703</ele>
        <time>2021-07-03T10:03:08.000Z</time>
      </trkpt>
      <trkpt lat="42.98354" lon="1.21189">
        <ele>529.40002441406</ele>
        <time>2021-07-03T10:03:12.000Z</time>
      </trkpt>
      <trkpt lat="42.98354" lon="1.21191">
        <ele>529.79998779297</ele>
        <time>2021-07-03T10:03:13.000Z</time>
      </trkpt>
      <trkpt lat="42.98354" lon="1.21202">
        <ele>530.40002441406</ele>
        <time>2021-07-03T10:03:19.000Z</time>
      </trkpt>
      <trkpt lat="42.98353" lon="1.21205">
        <ele>530.59997558594</ele>
        <time>2021-07-03T10:03:20.000Z</time>
      </trkpt>
      <trkpt lat="42.98349" lon="1.21219">
        <ele>531.59997558594</ele>
        <time>2021-07-03T10:03:26.000Z</time>
      </trkpt>
      <trkpt lat="42.98348" lon="1.21221">
        <ele>531.59997558594</ele>
        <time>2021-07-03T10:03:27.000Z</time>
      </trkpt>
      <trkpt lat="42.9834" lon="1.21235">
        <ele>532.40002441406</ele>
        <time>2021-07-03T10:03:35.000Z</time>
      </trkpt>
      <trkpt lat="42.98338" lon="1.21241">
        <ele>532.79998779297</ele>
        <time>2021-07-03T10:03:37.000Z</time>
      </trkpt>
      <trkpt lat="42.98337" lon="1.2125">
        <ele>533.79998779297</ele>
        <time>2021-07-03T10:03:41.000Z</time>
      </trkpt>
      <trkpt lat="42.98334" lon="1.2126">
        <ele>534.79998779297</ele>
        <time>2021-07-03T10:03:46.000Z</time>
      </trkpt>
      <trkpt lat="42.98333" lon="1.21265">
        <ele>535.59997558594</ele>
        <time>2021-07-03T10:03:49.000Z</time>
      </trkpt>
      <trkpt lat="42.98333" lon="1.21267">
        <ele>536</ele>
        <time>2021-07-03T10:03:50.000Z</time>
      </trkpt>
      <trkpt lat="42.98334" lon="1.21279">
        <ele>537</ele>
        <time>2021-07-03T10:03:55.000Z</time>
      </trkpt>
      <trkpt lat="42.98334" lon="1.21285">
        <ele>537.20001220703</ele>
        <time>2021-07-03T10:03:57.000Z</time>
      </trkpt>
      <trkpt lat="42.98334" lon="1.21298">
        <ele>538.20001220703</ele>
        <time>2021-07-03T10:04:02.000Z</time>
      </trkpt>
      <trkpt lat="42.98334" lon="1.21301">
        <ele>538.40002441406</ele>
        <time>2021-07-03T10:04:03.000Z</time>
      </trkpt>
      <trkpt lat="42.98333" lon="1.21314">
        <ele>539.40002441406</ele>
        <time>2021-07-03T10:04:08.000Z</time>
      </trkpt>
      <trkpt lat="42.98332" lon="1.21325">
        <ele>540.20001220703</ele>
        <time>2021-07-03T10:04:12.000Z</time>
      </trkpt>
      <trkpt lat="42.98332" lon="1.21328">
        <ele>540.40002441406</ele>
        <time>2021-07-03T10:04:13.000Z</time>
      </trkpt>
      <trkpt lat="42.98333" lon="1.21342">
        <ele>541.59997558594</ele>
        <time>2021-07-03T10:04:18.000Z</time>
      </trkpt>
      <trkpt lat="42.98333" lon="1.21344">
        <ele>541.59997558594</ele>
        <time>2021-07-03T10:04:19.000Z</time>
      </trkpt>
      <trkpt lat="42.98333" lon="1.2135">
        <ele>542.59997558594</ele>
        <time>2021-07-03T10:04:22.000Z</time>
      </trkpt>
      <trkpt lat="42.98332" lon="1.21359">
        <ele>543.59997558594</ele>
        <time>2021-07-03T10:04:27.000Z</time>
      </trkpt>
      <trkpt lat="42.98331" lon="1.21366">
        <ele>545</ele>
        <time>2021-07-03T10:04:31.000Z</time>
      </trkpt>
      <trkpt lat="42.98331" lon="1.21374">
        <ele>546</ele>
        <time>2021-07-03T10:04:34.000Z</time>
      </trkpt>
      <trkpt lat="42.98332" lon="1.21376">
        <ele>546</ele>
        <time>2021-07-03T10:04:35.000Z</time>
      </trkpt>
      <trkpt lat="42.98331" lon="1.21391">
        <ele>547.40002441406</ele>
        <time>2021-07-03T10:04:41.000Z</time>
      </trkpt>
      <trkpt lat="42.98327" lon="1.21402">
        <ele>548.40002441406</ele>
        <time>2021-07-03T10:04:46.000Z</time>
      </trkpt>
      <trkpt lat="42.98326" lon="1.21405">
        <ele>549</ele>
        <time>2021-07-03T10:04:48.000Z</time>
      </trkpt>
      <trkpt lat="42.98324" lon="1.2141">
        <ele>549.79998779297</ele>
        <time>2021-07-03T10:04:51.000Z</time>
      </trkpt>
      <trkpt lat="42.98322" lon="1.21422">
        <ele>550.79998779297</ele>
        <time>2021-07-03T10:04:56.000Z</time>
      </trkpt>
      <trkpt lat="42.98321" lon="1.21423">
        <ele>551</ele>
        <time>2021-07-03T10:04:57.000Z</time>
      </trkpt>
      <trkpt lat="42.98322" lon="1.21434">
        <ele>552.20001220703</ele>
        <time>2021-07-03T10:05:02.000Z</time>
      </trkpt>
      <trkpt lat="42.98323" lon="1.21437">
        <ele>552.40002441406</ele>
        <time>2021-07-03T10:05:04.000Z</time>
      </trkpt>
      <trkpt lat="42.98322" lon="1.21445">
        <ele>553.20001220703</ele>
        <time>2021-07-03T10:05:07.000Z</time>
      </trkpt>
      <trkpt lat="42.98323" lon="1.21452">
        <ele>553.59997558594</ele>
        <time>2021-07-03T10:05:10.000Z</time>
      </trkpt>
      <trkpt lat="42.98322" lon="1.21456">
        <ele>554.20001220703</ele>
        <time>2021-07-03T10:05:12.000Z</time>
      </trkpt>
      <trkpt lat="42.98323" lon="1.2147">
        <ele>555.20001220703</ele>
        <time>2021-07-03T10:05:17.000Z</time>
      </trkpt>
      <trkpt lat="42.98324" lon="1.21472">
        <ele>555.20001220703</ele>
        <time>2021-07-03T10:05:18.000Z</time>
      </trkpt>
      <trkpt lat="42.98322" lon="1.21477">
        <ele>555.59997558594</ele>
        <time>2021-07-03T10:05:20.000Z</time>
      </trkpt>
      <trkpt lat="42.98319" lon="1.21484">
        <ele>555.79998779297</ele>
        <time>2021-07-03T10:05:23.000Z</time>
      </trkpt>
      <trkpt lat="42.98314" lon="1.21494">
        <ele>556.40002441406</ele>
        <time>2021-07-03T10:05:28.000Z</time>
      </trkpt>
      <trkpt lat="42.9831" lon="1.21503">
        <ele>557.20001220703</ele>
        <time>2021-07-03T10:05:32.000Z</time>
      </trkpt>
      <trkpt lat="42.98309" lon="1.21507">
        <ele>557.40002441406</ele>
        <time>2021-07-03T10:05:34.000Z</time>
      </trkpt>
      <trkpt lat="42.98305" lon="1.21519">
        <ele>558.40002441406</ele>
        <time>2021-07-03T10:05:39.000Z</time>
      </trkpt>
      <trkpt lat="42.98304" lon="1.21521">
        <ele>558.59997558594</ele>
        <time>2021-07-03T10:05:40.000Z</time>
      </trkpt>
      <trkpt lat="42.98298" lon="1.21535">
        <ele>559.79998779297</ele>
        <time>2021-07-03T10:05:46.000Z</time>
      </trkpt>
      <trkpt lat="42.98294" lon="1.21554">
        <ele>560.59997558594</ele>
        <time>2021-07-03T10:05:53.000Z</time>
      </trkpt>
      <trkpt lat="42.98293" lon="1.2156">
        <ele>560.79998779297</ele>
        <time>2021-07-03T10:05:55.000Z</time>
      </trkpt>
      <trkpt lat="42.9829" lon="1.21568">
        <ele>562</ele>
        <time>2021-07-03T10:06:00.000Z</time>
      </trkpt>
      <trkpt lat="42.98285" lon="1.21573">
        <ele>563</ele>
        <time>2021-07-03T10:06:05.000Z</time>
      </trkpt>
      <trkpt lat="42.98281" lon="1.21576">
        <ele>563.59997558594</ele>
        <time>2021-07-03T10:06:08.000Z</time>
      </trkpt>
      <trkpt lat="42.98277" lon="1.21582">
        <ele>564.20001220703</ele>
        <time>2021-07-03T10:06:11.000Z</time>
      </trkpt>
      <trkpt lat="42.98272" lon="1.21593">
        <ele>565</ele>
        <time>2021-07-03T10:06:17.000Z</time>
      </trkpt>
      <trkpt lat="42.98271" lon="1.21594">
        <ele>565.40002441406</ele>
        <time>2021-07-03T10:06:18.000Z</time>
      </trkpt>
      <trkpt lat="42.98262" lon="1.21604">
        <ele>566.20001220703</ele>
        <time>2021-07-03T10:06:24.000Z</time>
      </trkpt>
      <trkpt lat="42.9826" lon="1.21606">
        <ele>566.40002441406</ele>
        <time>2021-07-03T10:06:25.000Z</time>
      </trkpt>
      <trkpt lat="42.98246" lon="1.21613">
        <ele>567.40002441406</ele>
        <time>2021-07-03T10:06:32.000Z</time>
      </trkpt>
      <trkpt lat="42.98241" lon="1.21616">
        <ele>567.59997558594</ele>
        <time>2021-07-03T10:06:34.000Z</time>
      </trkpt>
      <trkpt lat="42.98233" lon="1.21624">
        <ele>568.40002441406</ele>
        <time>2021-07-03T10:06:39.000Z</time>
      </trkpt>
      <trkpt lat="42.98233" lon="1.21626">
        <ele>568.79998779297</ele>
        <time>2021-07-03T10:06:40.000Z</time>
      </trkpt>
      <trkpt lat="42.98232" lon="1.21627">
        <ele>569</ele>
        <time>2021-07-03T10:06:41.000Z</time>
      </trkpt>
      <trkpt lat="42.98229" lon="1.21636">
        <ele>569.79998779297</ele>
        <time>2021-07-03T10:06:45.000Z</time>
      </trkpt>
      <trkpt lat="42.98227" lon="1.21642">
        <ele>570</ele>
        <time>2021-07-03T10:06:48.000Z</time>
      </trkpt>
      <trkpt lat="42.98226" lon="1.21663">
        <ele>569.79998779297</ele>
        <time>2021-07-03T10:06:56.000Z</time>
      </trkpt>
      <trkpt lat="42.98222" lon="1.21675">
        <ele>568.59997558594</ele>
        <time>2021-07-03T10:07:01.000Z</time>
      </trkpt>
      <trkpt lat="42.9822" lon="1.21679">
        <ele>568.20001220703</ele>
        <time>2021-07-03T10:07:03.000Z</time>
      </trkpt>
      <trkpt lat="42.98216" lon="1.21685">
        <ele>567.40002441406</ele>
        <time>2021-07-03T10:07:06.000Z</time>
      </trkpt>
      <trkpt lat="42.98212" lon="1.21692">
        <ele>566.40002441406</ele>
        <time>2021-07-03T10:07:09.000Z</time>
      </trkpt>
      <trkpt lat="42.98211" lon="1.21694">
        <ele>566.20001220703</ele>
        <time>2021-07-03T10:07:10.000Z</time>
      </trkpt>
      <trkpt lat="42.98206" lon="1.21697">
        <ele>564.79998779297</ele>
        <time>2021-07-03T10:07:13.000Z</time>
      </trkpt>
      <trkpt lat="42.98204" lon="1.21698">
        <ele>564.59997558594</ele>
        <time>2021-07-03T10:07:14.000Z</time>
      </trkpt>
      <trkpt lat="42.98203" lon="1.217">
        <ele>564.20001220703</ele>
        <time>2021-07-03T10:07:15.000Z</time>
      </trkpt>
      <trkpt lat="42.98201" lon="1.21706">
        <ele>563.40002441406</ele>
        <time>2021-07-03T10:07:17.000Z</time>
      </trkpt>
      <trkpt lat="42.98196" lon="1.21718">
        <ele>562.79998779297</ele>
        <time>2021-07-03T10:07:21.000Z</time>
      </trkpt>
      <trkpt lat="42.9819" lon="1.21726">
        <ele>562.40002441406</ele>
        <time>2021-07-03T10:07:24.000Z</time>
      </trkpt>
      <trkpt lat="42.98185" lon="1.21733">
        <ele>562.40002441406</ele>
        <time>2021-07-03T10:07:27.000Z</time>
      </trkpt>
      <trkpt lat="42.98184" lon="1.21736">
        <ele>562.20001220703</ele>
        <time>2021-07-03T10:07:28.000Z</time>
      </trkpt>
      <trkpt lat="42.98176" lon="1.21758">
        <ele>561.79998779297</ele>
        <time>2021-07-03T10:07:34.000Z</time>
      </trkpt>
      <trkpt lat="42.98168" lon="1.21783">
        <ele>562.59997558594</ele>
        <time>2021-07-03T10:07:41.000Z</time>
      </trkpt>
      <trkpt lat="42.98165" lon="1.21794">
        <ele>563.40002441406</ele>
        <time>2021-07-03T10:07:44.000Z</time>
      </trkpt>
      <trkpt lat="42.98162" lon="1.21812">
        <ele>564.40002441406</ele>
        <time>2021-07-03T10:07:49.000Z</time>
      </trkpt>
      <trkpt lat="42.98161" lon="1.21815">
        <ele>564.40002441406</ele>
        <time>2021-07-03T10:07:50.000Z</time>
      </trkpt>
      <trkpt lat="42.98156" lon="1.21835">
        <ele>565.59997558594</ele>
        <time>2021-07-03T10:07:56.000Z</time>
      </trkpt>
      <trkpt lat="42.98156" lon="1.21838">
        <ele>565.79998779297</ele>
        <time>2021-07-03T10:07:57.000Z</time>
      </trkpt>
      <trkpt lat="42.98153" lon="1.21856">
        <ele>566.59997558594</ele>
        <time>2021-07-03T10:08:02.000Z</time>
      </trkpt>
      <trkpt lat="42.9815" lon="1.21868">
        <ele>567.20001220703</ele>
        <time>2021-07-03T10:08:06.000Z</time>
      </trkpt>
      <trkpt lat="42.98148" lon="1.21874">
        <ele>567.59997558594</ele>
        <time>2021-07-03T10:08:08.000Z</time>
      </trkpt>
      <trkpt lat="42.98148" lon="1.21889">
        <ele>568.59997558594</ele>
        <time>2021-07-03T10:08:13.000Z</time>
      </trkpt>
      <trkpt lat="42.98149" lon="1.21892">
        <ele>568.79998779297</ele>
        <time>2021-07-03T10:08:14.000Z</time>
      </trkpt>
      <trkpt lat="42.98152" lon="1.21904">
        <ele>569.79998779297</ele>
        <time>2021-07-03T10:08:19.000Z</time>
      </trkpt>
      <trkpt lat="42.98155" lon="1.21911">
        <ele>570.20001220703</ele>
        <time>2021-07-03T10:08:22.000Z</time>
      </trkpt>
      <trkpt lat="42.98161" lon="1.21919">
        <ele>571</ele>
        <time>2021-07-03T10:08:27.000Z</time>
      </trkpt>
      <trkpt lat="42.98162" lon="1.21923">
        <ele>571.20001220703</ele>
        <time>2021-07-03T10:08:29.000Z</time>
      </trkpt>
      <trkpt lat="42.98163" lon="1.21929">
        <ele>572</ele>
        <time>2021-07-03T10:08:32.000Z</time>
      </trkpt>
      <trkpt lat="42.98162" lon="1.21937">
        <ele>572.79998779297</ele>
        <time>2021-07-03T10:08:35.000Z</time>
      </trkpt>
      <trkpt lat="42.98162" lon="1.2194">
        <ele>573</ele>
        <time>2021-07-03T10:08:36.000Z</time>
      </trkpt>
      <trkpt lat="42.98158" lon="1.21953">
        <ele>574.20001220703</ele>
        <time>2021-07-03T10:08:41.000Z</time>
      </trkpt>
      <trkpt lat="42.98158" lon="1.21955">
        <ele>574.40002441406</ele>
        <time>2021-07-03T10:08:42.000Z</time>
      </trkpt>
      <trkpt lat="42.98156" lon="1.21962">
        <ele>575.20001220703</ele>
        <time>2021-07-03T10:08:45.000Z</time>
      </trkpt>
      <trkpt lat="42.98154" lon="1.2197">
        <ele>576.20001220703</ele>
        <time>2021-07-03T10:08:48.000Z</time>
      </trkpt>
      <trkpt lat="42.98151" lon="1.21977">
        <ele>577</ele>
        <time>2021-07-03T10:08:51.000Z</time>
      </trkpt>
      <trkpt lat="42.9815" lon="1.21979">
        <ele>577.40002441406</ele>
        <time>2021-07-03T10:08:52.000Z</time>
      </trkpt>
      <trkpt lat="42.98144" lon="1.21991">
        <ele>578.40002441406</ele>
        <time>2021-07-03T10:08:57.000Z</time>
      </trkpt>
      <trkpt lat="42.98142" lon="1.21996">
        <ele>578.59997558594</ele>
        <time>2021-07-03T10:08:59.000Z</time>
      </trkpt>
      <trkpt lat="42.98136" lon="1.22011">
        <ele>579.40002441406</ele>
        <time>2021-07-03T10:09:05.000Z</time>
      </trkpt>
      <trkpt lat="42.98135" lon="1.22015">
        <ele>579.40002441406</ele>
        <time>2021-07-03T10:09:07.000Z</time>
      </trkpt>
      <trkpt lat="42.98131" lon="1.2203">
        <ele>580.20001220703</ele>
        <time>2021-07-03T10:09:13.000Z</time>
      </trkpt>
      <trkpt lat="42.9813" lon="1.22036">
        <ele>580.59997558594</ele>
        <time>2021-07-03T10:09:15.000Z</time>
      </trkpt>
      <trkpt lat="42.98127" lon="1.22052">
        <ele>581.40002441406</ele>
        <time>2021-07-03T10:09:21.000Z</time>
      </trkpt>
      <trkpt lat="42.98126" lon="1.22057">
        <ele>581.59997558594</ele>
        <time>2021-07-03T10:09:23.000Z</time>
      </trkpt>
      <trkpt lat="42.98122" lon="1.2207">
        <ele>581.79998779297</ele>
        <time>2021-07-03T10:09:28.000Z</time>
      </trkpt>
      <trkpt lat="42.98118" lon="1.22096">
        <ele>582.59997558594</ele>
        <time>2021-07-03T10:09:37.000Z</time>
      </trkpt>
      <trkpt lat="42.98117" lon="1.22099">
        <ele>582.79998779297</ele>
        <time>2021-07-03T10:09:38.000Z</time>
      </trkpt>
      <trkpt lat="42.98115" lon="1.22117">
        <ele>583.40002441406</ele>
        <time>2021-07-03T10:09:45.000Z</time>
      </trkpt>
      <trkpt lat="42.98114" lon="1.22132">
        <ele>583.79998779297</ele>
        <time>2021-07-03T10:09:50.000Z</time>
      </trkpt>
      <trkpt lat="42.98114" lon="1.22141">
        <ele>584.20001220703</ele>
        <time>2021-07-03T10:09:53.000Z</time>
      </trkpt>
      <trkpt lat="42.98113" lon="1.22152">
        <ele>584.79998779297</ele>
        <time>2021-07-03T10:09:57.000Z</time>
      </trkpt>
      <trkpt lat="42.98113" lon="1.22161">
        <ele>585.20001220703</ele>
        <time>2021-07-03T10:10:00.000Z</time>
      </trkpt>
      <trkpt lat="42.98112" lon="1.22184">
        <ele>586</ele>
        <time>2021-07-03T10:10:07.000Z</time>
      </trkpt>
      <trkpt lat="42.98111" lon="1.22194">
        <ele>586.20001220703</ele>
        <time>2021-07-03T10:10:10.000Z</time>
      </trkpt>
      <trkpt lat="42.98109" lon="1.22219">
        <ele>586.20001220703</ele>
        <time>2021-07-03T10:10:18.000Z</time>
      </trkpt>
      <trkpt lat="42.98109" lon="1.22228">
        <ele>586.40002441406</ele>
        <time>2021-07-03T10:10:21.000Z</time>
      </trkpt>
      <trkpt lat="42.98109" lon="1.22247">
        <ele>586.40002441406</ele>
        <time>2021-07-03T10:10:27.000Z</time>
      </trkpt>
      <trkpt lat="42.98109" lon="1.22253">
        <ele>586.40002441406</ele>
        <time>2021-07-03T10:10:29.000Z</time>
      </trkpt>
      <trkpt lat="42.9811" lon="1.22279">
        <ele>586.40002441406</ele>
        <time>2021-07-03T10:10:37.000Z</time>
      </trkpt>
      <trkpt lat="42.9811" lon="1.22283">
        <ele>586.40002441406</ele>
        <time>2021-07-03T10:10:38.000Z</time>
      </trkpt>
      <trkpt lat="42.98108" lon="1.22309">
        <ele>586</ele>
        <time>2021-07-03T10:10:46.000Z</time>
      </trkpt>
      <trkpt lat="42.98107" lon="1.22313">
        <ele>586</ele>
        <time>2021-07-03T10:10:47.000Z</time>
      </trkpt>
      <trkpt lat="42.98107" lon="1.22317">
        <ele>586</ele>
        <time>2021-07-03T10:10:48.000Z</time>
      </trkpt>
      <trkpt lat="42.98107" lon="1.22338">
        <ele>586</ele>
        <time>2021-07-03T10:10:54.000Z</time>
      </trkpt>
      <trkpt lat="42.98106" lon="1.22366">
        <ele>585.40002441406</ele>
        <time>2021-07-03T10:11:02.000Z</time>
      </trkpt>
      <trkpt lat="42.98106" lon="1.22373">
        <ele>585.20001220703</ele>
        <time>2021-07-03T10:11:04.000Z</time>
      </trkpt>
      <trkpt lat="42.98106" lon="1.2238">
        <ele>584.79998779297</ele>
        <time>2021-07-03T10:11:06.000Z</time>
      </trkpt>
      <trkpt lat="42.98108" lon="1.22406">
        <ele>584.59997558594</ele>
        <time>2021-07-03T10:11:14.000Z</time>
      </trkpt>
      <trkpt lat="42.98108" lon="1.22432">
        <ele>584</ele>
        <time>2021-07-03T10:11:22.000Z</time>
      </trkpt>
      <trkpt lat="42.98107" lon="1.22441">
        <ele>583.79998779297</ele>
        <time>2021-07-03T10:11:25.000Z</time>
      </trkpt>
      <trkpt lat="42.98107" lon="1.22445">
        <ele>583.79998779297</ele>
        <time>2021-07-03T10:11:26.000Z</time>
      </trkpt>
      <trkpt lat="42.98105" lon="1.22458">
        <ele>583.79998779297</ele>
        <time>2021-07-03T10:11:30.000Z</time>
      </trkpt>
      <trkpt lat="42.98103" lon="1.2248">
        <ele>584</ele>
        <time>2021-07-03T10:11:37.000Z</time>
      </trkpt>
      <trkpt lat="42.98101" lon="1.22506">
        <ele>584</ele>
        <time>2021-07-03T10:11:45.000Z</time>
      </trkpt>
      <trkpt lat="42.98101" lon="1.22513">
        <ele>584</ele>
        <time>2021-07-03T10:11:47.000Z</time>
      </trkpt>
      <trkpt lat="42.98101" lon="1.22539">
        <ele>584</ele>
        <time>2021-07-03T10:11:55.000Z</time>
      </trkpt>
      <trkpt lat="42.98101" lon="1.22543">
        <ele>584</ele>
        <time>2021-07-03T10:11:56.000Z</time>
      </trkpt>
      <trkpt lat="42.98102" lon="1.2257">
        <ele>584.20001220703</ele>
        <time>2021-07-03T10:12:04.000Z</time>
      </trkpt>
      <trkpt lat="42.98102" lon="1.22573">
        <ele>584.40002441406</ele>
        <time>2021-07-03T10:12:05.000Z</time>
      </trkpt>
      <trkpt lat="42.98101" lon="1.22585">
        <ele>584.79998779297</ele>
        <time>2021-07-03T10:12:09.000Z</time>
      </trkpt>
      <trkpt lat="42.981" lon="1.22594">
        <ele>585</ele>
        <time>2021-07-03T10:12:12.000Z</time>
      </trkpt>
      <trkpt lat="42.981" lon="1.22616">
        <ele>585.79998779297</ele>
        <time>2021-07-03T10:12:19.000Z</time>
      </trkpt>
      <trkpt lat="42.981" lon="1.22622">
        <ele>586</ele>
        <time>2021-07-03T10:12:21.000Z</time>
      </trkpt>
      <trkpt lat="42.981" lon="1.22649">
        <ele>586.20001220703</ele>
        <time>2021-07-03T10:12:29.000Z</time>
      </trkpt>
      <trkpt lat="42.981" lon="1.22655">
        <ele>586.20001220703</ele>
        <time>2021-07-03T10:12:31.000Z</time>
      </trkpt>
      <trkpt lat="42.98097" lon="1.22682">
        <ele>585.79998779297</ele>
        <time>2021-07-03T10:12:39.000Z</time>
      </trkpt>
      <trkpt lat="42.98093" lon="1.22707">
        <ele>585.40002441406</ele>
        <time>2021-07-03T10:12:46.000Z</time>
      </trkpt>
      <trkpt lat="42.98092" lon="1.2271">
        <ele>585.40002441406</ele>
        <time>2021-07-03T10:12:47.000Z</time>
      </trkpt>
      <trkpt lat="42.98088" lon="1.22722">
        <ele>584.79998779297</ele>
        <time>2021-07-03T10:12:51.000Z</time>
      </trkpt>
      <trkpt lat="42.98084" lon="1.22734">
        <ele>584.59997558594</ele>
        <time>2021-07-03T10:12:55.000Z</time>
      </trkpt>
      <trkpt lat="42.98077" lon="1.22759">
        <ele>584.40002441406</ele>
        <time>2021-07-03T10:13:03.000Z</time>
      </trkpt>
      <trkpt lat="42.98076" lon="1.22763">
        <ele>584.40002441406</ele>
        <time>2021-07-03T10:13:04.000Z</time>
      </trkpt>
      <trkpt lat="42.98071" lon="1.22789">
        <ele>584</ele>
        <time>2021-07-03T10:13:12.000Z</time>
      </trkpt>
      <trkpt lat="42.9807" lon="1.22792">
        <ele>584</ele>
        <time>2021-07-03T10:13:13.000Z</time>
      </trkpt>
      <trkpt lat="42.98068" lon="1.22807">
        <ele>583.79998779297</ele>
        <time>2021-07-03T10:13:18.000Z</time>
      </trkpt>
      <trkpt lat="42.98067" lon="1.22817">
        <ele>583.40002441406</ele>
        <time>2021-07-03T10:13:21.000Z</time>
      </trkpt>
      <trkpt lat="42.98063" lon="1.22838">
        <ele>582.79998779297</ele>
        <time>2021-07-03T10:13:27.000Z</time>
      </trkpt>
      <trkpt lat="42.98063" lon="1.22841">
        <ele>582.59997558594</ele>
        <time>2021-07-03T10:13:28.000Z</time>
      </trkpt>
      <trkpt lat="42.98057" lon="1.22857">
        <ele>582</ele>
        <time>2021-07-03T10:13:33.000Z</time>
      </trkpt>
      <trkpt lat="42.98055" lon="1.22862">
        <ele>581.59997558594</ele>
        <time>2021-07-03T10:13:35.000Z</time>
      </trkpt>
      <trkpt lat="42.98049" lon="1.22874">
        <ele>581.59997558594</ele>
        <time>2021-07-03T10:13:40.000Z</time>
      </trkpt>
      <trkpt lat="42.98039" lon="1.22894">
        <ele>581.79998779297</ele>
        <time>2021-07-03T10:13:48.000Z</time>
      </trkpt>
      <trkpt lat="42.98028" lon="1.22915">
        <ele>581.20001220703</ele>
        <time>2021-07-03T10:13:55.000Z</time>
      </trkpt>
      <trkpt lat="42.98026" lon="1.22918">
        <ele>581</ele>
        <time>2021-07-03T10:13:56.000Z</time>
      </trkpt>
      <trkpt lat="42.98019" lon="1.2294">
        <ele>581.20001220703</ele>
        <time>2021-07-03T10:14:03.000Z</time>
      </trkpt>
      <trkpt lat="42.98017" lon="1.22943">
        <ele>581.40002441406</ele>
        <time>2021-07-03T10:14:04.000Z</time>
      </trkpt>
      <trkpt lat="42.98009" lon="1.2296">
        <ele>582.20001220703</ele>
        <time>2021-07-03T10:14:11.000Z</time>
      </trkpt>
      <trkpt lat="42.98005" lon="1.22974">
        <ele>582.79998779297</ele>
        <time>2021-07-03T10:14:16.000Z</time>
      </trkpt>
      <trkpt lat="42.98003" lon="1.22983">
        <ele>583.20001220703</ele>
        <time>2021-07-03T10:14:19.000Z</time>
      </trkpt>
      <trkpt lat="42.98002" lon="1.22991">
        <ele>583.79998779297</ele>
        <time>2021-07-03T10:14:22.000Z</time>
      </trkpt>
      <trkpt lat="42.98001" lon="1.23">
        <ele>584.59997558594</ele>
        <time>2021-07-03T10:14:25.000Z</time>
      </trkpt>
      <trkpt lat="42.98001" lon="1.23006">
        <ele>584.79998779297</ele>
        <time>2021-07-03T10:14:27.000Z</time>
      </trkpt>
      <trkpt lat="42.97999" lon="1.23022">
        <ele>585.20001220703</ele>
        <time>2021-07-03T10:14:32.000Z</time>
      </trkpt>
      <trkpt lat="42.97996" lon="1.23041">
        <ele>585.40002441406</ele>
        <time>2021-07-03T10:14:38.000Z</time>
      </trkpt>
      <trkpt lat="42.97994" lon="1.23049">
        <ele>585.59997558594</ele>
        <time>2021-07-03T10:14:41.000Z</time>
      </trkpt>
      <trkpt lat="42.97992" lon="1.23058">
        <ele>585.79998779297</ele>
        <time>2021-07-03T10:14:44.000Z</time>
      </trkpt>
      <trkpt lat="42.97989" lon="1.23071">
        <ele>586.40002441406</ele>
        <time>2021-07-03T10:14:48.000Z</time>
      </trkpt>
      <trkpt lat="42.97985" lon="1.23089">
        <ele>586.59997558594</ele>
        <time>2021-07-03T10:14:54.000Z</time>
      </trkpt>
      <trkpt lat="42.97984" lon="1.23098">
        <ele>587</ele>
        <time>2021-07-03T10:14:57.000Z</time>
      </trkpt>
      <trkpt lat="42.97981" lon="1.23111">
        <ele>588.20001220703</ele>
        <time>2021-07-03T10:15:02.000Z</time>
      </trkpt>
      <trkpt lat="42.97976" lon="1.23125">
        <ele>589.20001220703</ele>
        <time>2021-07-03T10:15:07.000Z</time>
      </trkpt>
      <trkpt lat="42.97974" lon="1.23134">
        <ele>589.79998779297</ele>
        <time>2021-07-03T10:15:10.000Z</time>
      </trkpt>
      <trkpt lat="42.97971" lon="1.23142">
        <ele>590.40002441406</ele>
        <time>2021-07-03T10:15:13.000Z</time>
      </trkpt>
      <trkpt lat="42.97968" lon="1.23153">
        <ele>591.40002441406</ele>
        <time>2021-07-03T10:15:17.000Z</time>
      </trkpt>
      <trkpt lat="42.97967" lon="1.23156">
        <ele>591.79998779297</ele>
        <time>2021-07-03T10:15:18.000Z</time>
      </trkpt>
      <trkpt lat="42.97963" lon="1.23166">
        <ele>592.40002441406</ele>
        <time>2021-07-03T10:15:22.000Z</time>
      </trkpt>
      <trkpt lat="42.9796" lon="1.23174">
        <ele>593.40002441406</ele>
        <time>2021-07-03T10:15:25.000Z</time>
      </trkpt>
      <trkpt lat="42.97959" lon="1.23176">
        <ele>593.59997558594</ele>
        <time>2021-07-03T10:15:26.000Z</time>
      </trkpt>
      <trkpt lat="42.97956" lon="1.23189">
        <ele>594.79998779297</ele>
        <time>2021-07-03T10:15:31.000Z</time>
      </trkpt>
      <trkpt lat="42.97955" lon="1.23194">
        <ele>595.40002441406</ele>
        <time>2021-07-03T10:15:33.000Z</time>
      </trkpt>
      <trkpt lat="42.97951" lon="1.23207">
        <ele>596.20001220703</ele>
        <time>2021-07-03T10:15:38.000Z</time>
      </trkpt>
      <trkpt lat="42.97948" lon="1.23213">
        <ele>597.40002441406</ele>
        <time>2021-07-03T10:15:41.000Z</time>
      </trkpt>
      <trkpt lat="42.97946" lon="1.23217">
        <ele>598</ele>
        <time>2021-07-03T10:15:43.000Z</time>
      </trkpt>
      <trkpt lat="42.97943" lon="1.23226">
        <ele>598.59997558594</ele>
        <time>2021-07-03T10:15:47.000Z</time>
      </trkpt>
      <trkpt lat="42.97941" lon="1.23237">
        <ele>598.79998779297</ele>
        <time>2021-07-03T10:15:51.000Z</time>
      </trkpt>
      <trkpt lat="42.9794" lon="1.23246">
        <ele>599.59997558594</ele>
        <time>2021-07-03T10:15:54.000Z</time>
      </trkpt>
      <trkpt lat="42.97937" lon="1.2326">
        <ele>600.20001220703</ele>
        <time>2021-07-03T10:15:59.000Z</time>
      </trkpt>
      <trkpt lat="42.97931" lon="1.23283">
        <ele>600</ele>
        <time>2021-07-03T10:16:07.000Z</time>
      </trkpt>
      <trkpt lat="42.97923" lon="1.23305">
        <ele>599.20001220703</ele>
        <time>2021-07-03T10:16:15.000Z</time>
      </trkpt>
      <trkpt lat="42.97914" lon="1.23321">
        <ele>598.79998779297</ele>
        <time>2021-07-03T10:16:21.000Z</time>
      </trkpt>
      <trkpt lat="42.97913" lon="1.23323">
        <ele>598.59997558594</ele>
        <time>2021-07-03T10:16:22.000Z</time>
      </trkpt>
      <trkpt lat="42.97906" lon="1.23333">
        <ele>597.40002441406</ele>
        <time>2021-07-03T10:16:26.000Z</time>
      </trkpt>
      <trkpt lat="42.97902" lon="1.23338">
        <ele>596.79998779297</ele>
        <time>2021-07-03T10:16:28.000Z</time>
      </trkpt>
      <trkpt lat="42.97899" lon="1.23342">
        <ele>596.20001220703</ele>
        <time>2021-07-03T10:16:30.000Z</time>
      </trkpt>
      <trkpt lat="42.97891" lon="1.2335">
        <ele>596</ele>
        <time>2021-07-03T10:16:35.000Z</time>
      </trkpt>
      <trkpt lat="42.97882" lon="1.23362">
        <ele>596.59997558594</ele>
        <time>2021-07-03T10:16:41.000Z</time>
      </trkpt>
      <trkpt lat="42.97876" lon="1.23371">
        <ele>597.40002441406</ele>
        <time>2021-07-03T10:16:45.000Z</time>
      </trkpt>
      <trkpt lat="42.97873" lon="1.23376">
        <ele>597.79998779297</ele>
        <time>2021-07-03T10:16:47.000Z</time>
      </trkpt>
      <trkpt lat="42.97865" lon="1.23391">
        <ele>598.40002441406</ele>
        <time>2021-07-03T10:16:53.000Z</time>
      </trkpt>
      <trkpt lat="42.97861" lon="1.23394">
        <ele>598.79998779297</ele>
        <time>2021-07-03T10:16:55.000Z</time>
      </trkpt>
      <trkpt lat="42.97854" lon="1.234">
        <ele>599.59997558594</ele>
        <time>2021-07-03T10:16:59.000Z</time>
      </trkpt>
      <trkpt lat="42.97852" lon="1.23404">
        <ele>600</ele>
        <time>2021-07-03T10:17:01.000Z</time>
      </trkpt>
      <trkpt lat="42.97844" lon="1.23417">
        <ele>600.59997558594</ele>
        <time>2021-07-03T10:17:07.000Z</time>
      </trkpt>
      <trkpt lat="42.97842" lon="1.23422">
        <ele>601.20001220703</ele>
        <time>2021-07-03T10:17:09.000Z</time>
      </trkpt>
      <trkpt lat="42.97839" lon="1.23429">
        <ele>601.79998779297</ele>
        <time>2021-07-03T10:17:12.000Z</time>
      </trkpt>
      <trkpt lat="42.97836" lon="1.23435">
        <ele>602.59997558594</ele>
        <time>2021-07-03T10:17:15.000Z</time>
      </trkpt>
      <trkpt lat="42.97833" lon="1.23442">
        <ele>602.79998779297</ele>
        <time>2021-07-03T10:17:18.000Z</time>
      </trkpt>
      <trkpt lat="42.97832" lon="1.23443">
        <ele>602.79998779297</ele>
        <time>2021-07-03T10:17:19.000Z</time>
      </trkpt>
      <trkpt lat="42.97827" lon="1.23451">
        <ele>603.79998779297</ele>
        <time>2021-07-03T10:17:23.000Z</time>
      </trkpt>
      <trkpt lat="42.97826" lon="1.23453">
        <ele>604</ele>
        <time>2021-07-03T10:17:24.000Z</time>
      </trkpt>
      <trkpt lat="42.97822" lon="1.2346">
        <ele>605.40002441406</ele>
        <time>2021-07-03T10:17:28.000Z</time>
      </trkpt>
      <trkpt lat="42.97817" lon="1.23468">
        <ele>606.20001220703</ele>
        <time>2021-07-03T10:17:32.000Z</time>
      </trkpt>
      <trkpt lat="42.97816" lon="1.23469">
        <ele>606.40002441406</ele>
        <time>2021-07-03T10:17:33.000Z</time>
      </trkpt>
      <trkpt lat="42.97812" lon="1.23479">
        <ele>607.59997558594</ele>
        <time>2021-07-03T10:17:38.000Z</time>
      </trkpt>
      <trkpt lat="42.97807" lon="1.2349">
        <ele>608.79998779297</ele>
        <time>2021-07-03T10:17:44.000Z</time>
      </trkpt>
      <trkpt lat="42.97807" lon="1.23493">
        <ele>609</ele>
        <time>2021-07-03T10:17:45.000Z</time>
      </trkpt>
      <trkpt lat="42.97803" lon="1.23504">
        <ele>609.79998779297</ele>
        <time>2021-07-03T10:17:50.000Z</time>
      </trkpt>
      <trkpt lat="42.97801" lon="1.23508">
        <ele>610.20001220703</ele>
        <time>2021-07-03T10:17:52.000Z</time>
      </trkpt>
      <trkpt lat="42.97797" lon="1.23513">
        <ele>611</ele>
        <time>2021-07-03T10:17:55.000Z</time>
      </trkpt>
      <trkpt lat="42.9779" lon="1.23524">
        <ele>612</ele>
        <time>2021-07-03T10:18:00.000Z</time>
      </trkpt>
      <trkpt lat="42.97788" lon="1.23526">
        <ele>612</ele>
        <time>2021-07-03T10:18:01.000Z</time>
      </trkpt>
      <trkpt lat="42.97779" lon="1.23538">
        <ele>613</ele>
        <time>2021-07-03T10:18:07.000Z</time>
      </trkpt>
      <trkpt lat="42.97778" lon="1.2354">
        <ele>613.20001220703</ele>
        <time>2021-07-03T10:18:08.000Z</time>
      </trkpt>
      <trkpt lat="42.9777" lon="1.2355">
        <ele>614.20001220703</ele>
        <time>2021-07-03T10:18:14.000Z</time>
      </trkpt>
      <trkpt lat="42.97767" lon="1.23553">
        <ele>614.79998779297</ele>
        <time>2021-07-03T10:18:16.000Z</time>
      </trkpt>
      <trkpt lat="42.97764" lon="1.23556">
        <ele>615.40002441406</ele>
        <time>2021-07-03T10:18:18.000Z</time>
      </trkpt>
      <trkpt lat="42.97758" lon="1.23565">
        <ele>616.40002441406</ele>
        <time>2021-07-03T10:18:23.000Z</time>
      </trkpt>
      <trkpt lat="42.97752" lon="1.23573">
        <ele>617.20001220703</ele>
        <time>2021-07-03T10:18:27.000Z</time>
      </trkpt>
      <trkpt lat="42.97751" lon="1.23576">
        <ele>617.59997558594</ele>
        <time>2021-07-03T10:18:28.000Z</time>
      </trkpt>
      <trkpt lat="42.97748" lon="1.2358">
        <ele>618</ele>
        <time>2021-07-03T10:18:30.000Z</time>
      </trkpt>
      <trkpt lat="42.97746" lon="1.23585">
        <ele>618.59997558594</ele>
        <time>2021-07-03T10:18:32.000Z</time>
      </trkpt>
      <trkpt lat="42.97741" lon="1.23594">
        <ele>619.79998779297</ele>
        <time>2021-07-03T10:18:36.000Z</time>
      </trkpt>
      <trkpt lat="42.97738" lon="1.23598">
        <ele>620.20001220703</ele>
        <time>2021-07-03T10:18:38.000Z</time>
      </trkpt>
      <trkpt lat="42.97735" lon="1.23603">
        <ele>621</ele>
        <time>2021-07-03T10:18:41.000Z</time>
      </trkpt>
      <trkpt lat="42.97728" lon="1.23612">
        <ele>622.20001220703</ele>
        <time>2021-07-03T10:18:46.000Z</time>
      </trkpt>
      <trkpt lat="42.97723" lon="1.23619">
        <ele>623.40002441406</ele>
        <time>2021-07-03T10:18:50.000Z</time>
      </trkpt>
      <trkpt lat="42.97717" lon="1.23626">
        <ele>624.20001220703</ele>
        <time>2021-07-03T10:18:54.000Z</time>
      </trkpt>
      <trkpt lat="42.97715" lon="1.23628">
        <ele>624.40002441406</ele>
        <time>2021-07-03T10:18:55.000Z</time>
      </trkpt>
      <trkpt lat="42.97706" lon="1.23638">
        <ele>625.40002441406</ele>
        <time>2021-07-03T10:19:01.000Z</time>
      </trkpt>
      <trkpt lat="42.97702" lon="1.23641">
        <ele>625.79998779297</ele>
        <time>2021-07-03T10:19:03.000Z</time>
      </trkpt>
      <trkpt lat="42.97697" lon="1.23645">
        <ele>626.59997558594</ele>
        <time>2021-07-03T10:19:06.000Z</time>
      </trkpt>
      <trkpt lat="42.97688" lon="1.23651">
        <ele>627.40002441406</ele>
        <time>2021-07-03T10:19:11.000Z</time>
      </trkpt>
      <trkpt lat="42.97687" lon="1.23652">
        <ele>627.59997558594</ele>
        <time>2021-07-03T10:19:12.000Z</time>
      </trkpt>
      <trkpt lat="42.9768" lon="1.23657">
        <ele>628.79998779297</ele>
        <time>2021-07-03T10:19:16.000Z</time>
      </trkpt>
      <trkpt lat="42.97677" lon="1.2366">
        <ele>629.20001220703</ele>
        <time>2021-07-03T10:19:18.000Z</time>
      </trkpt>
      <trkpt lat="42.9767" lon="1.23669">
        <ele>629.79998779297</ele>
        <time>2021-07-03T10:19:22.000Z</time>
      </trkpt>
      <trkpt lat="42.97666" lon="1.23675">
        <ele>630.20001220703</ele>
        <time>2021-07-03T10:19:25.000Z</time>
      </trkpt>
      <trkpt lat="42.97657" lon="1.23692">
        <ele>630.59997558594</ele>
        <time>2021-07-03T10:19:33.000Z</time>
      </trkpt>
      <trkpt lat="42.97655" lon="1.23698">
        <ele>631</ele>
        <time>2021-07-03T10:19:36.000Z</time>
      </trkpt>
      <trkpt lat="42.97651" lon="1.23707">
        <ele>631.40002441406</ele>
        <time>2021-07-03T10:19:40.000Z</time>
      </trkpt>
      <trkpt lat="42.97645" lon="1.2372">
        <ele>632</ele>
        <time>2021-07-03T10:19:45.000Z</time>
      </trkpt>
      <trkpt lat="42.97642" lon="1.23724">
        <ele>632.20001220703</ele>
        <time>2021-07-03T10:19:47.000Z</time>
      </trkpt>
      <trkpt lat="42.97629" lon="1.23737">
        <ele>633.40002441406</ele>
        <time>2021-07-03T10:19:54.000Z</time>
      </trkpt>
      <trkpt lat="42.97618" lon="1.23747">
        <ele>634.20001220703</ele>
        <time>2021-07-03T10:20:01.000Z</time>
      </trkpt>
      <trkpt lat="42.97616" lon="1.23749">
        <ele>634.40002441406</ele>
        <time>2021-07-03T10:20:02.000Z</time>
      </trkpt>
      <trkpt lat="42.97608" lon="1.2376">
        <ele>635</ele>
        <time>2021-07-03T10:20:08.000Z</time>
      </trkpt>
      <trkpt lat="42.97605" lon="1.23766">
        <ele>635.40002441406</ele>
        <time>2021-07-03T10:20:11.000Z</time>
      </trkpt>
      <trkpt lat="42.97595" lon="1.23776">
        <ele>636.59997558594</ele>
        <time>2021-07-03T10:20:17.000Z</time>
      </trkpt>
      <trkpt lat="42.9759" lon="1.23779">
        <ele>638.20001220703</ele>
        <time>2021-07-03T10:20:20.000Z</time>
      </trkpt>
      <trkpt lat="42.97584" lon="1.23785">
        <ele>638.40002441406</ele>
        <time>2021-07-03T10:20:24.000Z</time>
      </trkpt>
      <trkpt lat="42.97571" lon="1.23796">
        <ele>638.40002441406</ele>
        <time>2021-07-03T10:20:33.000Z</time>
      </trkpt>
      <trkpt lat="42.97564" lon="1.23806">
        <ele>638.40002441406</ele>
        <time>2021-07-03T10:20:39.000Z</time>
      </trkpt>
      <trkpt lat="42.97555" lon="1.23818">
        <ele>638.59997558594</ele>
        <time>2021-07-03T10:20:48.000Z</time>
      </trkpt>
      <trkpt lat="42.9755" lon="1.23834">
        <ele>639</ele>
        <time>2021-07-03T10:20:55.000Z</time>
      </trkpt>
      <trkpt lat="42.97549" lon="1.2384">
        <ele>641.79998779297</ele>
        <time>2021-07-03T10:20:58.000Z</time>
      </trkpt>
      <trkpt lat="42.97548" lon="1.23842">
        <ele>643.20001220703</ele>
        <time>2021-07-03T10:20:59.000Z</time>
      </trkpt>
      <trkpt lat="42.97547" lon="1.23846">
        <ele>644.59997558594</ele>
        <time>2021-07-03T10:21:01.000Z</time>
      </trkpt>
      <trkpt lat="42.97545" lon="1.23851">
        <ele>645.79998779297</ele>
        <time>2021-07-03T10:21:04.000Z</time>
      </trkpt>
      <trkpt lat="42.97544" lon="1.23852">
        <ele>646.20001220703</ele>
        <time>2021-07-03T10:21:05.000Z</time>
      </trkpt>
      <trkpt lat="42.97537" lon="1.23865">
        <ele>647.20001220703</ele>
        <time>2021-07-03T10:21:12.000Z</time>
      </trkpt>
      <trkpt lat="42.97531" lon="1.23872">
        <ele>648.40002441406</ele>
        <time>2021-07-03T10:21:17.000Z</time>
      </trkpt>
      <trkpt lat="42.97525" lon="1.23883">
        <ele>649.40002441406</ele>
        <time>2021-07-03T10:21:22.000Z</time>
      </trkpt>
      <trkpt lat="42.97524" lon="1.23885">
        <ele>649.59997558594</ele>
        <time>2021-07-03T10:21:23.000Z</time>
      </trkpt>
      <trkpt lat="42.97514" lon="1.23897">
        <ele>650.59997558594</ele>
        <time>2021-07-03T10:21:31.000Z</time>
      </trkpt>
      <trkpt lat="42.97512" lon="1.23899">
        <ele>650.79998779297</ele>
        <time>2021-07-03T10:21:32.000Z</time>
      </trkpt>
      <trkpt lat="42.97502" lon="1.2391">
        <ele>651.79998779297</ele>
        <time>2021-07-03T10:21:39.000Z</time>
      </trkpt>
      <trkpt lat="42.97501" lon="1.23912">
        <ele>652</ele>
        <time>2021-07-03T10:21:40.000Z</time>
      </trkpt>
      <trkpt lat="42.97493" lon="1.23923">
        <ele>652.59997558594</ele>
        <time>2021-07-03T10:21:45.000Z</time>
      </trkpt>
      <trkpt lat="42.97491" lon="1.23929">
        <ele>653</ele>
        <time>2021-07-03T10:21:47.000Z</time>
      </trkpt>
      <trkpt lat="42.97485" lon="1.23937">
        <ele>654</ele>
        <time>2021-07-03T10:21:52.000Z</time>
      </trkpt>
      <trkpt lat="42.97484" lon="1.2394">
        <ele>654.20001220703</ele>
        <time>2021-07-03T10:21:53.000Z</time>
      </trkpt>
      <trkpt lat="42.97479" lon="1.23957">
        <ele>655.20001220703</ele>
        <time>2021-07-03T10:21:59.000Z</time>
      </trkpt>
      <trkpt lat="42.97479" lon="1.2396">
        <ele>655.40002441406</ele>
        <time>2021-07-03T10:22:00.000Z</time>
      </trkpt>
      <trkpt lat="42.97474" lon="1.23974">
        <ele>656.40002441406</ele>
        <time>2021-07-03T10:22:06.000Z</time>
      </trkpt>
      <trkpt lat="42.97473" lon="1.23981">
        <ele>657</ele>
        <time>2021-07-03T10:22:09.000Z</time>
      </trkpt>
      <trkpt lat="42.97472" lon="1.23988">
        <ele>657.59997558594</ele>
        <time>2021-07-03T10:22:12.000Z</time>
      </trkpt>
      <trkpt lat="42.9747" lon="1.24002">
        <ele>658.59997558594</ele>
        <time>2021-07-03T10:22:18.000Z</time>
      </trkpt>
      <trkpt lat="42.9747" lon="1.24004">
        <ele>658.79998779297</ele>
        <time>2021-07-03T10:22:19.000Z</time>
      </trkpt>
      <trkpt lat="42.97467" lon="1.24012">
        <ele>659.79998779297</ele>
        <time>2021-07-03T10:22:23.000Z</time>
      </trkpt>
      <trkpt lat="42.97464" lon="1.24018">
        <ele>661</ele>
        <time>2021-07-03T10:22:26.000Z</time>
      </trkpt>
      <trkpt lat="42.97462" lon="1.24029">
        <ele>662</ele>
        <time>2021-07-03T10:22:31.000Z</time>
      </trkpt>
      <trkpt lat="42.9746" lon="1.24037">
        <ele>662.79998779297</ele>
        <time>2021-07-03T10:22:35.000Z</time>
      </trkpt>
      <trkpt lat="42.9746" lon="1.24041">
        <ele>663.20001220703</ele>
        <time>2021-07-03T10:22:37.000Z</time>
      </trkpt>
      <trkpt lat="42.97458" lon="1.24051">
        <ele>664.20001220703</ele>
        <time>2021-07-03T10:22:42.000Z</time>
      </trkpt>
      <trkpt lat="42.97457" lon="1.24053">
        <ele>664.40002441406</ele>
        <time>2021-07-03T10:22:43.000Z</time>
      </trkpt>
      <trkpt lat="42.97457" lon="1.2406">
        <ele>665.59997558594</ele>
        <time>2021-07-03T10:22:47.000Z</time>
      </trkpt>
      <trkpt lat="42.97456" lon="1.24065">
        <ele>666.20001220703</ele>
        <time>2021-07-03T10:22:50.000Z</time>
      </trkpt>
      <trkpt lat="42.97455" lon="1.24069">
        <ele>666.79998779297</ele>
        <time>2021-07-03T10:22:52.000Z</time>
      </trkpt>
      <trkpt lat="42.97452" lon="1.24072">
        <ele>667.40002441406</ele>
        <time>2021-07-03T10:22:54.000Z</time>
      </trkpt>
      <trkpt lat="42.97451" lon="1.24074">
        <ele>667.79998779297</ele>
        <time>2021-07-03T10:22:56.000Z</time>
      </trkpt>
      <trkpt lat="42.9745" lon="1.24075">
        <ele>668.20001220703</ele>
        <time>2021-07-03T10:22:57.000Z</time>
      </trkpt>
      <trkpt lat="42.97447" lon="1.24079">
        <ele>669</ele>
        <time>2021-07-03T10:23:00.000Z</time>
      </trkpt>
      <trkpt lat="42.97445" lon="1.2408">
        <ele>669.40002441406</ele>
        <time>2021-07-03T10:23:01.000Z</time>
      </trkpt>
      <trkpt lat="42.97443" lon="1.24087">
        <ele>670.59997558594</ele>
        <time>2021-07-03T10:23:05.000Z</time>
      </trkpt>
      <trkpt lat="42.97441" lon="1.2409">
        <ele>671.40002441406</ele>
        <time>2021-07-03T10:23:07.000Z</time>
      </trkpt>
      <trkpt lat="42.97441" lon="1.24092">
        <ele>671.59997558594</ele>
        <time>2021-07-03T10:23:08.000Z</time>
      </trkpt>
      <trkpt lat="42.97439" lon="1.24096">
        <ele>672.79998779297</ele>
        <time>2021-07-03T10:23:11.000Z</time>
      </trkpt>
      <trkpt lat="42.97437" lon="1.241">
        <ele>673.59997558594</ele>
        <time>2021-07-03T10:23:14.000Z</time>
      </trkpt>
      <trkpt lat="42.97436" lon="1.24102">
        <ele>673.79998779297</ele>
        <time>2021-07-03T10:23:15.000Z</time>
      </trkpt>
      <trkpt lat="42.97432" lon="1.24109">
        <ele>674.79998779297</ele>
        <time>2021-07-03T10:23:20.000Z</time>
      </trkpt>
      <trkpt lat="42.97431" lon="1.2411">
        <ele>674.79998779297</ele>
        <time>2021-07-03T10:23:21.000Z</time>
      </trkpt>
      <trkpt lat="42.97427" lon="1.24118">
        <ele>675.79998779297</ele>
        <time>2021-07-03T10:23:26.000Z</time>
      </trkpt>
      <trkpt lat="42.97426" lon="1.24119">
        <ele>676</ele>
        <time>2021-07-03T10:23:27.000Z</time>
      </trkpt>
      <trkpt lat="42.97422" lon="1.24125">
        <ele>677.20001220703</ele>
        <time>2021-07-03T10:23:31.000Z</time>
      </trkpt>
      <trkpt lat="42.9742" lon="1.24128">
        <ele>677.59997558594</ele>
        <time>2021-07-03T10:23:33.000Z</time>
      </trkpt>
      <trkpt lat="42.97417" lon="1.24132">
        <ele>678.20001220703</ele>
        <time>2021-07-03T10:23:36.000Z</time>
      </trkpt>
      <trkpt lat="42.97415" lon="1.24137">
        <ele>678.79998779297</ele>
        <time>2021-07-03T10:23:39.000Z</time>
      </trkpt>
      <trkpt lat="42.97412" lon="1.24139">
        <ele>679.20001220703</ele>
        <time>2021-07-03T10:23:41.000Z</time>
      </trkpt>
      <trkpt lat="42.97406" lon="1.24147">
        <ele>680.59997558594</ele>
        <time>2021-07-03T10:23:46.000Z</time>
      </trkpt>
      <trkpt lat="42.97402" lon="1.24152">
        <ele>681.59997558594</ele>
        <time>2021-07-03T10:23:50.000Z</time>
      </trkpt>
      <trkpt lat="42.97396" lon="1.24157">
        <ele>682.20001220703</ele>
        <time>2021-07-03T10:23:54.000Z</time>
      </trkpt>
      <trkpt lat="42.97394" lon="1.24159">
        <ele>682.79998779297</ele>
        <time>2021-07-03T10:23:56.000Z</time>
      </trkpt>
      <trkpt lat="42.97388" lon="1.24164">
        <ele>683.40002441406</ele>
        <time>2021-07-03T10:24:00.000Z</time>
      </trkpt>
      <trkpt lat="42.97386" lon="1.24166">
        <ele>683.79998779297</ele>
        <time>2021-07-03T10:24:02.000Z</time>
      </trkpt>
      <trkpt lat="42.97377" lon="1.24175">
        <ele>685</ele>
        <time>2021-07-03T10:24:09.000Z</time>
      </trkpt>
      <trkpt lat="42.97371" lon="1.24186">
        <ele>685.79998779297</ele>
        <time>2021-07-03T10:24:15.000Z</time>
      </trkpt>
      <trkpt lat="42.97368" lon="1.2419">
        <ele>686.20001220703</ele>
        <time>2021-07-03T10:24:17.000Z</time>
      </trkpt>
      <trkpt lat="42.97361" lon="1.24204">
        <ele>686.79998779297</ele>
        <time>2021-07-03T10:24:23.000Z</time>
      </trkpt>
      <trkpt lat="42.97357" lon="1.24214">
        <ele>687.20001220703</ele>
        <time>2021-07-03T10:24:27.000Z</time>
      </trkpt>
      <trkpt lat="42.97354" lon="1.24216">
        <ele>687.40002441406</ele>
        <time>2021-07-03T10:24:29.000Z</time>
      </trkpt>
      <trkpt lat="42.97343" lon="1.24223">
        <ele>688.20001220703</ele>
        <time>2021-07-03T10:24:36.000Z</time>
      </trkpt>
      <trkpt lat="42.97332" lon="1.24237">
        <ele>689.40002441406</ele>
        <time>2021-07-03T10:24:43.000Z</time>
      </trkpt>
      <trkpt lat="42.97331" lon="1.24238">
        <ele>689.40002441406</ele>
        <time>2021-07-03T10:24:44.000Z</time>
      </trkpt>
      <trkpt lat="42.97318" lon="1.24251">
        <ele>690.40002441406</ele>
        <time>2021-07-03T10:24:52.000Z</time>
      </trkpt>
      <trkpt lat="42.97308" lon="1.2426">
        <ele>691</ele>
        <time>2021-07-03T10:24:59.000Z</time>
      </trkpt>
      <trkpt lat="42.97303" lon="1.24262">
        <ele>691.59997558594</ele>
        <time>2021-07-03T10:25:02.000Z</time>
      </trkpt>
      <trkpt lat="42.97295" lon="1.24262">
        <ele>692.59997558594</ele>
        <time>2021-07-03T10:25:06.000Z</time>
      </trkpt>
      <trkpt lat="42.97293" lon="1.24263">
        <ele>693</ele>
        <time>2021-07-03T10:25:07.000Z</time>
      </trkpt>
      <trkpt lat="42.97285" lon="1.24262">
        <ele>694</ele>
        <time>2021-07-03T10:25:12.000Z</time>
      </trkpt>
      <trkpt lat="42.97283" lon="1.24263">
        <ele>694.20001220703</ele>
        <time>2021-07-03T10:25:13.000Z</time>
      </trkpt>
      <trkpt lat="42.97272" lon="1.24265">
        <ele>695.20001220703</ele>
        <time>2021-07-03T10:25:19.000Z</time>
      </trkpt>
      <trkpt lat="42.97271" lon="1.24265">
        <ele>695.40002441406</ele>
        <time>2021-07-03T10:25:20.000Z</time>
      </trkpt>
      <trkpt lat="42.97266" lon="1.24272">
        <ele>696.20001220703</ele>
        <time>2021-07-03T10:25:24.000Z</time>
      </trkpt>
      <trkpt lat="42.97263" lon="1.24283">
        <ele>697</ele>
        <time>2021-07-03T10:25:27.000Z</time>
      </trkpt>
      <trkpt lat="42.97262" lon="1.24289">
        <ele>697.40002441406</ele>
        <time>2021-07-03T10:25:29.000Z</time>
      </trkpt>
      <trkpt lat="42.97262" lon="1.24297">
        <ele>698.40002441406</ele>
        <time>2021-07-03T10:25:33.000Z</time>
      </trkpt>
      <trkpt lat="42.97261" lon="1.24299">
        <ele>698.59997558594</ele>
        <time>2021-07-03T10:25:34.000Z</time>
      </trkpt>
      <trkpt lat="42.97259" lon="1.24309">
        <ele>699.59997558594</ele>
        <time>2021-07-03T10:25:39.000Z</time>
      </trkpt>
      <trkpt lat="42.97259" lon="1.24312">
        <ele>700</ele>
        <time>2021-07-03T10:25:40.000Z</time>
      </trkpt>
      <trkpt lat="42.97258" lon="1.24316">
        <ele>700.79998779297</ele>
        <time>2021-07-03T10:25:42.000Z</time>
      </trkpt>
      <trkpt lat="42.97256" lon="1.24322">
        <ele>701.20001220703</ele>
        <time>2021-07-03T10:25:45.000Z</time>
      </trkpt>
      <trkpt lat="42.97252" lon="1.24329">
        <ele>701.79998779297</ele>
        <time>2021-07-03T10:25:48.000Z</time>
      </trkpt>
      <trkpt lat="42.97245" lon="1.2434">
        <ele>702.79998779297</ele>
        <time>2021-07-03T10:25:54.000Z</time>
      </trkpt>
      <trkpt lat="42.97242" lon="1.24342">
        <ele>703</ele>
        <time>2021-07-03T10:25:56.000Z</time>
      </trkpt>
      <trkpt lat="42.97239" lon="1.24346">
        <ele>704</ele>
        <time>2021-07-03T10:25:59.000Z</time>
      </trkpt>
      <trkpt lat="42.97238" lon="1.24348">
        <ele>704.20001220703</ele>
        <time>2021-07-03T10:26:00.000Z</time>
      </trkpt>
      <trkpt lat="42.97235" lon="1.24355">
        <ele>705</ele>
        <time>2021-07-03T10:26:04.000Z</time>
      </trkpt>
      <trkpt lat="42.97231" lon="1.2436">
        <ele>706.40002441406</ele>
        <time>2021-07-03T10:26:07.000Z</time>
      </trkpt>
      <trkpt lat="42.97226" lon="1.24365">
        <ele>707.20001220703</ele>
        <time>2021-07-03T10:26:11.000Z</time>
      </trkpt>
      <trkpt lat="42.97224" lon="1.24368">
        <ele>707.40002441406</ele>
        <time>2021-07-03T10:26:13.000Z</time>
      </trkpt>
      <trkpt lat="42.97219" lon="1.24376">
        <ele>708.59997558594</ele>
        <time>2021-07-03T10:26:18.000Z</time>
      </trkpt>
      <trkpt lat="42.97213" lon="1.24388">
        <ele>709.79998779297</ele>
        <time>2021-07-03T10:26:23.000Z</time>
      </trkpt>
      <trkpt lat="42.97209" lon="1.24394">
        <ele>710.79998779297</ele>
        <time>2021-07-03T10:26:26.000Z</time>
      </trkpt>
      <trkpt lat="42.97206" lon="1.24407">
        <ele>712</ele>
        <time>2021-07-03T10:26:31.000Z</time>
      </trkpt>
      <trkpt lat="42.97205" lon="1.24412">
        <ele>712.59997558594</ele>
        <time>2021-07-03T10:26:33.000Z</time>
      </trkpt>
      <trkpt lat="42.97203" lon="1.24419">
        <ele>713.20001220703</ele>
        <time>2021-07-03T10:26:36.000Z</time>
      </trkpt>
      <trkpt lat="42.97201" lon="1.24427">
        <ele>714.20001220703</ele>
        <time>2021-07-03T10:26:40.000Z</time>
      </trkpt>
      <trkpt lat="42.97201" lon="1.24429">
        <ele>714.59997558594</ele>
        <time>2021-07-03T10:26:41.000Z</time>
      </trkpt>
      <trkpt lat="42.97198" lon="1.24437">
        <ele>715.40002441406</ele>
        <time>2021-07-03T10:26:44.000Z</time>
      </trkpt>
      <trkpt lat="42.97195" lon="1.24445">
        <ele>716</ele>
        <time>2021-07-03T10:26:47.000Z</time>
      </trkpt>
      <trkpt lat="42.97193" lon="1.24452">
        <ele>716.59997558594</ele>
        <time>2021-07-03T10:26:50.000Z</time>
      </trkpt>
      <trkpt lat="42.97186" lon="1.24463">
        <ele>717.59997558594</ele>
        <time>2021-07-03T10:26:55.000Z</time>
      </trkpt>
      <trkpt lat="42.97185" lon="1.24464">
        <ele>717.79998779297</ele>
        <time>2021-07-03T10:26:56.000Z</time>
      </trkpt>
      <trkpt lat="42.97179" lon="1.24476">
        <ele>718.59997558594</ele>
        <time>2021-07-03T10:27:03.000Z</time>
      </trkpt>
      <trkpt lat="42.97178" lon="1.2448">
        <ele>718.79998779297</ele>
        <time>2021-07-03T10:27:05.000Z</time>
      </trkpt>
      <trkpt lat="42.97176" lon="1.24496">
        <ele>720</ele>
        <time>2021-07-03T10:27:10.000Z</time>
      </trkpt>
      <trkpt lat="42.97175" lon="1.24519">
        <ele>721.20001220703</ele>
        <time>2021-07-03T10:27:18.000Z</time>
      </trkpt>
      <trkpt lat="42.97176" lon="1.24522">
        <ele>721.40002441406</ele>
        <time>2021-07-03T10:27:19.000Z</time>
      </trkpt>
      <trkpt lat="42.97176" lon="1.24527">
        <ele>722.20001220703</ele>
        <time>2021-07-03T10:27:21.000Z</time>
      </trkpt>
      <trkpt lat="42.97175" lon="1.24538">
        <ele>723.40002441406</ele>
        <time>2021-07-03T10:27:25.000Z</time>
      </trkpt>
      <trkpt lat="42.97176" lon="1.24547">
        <ele>724</ele>
        <time>2021-07-03T10:27:29.000Z</time>
      </trkpt>
      <trkpt lat="42.97178" lon="1.24558">
        <ele>724.40002441406</ele>
        <time>2021-07-03T10:27:33.000Z</time>
      </trkpt>
      <trkpt lat="42.97179" lon="1.24567">
        <ele>725.40002441406</ele>
        <time>2021-07-03T10:27:37.000Z</time>
      </trkpt>
      <trkpt lat="42.97179" lon="1.24569">
        <ele>725.59997558594</ele>
        <time>2021-07-03T10:27:38.000Z</time>
      </trkpt>
      <trkpt lat="42.9718" lon="1.24579">
        <ele>726.59997558594</ele>
        <time>2021-07-03T10:27:43.000Z</time>
      </trkpt>
      <trkpt lat="42.9718" lon="1.24584">
        <ele>726.79998779297</ele>
        <time>2021-07-03T10:27:45.000Z</time>
      </trkpt>
      <trkpt lat="42.97179" lon="1.24606">
        <ele>727.40002441406</ele>
        <time>2021-07-03T10:27:53.000Z</time>
      </trkpt>
      <trkpt lat="42.97179" lon="1.24608">
        <ele>727.59997558594</ele>
        <time>2021-07-03T10:27:54.000Z</time>
      </trkpt>
      <trkpt lat="42.97178" lon="1.24622">
        <ele>728.59997558594</ele>
        <time>2021-07-03T10:27:59.000Z</time>
      </trkpt>
      <trkpt lat="42.97178" lon="1.24628">
        <ele>728.79998779297</ele>
        <time>2021-07-03T10:28:02.000Z</time>
      </trkpt>
      <trkpt lat="42.97178" lon="1.24635">
        <ele>728.59997558594</ele>
        <time>2021-07-03T10:28:05.000Z</time>
      </trkpt>
      <trkpt lat="42.97178" lon="1.24644">
        <ele>728</ele>
        <time>2021-07-03T10:28:08.000Z</time>
      </trkpt>
      <trkpt lat="42.97179" lon="1.24646">
        <ele>727.79998779297</ele>
        <time>2021-07-03T10:28:09.000Z</time>
      </trkpt>
      <trkpt lat="42.97181" lon="1.24655">
        <ele>727.40002441406</ele>
        <time>2021-07-03T10:28:12.000Z</time>
      </trkpt>
      <trkpt lat="42.97183" lon="1.24668">
        <ele>726.20001220703</ele>
        <time>2021-07-03T10:28:16.000Z</time>
      </trkpt>
      <trkpt lat="42.97184" lon="1.24672">
        <ele>725.79998779297</ele>
        <time>2021-07-03T10:28:17.000Z</time>
      </trkpt>
      <trkpt lat="42.97187" lon="1.24684">
        <ele>725.20001220703</ele>
        <time>2021-07-03T10:28:21.000Z</time>
      </trkpt>
      <trkpt lat="42.97189" lon="1.24693">
        <ele>724.79998779297</ele>
        <time>2021-07-03T10:28:24.000Z</time>
      </trkpt>
      <trkpt lat="42.97191" lon="1.24702">
        <ele>724</ele>
        <time>2021-07-03T10:28:27.000Z</time>
      </trkpt>
      <trkpt lat="42.97192" lon="1.24715">
        <ele>724</ele>
        <time>2021-07-03T10:28:32.000Z</time>
      </trkpt>
      <trkpt lat="42.97194" lon="1.24735">
        <ele>723</ele>
        <time>2021-07-03T10:28:39.000Z</time>
      </trkpt>
      <trkpt lat="42.97196" lon="1.24741">
        <ele>722.40002441406</ele>
        <time>2021-07-03T10:28:41.000Z</time>
      </trkpt>
      <trkpt lat="42.97196" lon="1.24744">
        <ele>722</ele>
        <time>2021-07-03T10:28:42.000Z</time>
      </trkpt>
      <trkpt lat="42.97198" lon="1.24754">
        <ele>720.79998779297</ele>
        <time>2021-07-03T10:28:45.000Z</time>
      </trkpt>
      <trkpt lat="42.97198" lon="1.2477">
        <ele>719.79998779297</ele>
        <time>2021-07-03T10:28:50.000Z</time>
      </trkpt>
      <trkpt lat="42.97198" lon="1.24772">
        <ele>719.79998779297</ele>
        <time>2021-07-03T10:28:51.000Z</time>
      </trkpt>
      <trkpt lat="42.97198" lon="1.24785">
        <ele>719</ele>
        <time>2021-07-03T10:28:56.000Z</time>
      </trkpt>
      <trkpt lat="42.97199" lon="1.24787">
        <ele>719</ele>
        <time>2021-07-03T10:28:57.000Z</time>
      </trkpt>
      <trkpt lat="42.97202" lon="1.24795">
        <ele>718.59997558594</ele>
        <time>2021-07-03T10:29:00.000Z</time>
      </trkpt>
      <trkpt lat="42.97207" lon="1.24806">
        <ele>717.40002441406</ele>
        <time>2021-07-03T10:29:04.000Z</time>
      </trkpt>
      <trkpt lat="42.97212" lon="1.24811">
        <ele>715.79998779297</ele>
        <time>2021-07-03T10:29:07.000Z</time>
      </trkpt>
      <trkpt lat="42.97214" lon="1.24812">
        <ele>714.79998779297</ele>
        <time>2021-07-03T10:29:08.000Z</time>
      </trkpt>
      <trkpt lat="42.97216" lon="1.24813">
        <ele>713.79998779297</ele>
        <time>2021-07-03T10:29:09.000Z</time>
      </trkpt>
      <trkpt lat="42.97218" lon="1.24814">
        <ele>713.40002441406</ele>
        <time>2021-07-03T10:29:10.000Z</time>
      </trkpt>
      <trkpt lat="42.97221" lon="1.24813">
        <ele>712.79998779297</ele>
        <time>2021-07-03T10:29:11.000Z</time>
      </trkpt>
      <trkpt lat="42.97226" lon="1.24812">
        <ele>711.59997558594</ele>
        <time>2021-07-03T10:29:13.000Z</time>
      </trkpt>
      <trkpt lat="42.97229" lon="1.2481">
        <ele>710.20001220703</ele>
        <time>2021-07-03T10:29:15.000Z</time>
      </trkpt>
      <trkpt lat="42.97232" lon="1.24808">
        <ele>708.59997558594</ele>
        <time>2021-07-03T10:29:17.000Z</time>
      </trkpt>
      <trkpt lat="42.97234" lon="1.24807">
        <ele>707.79998779297</ele>
        <time>2021-07-03T10:29:18.000Z</time>
      </trkpt>
      <trkpt lat="42.97236" lon="1.24807">
        <ele>706.59997558594</ele>
        <time>2021-07-03T10:29:19.000Z</time>
      </trkpt>
      <trkpt lat="42.97241" lon="1.24807">
        <ele>705.40002441406</ele>
        <time>2021-07-03T10:29:22.000Z</time>
      </trkpt>
      <trkpt lat="42.97243" lon="1.24808">
        <ele>704.20001220703</ele>
        <time>2021-07-03T10:29:24.000Z</time>
      </trkpt>
      <trkpt lat="42.97248" lon="1.24811">
        <ele>703.20001220703</ele>
        <time>2021-07-03T10:29:27.000Z</time>
      </trkpt>
      <trkpt lat="42.97255" lon="1.24817">
        <ele>702.40002441406</ele>
        <time>2021-07-03T10:29:30.000Z</time>
      </trkpt>
      <trkpt lat="42.97257" lon="1.24818">
        <ele>702</ele>
        <time>2021-07-03T10:29:31.000Z</time>
      </trkpt>
      <trkpt lat="42.97261" lon="1.2482">
        <ele>701</ele>
        <time>2021-07-03T10:29:33.000Z</time>
      </trkpt>
      <trkpt lat="42.97265" lon="1.24822">
        <ele>699.79998779297</ele>
        <time>2021-07-03T10:29:35.000Z</time>
      </trkpt>
      <trkpt lat="42.9727" lon="1.24822">
        <ele>698.59997558594</ele>
        <time>2021-07-03T10:29:37.000Z</time>
      </trkpt>
      <trkpt lat="42.97271" lon="1.24822">
        <ele>698.20001220703</ele>
        <time>2021-07-03T10:29:38.000Z</time>
      </trkpt>
      <trkpt lat="42.97275" lon="1.24822">
        <ele>697.20001220703</ele>
        <time>2021-07-03T10:29:40.000Z</time>
      </trkpt>
      <trkpt lat="42.97281" lon="1.24823">
        <ele>696</ele>
        <time>2021-07-03T10:29:43.000Z</time>
      </trkpt>
      <trkpt lat="42.97284" lon="1.24822">
        <ele>695.20001220703</ele>
        <time>2021-07-03T10:29:45.000Z</time>
      </trkpt>
      <trkpt lat="42.97286" lon="1.24822">
        <ele>694.59997558594</ele>
        <time>2021-07-03T10:29:46.000Z</time>
      </trkpt>
      <trkpt lat="42.97292" lon="1.24824">
        <ele>693.40002441406</ele>
        <time>2021-07-03T10:29:49.000Z</time>
      </trkpt>
      <trkpt lat="42.97296" lon="1.24826">
        <ele>692.40002441406</ele>
        <time>2021-07-03T10:29:51.000Z</time>
      </trkpt>
      <trkpt lat="42.97298" lon="1.24827">
        <ele>691.79998779297</ele>
        <time>2021-07-03T10:29:52.000Z</time>
      </trkpt>
      <trkpt lat="42.973" lon="1.24828">
        <ele>691.40002441406</ele>
        <time>2021-07-03T10:29:53.000Z</time>
      </trkpt>
      <trkpt lat="42.97307" lon="1.24831">
        <ele>690</ele>
        <time>2021-07-03T10:29:56.000Z</time>
      </trkpt>
      <trkpt lat="42.97312" lon="1.24834">
        <ele>688.79998779297</ele>
        <time>2021-07-03T10:29:59.000Z</time>
      </trkpt>
      <trkpt lat="42.9732" lon="1.24839">
        <ele>687.40002441406</ele>
        <time>2021-07-03T10:30:03.000Z</time>
      </trkpt>
      <trkpt lat="42.97322" lon="1.24841">
        <ele>687.20001220703</ele>
        <time>2021-07-03T10:30:04.000Z</time>
      </trkpt>
      <trkpt lat="42.97325" lon="1.24845">
        <ele>686.20001220703</ele>
        <time>2021-07-03T10:30:06.000Z</time>
      </trkpt>
      <trkpt lat="42.97322" lon="1.2485">
        <ele>685</ele>
        <time>2021-07-03T10:30:10.000Z</time>
      </trkpt>
      <trkpt lat="42.97322" lon="1.24851">
        <ele>684.79998779297</ele>
        <time>2021-07-03T10:30:11.000Z</time>
      </trkpt>
      <trkpt lat="42.97319" lon="1.24853">
        <ele>684</ele>
        <time>2021-07-03T10:30:13.000Z</time>
      </trkpt>
      <trkpt lat="42.97312" lon="1.24859">
        <ele>682.79998779297</ele>
        <time>2021-07-03T10:30:19.000Z</time>
      </trkpt>
      <trkpt lat="42.97306" lon="1.24862">
        <ele>681.59997558594</ele>
        <time>2021-07-03T10:30:22.000Z</time>
      </trkpt>
      <trkpt lat="42.97301" lon="1.24864">
        <ele>680.40002441406</ele>
        <time>2021-07-03T10:30:25.000Z</time>
      </trkpt>
      <trkpt lat="42.97295" lon="1.24865">
        <ele>679.40002441406</ele>
        <time>2021-07-03T10:30:28.000Z</time>
      </trkpt>
      <trkpt lat="42.97287" lon="1.24867">
        <ele>677.79998779297</ele>
        <time>2021-07-03T10:30:32.000Z</time>
      </trkpt>
      <trkpt lat="42.97285" lon="1.24867">
        <ele>677.59997558594</ele>
        <time>2021-07-03T10:30:33.000Z</time>
      </trkpt>
      <trkpt lat="42.97278" lon="1.24867">
        <ele>676.59997558594</ele>
        <time>2021-07-03T10:30:36.000Z</time>
      </trkpt>
      <trkpt lat="42.97274" lon="1.24868">
        <ele>675.59997558594</ele>
        <time>2021-07-03T10:30:38.000Z</time>
      </trkpt>
      <trkpt lat="42.9727" lon="1.24871">
        <ele>674.59997558594</ele>
        <time>2021-07-03T10:30:40.000Z</time>
      </trkpt>
      <trkpt lat="42.97255" lon="1.2488">
        <ele>673.79998779297</ele>
        <time>2021-07-03T10:30:47.000Z</time>
      </trkpt>
      <trkpt lat="42.97243" lon="1.24886">
        <ele>674.59997558594</ele>
        <time>2021-07-03T10:30:54.000Z</time>
      </trkpt>
      <trkpt lat="42.9723" lon="1.24889">
        <ele>675.20001220703</ele>
        <time>2021-07-03T10:31:00.000Z</time>
      </trkpt>
      <trkpt lat="42.97226" lon="1.24891">
        <ele>675.20001220703</ele>
        <time>2021-07-03T10:31:02.000Z</time>
      </trkpt>
      <trkpt lat="42.97213" lon="1.24893">
        <ele>675</ele>
        <time>2021-07-03T10:31:07.000Z</time>
      </trkpt>
      <trkpt lat="42.97205" lon="1.24898">
        <ele>673.20001220703</ele>
        <time>2021-07-03T10:31:12.000Z</time>
      </trkpt>
      <trkpt lat="42.97204" lon="1.24902">
        <ele>672.79998779297</ele>
        <time>2021-07-03T10:31:13.000Z</time>
      </trkpt>
      <trkpt lat="42.97203" lon="1.24909">
        <ele>672.40002441406</ele>
        <time>2021-07-03T10:31:14.000Z</time>
      </trkpt>
      <trkpt lat="42.97202" lon="1.24918">
        <ele>672</ele>
        <time>2021-07-03T10:31:16.000Z</time>
      </trkpt>
      <trkpt lat="42.97204" lon="1.24924">
        <ele>671.79998779297</ele>
        <time>2021-07-03T10:31:18.000Z</time>
      </trkpt>
      <trkpt lat="42.97208" lon="1.24946">
        <ele>672.59997558594</ele>
        <time>2021-07-03T10:31:25.000Z</time>
      </trkpt>
      <trkpt lat="42.97206" lon="1.24958">
        <ele>673.20001220703</ele>
        <time>2021-07-03T10:31:29.000Z</time>
      </trkpt>
      <trkpt lat="42.97204" lon="1.24966">
        <ele>674</ele>
        <time>2021-07-03T10:31:32.000Z</time>
      </trkpt>
      <trkpt lat="42.97203" lon="1.24968">
        <ele>674.20001220703</ele>
        <time>2021-07-03T10:31:33.000Z</time>
      </trkpt>
      <trkpt lat="42.97199" lon="1.24975">
        <ele>675.59997558594</ele>
        <time>2021-07-03T10:31:37.000Z</time>
      </trkpt>
      <trkpt lat="42.97195" lon="1.24979">
        <ele>676</ele>
        <time>2021-07-03T10:31:40.000Z</time>
      </trkpt>
      <trkpt lat="42.97187" lon="1.24986">
        <ele>676.59997558594</ele>
        <time>2021-07-03T10:31:46.000Z</time>
      </trkpt>
      <trkpt lat="42.97185" lon="1.24988">
        <ele>677</ele>
        <time>2021-07-03T10:31:48.000Z</time>
      </trkpt>
      <trkpt lat="42.97173" lon="1.24998">
        <ele>677</ele>
        <time>2021-07-03T10:31:56.000Z</time>
      </trkpt>
      <trkpt lat="42.97161" lon="1.25009">
        <ele>675.40002441406</ele>
        <time>2021-07-03T10:32:04.000Z</time>
      </trkpt>
      <trkpt lat="42.9716" lon="1.25011">
        <ele>674.79998779297</ele>
        <time>2021-07-03T10:32:05.000Z</time>
      </trkpt>
      <trkpt lat="42.97159" lon="1.25016">
        <ele>674.20001220703</ele>
        <time>2021-07-03T10:32:07.000Z</time>
      </trkpt>
      <trkpt lat="42.97158" lon="1.2503">
        <ele>673.79998779297</ele>
        <time>2021-07-03T10:32:11.000Z</time>
      </trkpt>
      <trkpt lat="42.97156" lon="1.25042">
        <ele>673.79998779297</ele>
        <time>2021-07-03T10:32:16.000Z</time>
      </trkpt>
      <trkpt lat="42.97155" lon="1.25046">
        <ele>673.79998779297</ele>
        <time>2021-07-03T10:32:17.000Z</time>
      </trkpt>
      <trkpt lat="42.97153" lon="1.25052">
        <ele>673.20001220703</ele>
        <time>2021-07-03T10:32:20.000Z</time>
      </trkpt>
      <trkpt lat="42.97154" lon="1.25057">
        <ele>673</ele>
        <time>2021-07-03T10:32:22.000Z</time>
      </trkpt>
      <trkpt lat="42.97156" lon="1.25059">
        <ele>672.79998779297</ele>
        <time>2021-07-03T10:32:24.000Z</time>
      </trkpt>
      <trkpt lat="42.97166" lon="1.25066">
        <ele>673.40002441406</ele>
        <time>2021-07-03T10:32:31.000Z</time>
      </trkpt>
      <trkpt lat="42.97173" lon="1.25072">
        <ele>674.20001220703</ele>
        <time>2021-07-03T10:32:36.000Z</time>
      </trkpt>
      <trkpt lat="42.97175" lon="1.25077">
        <ele>674.20001220703</ele>
        <time>2021-07-03T10:32:39.000Z</time>
      </trkpt>
      <trkpt lat="42.97183" lon="1.25085">
        <ele>673</ele>
        <time>2021-07-03T10:32:45.000Z</time>
      </trkpt>
      <trkpt lat="42.97188" lon="1.25091">
        <ele>672</ele>
        <time>2021-07-03T10:32:49.000Z</time>
      </trkpt>
      <trkpt lat="42.97189" lon="1.25092">
        <ele>671.79998779297</ele>
        <time>2021-07-03T10:32:50.000Z</time>
      </trkpt>
      <trkpt lat="42.97194" lon="1.25096">
        <ele>671</ele>
        <time>2021-07-03T10:32:53.000Z</time>
      </trkpt>
      <trkpt lat="42.97196" lon="1.25098">
        <ele>670.79998779297</ele>
        <time>2021-07-03T10:32:54.000Z</time>
      </trkpt>
      <trkpt lat="42.97196" lon="1.251">
        <ele>670.59997558594</ele>
        <time>2021-07-03T10:32:55.000Z</time>
      </trkpt>
      <trkpt lat="42.972" lon="1.25107">
        <ele>671.20001220703</ele>
        <time>2021-07-03T10:33:01.000Z</time>
      </trkpt>
      <trkpt lat="42.972" lon="1.25109">
        <ele>672.20001220703</ele>
        <time>2021-07-03T10:33:03.000Z</time>
      </trkpt>
      <trkpt lat="42.972" lon="1.25112">
        <ele>673.40002441406</ele>
        <time>2021-07-03T10:33:06.000Z</time>
      </trkpt>
      <trkpt lat="42.972" lon="1.25115">
        <ele>674</ele>
        <time>2021-07-03T10:33:08.000Z</time>
      </trkpt>
      <trkpt lat="42.972" lon="1.25117">
        <ele>674.79998779297</ele>
        <time>2021-07-03T10:33:10.000Z</time>
      </trkpt>
      <trkpt lat="42.97199" lon="1.25118">
        <ele>675</ele>
        <time>2021-07-03T10:33:11.000Z</time>
      </trkpt>
      <trkpt lat="42.97199" lon="1.25119">
        <ele>675.79998779297</ele>
        <time>2021-07-03T10:33:12.000Z</time>
      </trkpt>
      <trkpt lat="42.97196" lon="1.25121">
        <ele>677.20001220703</ele>
        <time>2021-07-03T10:33:16.000Z</time>
      </trkpt>
      <trkpt lat="42.97195" lon="1.25124">
        <ele>678.40002441406</ele>
        <time>2021-07-03T10:33:19.000Z</time>
      </trkpt>
      <trkpt lat="42.97194" lon="1.25125">
        <ele>679.20001220703</ele>
        <time>2021-07-03T10:33:21.000Z</time>
      </trkpt>
      <trkpt lat="42.97193" lon="1.25128">
        <ele>679.79998779297</ele>
        <time>2021-07-03T10:33:23.000Z</time>
      </trkpt>
      <trkpt lat="42.97191" lon="1.2513">
        <ele>681.20001220703</ele>
        <time>2021-07-03T10:33:25.000Z</time>
      </trkpt>
      <trkpt lat="42.97187" lon="1.25137">
        <ele>682</ele>
        <time>2021-07-03T10:33:29.000Z</time>
      </trkpt>
      <trkpt lat="42.97185" lon="1.25139">
        <ele>682</ele>
        <time>2021-07-03T10:33:32.000Z</time>
      </trkpt>
      <trkpt lat="42.97184" lon="1.25141">
        <ele>682</ele>
        <time>2021-07-03T10:33:34.000Z</time>
      </trkpt>
      <trkpt lat="42.9718" lon="1.25142">
        <ele>682</ele>
        <time>2021-07-03T10:33:38.000Z</time>
      </trkpt>
      <trkpt lat="42.97179" lon="1.25143">
        <ele>682</ele>
        <time>2021-07-03T10:33:39.000Z</time>
      </trkpt>
      <trkpt lat="42.97178" lon="1.25144">
        <ele>682.20001220703</ele>
        <time>2021-07-03T10:33:41.000Z</time>
      </trkpt>
      <trkpt lat="42.97177" lon="1.25144">
        <ele>682.20001220703</ele>
        <time>2021-07-03T10:33:42.000Z</time>
      </trkpt>
      <trkpt lat="42.97176" lon="1.25144">
        <ele>684.40002441406</ele>
        <time>2021-07-03T10:33:43.000Z</time>
      </trkpt>
      <trkpt lat="42.97175" lon="1.25146">
        <ele>685.59997558594</ele>
        <time>2021-07-03T10:33:44.000Z</time>
      </trkpt>
      <trkpt lat="42.97174" lon="1.25147">
        <ele>686.40002441406</ele>
        <time>2021-07-03T10:33:45.000Z</time>
      </trkpt>
      <trkpt lat="42.97174" lon="1.25149">
        <ele>686.79998779297</ele>
        <time>2021-07-03T10:33:46.000Z</time>
      </trkpt>
      <trkpt lat="42.97172" lon="1.25151">
        <ele>687.40002441406</ele>
        <time>2021-07-03T10:33:48.000Z</time>
      </trkpt>
      <trkpt lat="42.97171" lon="1.25152">
        <ele>687.79998779297</ele>
        <time>2021-07-03T10:33:49.000Z</time>
      </trkpt>
      <trkpt lat="42.97168" lon="1.25154">
        <ele>689.20001220703</ele>
        <time>2021-07-03T10:33:52.000Z</time>
      </trkpt>
      <trkpt lat="42.97167" lon="1.25155">
        <ele>689.59997558594</ele>
        <time>2021-07-03T10:33:53.000Z</time>
      </trkpt>
      <trkpt lat="42.97165" lon="1.25158">
        <ele>690.20001220703</ele>
        <time>2021-07-03T10:33:56.000Z</time>
      </trkpt>
      <trkpt lat="42.97163" lon="1.25159">
        <ele>690.40002441406</ele>
        <time>2021-07-03T10:33:58.000Z</time>
      </trkpt>
      <trkpt lat="42.97161" lon="1.25161">
        <ele>690.79998779297</ele>
        <time>2021-07-03T10:34:00.000Z</time>
      </trkpt>
      <trkpt lat="42.97158" lon="1.25162">
        <ele>691.59997558594</ele>
        <time>2021-07-03T10:34:02.000Z</time>
      </trkpt>
      <trkpt lat="42.97155" lon="1.25163">
        <ele>692</ele>
        <time>2021-07-03T10:34:05.000Z</time>
      </trkpt>
      <trkpt lat="42.97154" lon="1.25164">
        <ele>692.59997558594</ele>
        <time>2021-07-03T10:34:07.000Z</time>
      </trkpt>
      <trkpt lat="42.97153" lon="1.25164">
        <ele>693</ele>
        <time>2021-07-03T10:34:08.000Z</time>
      </trkpt>
      <trkpt lat="42.97152" lon="1.25165">
        <ele>693.79998779297</ele>
        <time>2021-07-03T10:34:10.000Z</time>
      </trkpt>
      <trkpt lat="42.97152" lon="1.25166">
        <ele>694.20001220703</ele>
        <time>2021-07-03T10:34:11.000Z</time>
      </trkpt>
      <trkpt lat="42.97151" lon="1.25167">
        <ele>694.40002441406</ele>
        <time>2021-07-03T10:34:12.000Z</time>
      </trkpt>
      <trkpt lat="42.9715" lon="1.25168">
        <ele>694.40002441406</ele>
        <time>2021-07-03T10:34:13.000Z</time>
      </trkpt>
      <trkpt lat="42.97149" lon="1.2517">
        <ele>695</ele>
        <time>2021-07-03T10:34:15.000Z</time>
      </trkpt>
      <trkpt lat="42.97146" lon="1.2517">
        <ele>695.59997558594</ele>
        <time>2021-07-03T10:34:17.000Z</time>
      </trkpt>
      <trkpt lat="42.97145" lon="1.25171">
        <ele>696</ele>
        <time>2021-07-03T10:34:19.000Z</time>
      </trkpt>
      <trkpt lat="42.97142" lon="1.25173">
        <ele>697.20001220703</ele>
        <time>2021-07-03T10:34:22.000Z</time>
      </trkpt>
      <trkpt lat="42.97141" lon="1.25174">
        <ele>697.59997558594</ele>
        <time>2021-07-03T10:34:23.000Z</time>
      </trkpt>
      <trkpt lat="42.97137" lon="1.25177">
        <ele>698</ele>
        <time>2021-07-03T10:34:27.000Z</time>
      </trkpt>
      <trkpt lat="42.97136" lon="1.25178">
        <ele>698.79998779297</ele>
        <time>2021-07-03T10:34:28.000Z</time>
      </trkpt>
      <trkpt lat="42.97134" lon="1.25181">
        <ele>700</ele>
        <time>2021-07-03T10:34:30.000Z</time>
      </trkpt>
      <trkpt lat="42.97134" lon="1.25182">
        <ele>700.40002441406</ele>
        <time>2021-07-03T10:34:31.000Z</time>
      </trkpt>
      <trkpt lat="42.97132" lon="1.25183">
        <ele>701.20001220703</ele>
        <time>2021-07-03T10:34:33.000Z</time>
      </trkpt>
      <trkpt lat="42.97131" lon="1.25185">
        <ele>701.40002441406</ele>
        <time>2021-07-03T10:34:35.000Z</time>
      </trkpt>
      <trkpt lat="42.9713" lon="1.25186">
        <ele>701.20001220703</ele>
        <time>2021-07-03T10:34:37.000Z</time>
      </trkpt>
      <trkpt lat="42.97128" lon="1.25187">
        <ele>700.20001220703</ele>
        <time>2021-07-03T10:34:39.000Z</time>
      </trkpt>
      <trkpt lat="42.97126" lon="1.25189">
        <ele>703</ele>
        <time>2021-07-03T10:34:42.000Z</time>
      </trkpt>
      <trkpt lat="42.97124" lon="1.2519">
        <ele>704.20001220703</ele>
        <time>2021-07-03T10:34:44.000Z</time>
      </trkpt>
      <trkpt lat="42.97123" lon="1.25191">
        <ele>704.79998779297</ele>
        <time>2021-07-03T10:34:46.000Z</time>
      </trkpt>
      <trkpt lat="42.97122" lon="1.25192">
        <ele>705.40002441406</ele>
        <time>2021-07-03T10:34:48.000Z</time>
      </trkpt>
      <trkpt lat="42.9712" lon="1.25195">
        <ele>706.40002441406</ele>
        <time>2021-07-03T10:34:52.000Z</time>
      </trkpt>
      <trkpt lat="42.97118" lon="1.25197">
        <ele>707.40002441406</ele>
        <time>2021-07-03T10:34:55.000Z</time>
      </trkpt>
      <trkpt lat="42.97117" lon="1.25198">
        <ele>707.79998779297</ele>
        <time>2021-07-03T10:34:56.000Z</time>
      </trkpt>
      <trkpt lat="42.97115" lon="1.25199">
        <ele>708.79998779297</ele>
        <time>2021-07-03T10:34:59.000Z</time>
      </trkpt>
      <trkpt lat="42.97114" lon="1.25199">
        <ele>709</ele>
        <time>2021-07-03T10:35:00.000Z</time>
      </trkpt>
      <trkpt lat="42.97113" lon="1.25202">
        <ele>710.20001220703</ele>
        <time>2021-07-03T10:35:03.000Z</time>
      </trkpt>
      <trkpt lat="42.97112" lon="1.25204">
        <ele>711</ele>
        <time>2021-07-03T10:35:05.000Z</time>
      </trkpt>
      <trkpt lat="42.97112" lon="1.25205">
        <ele>711.20001220703</ele>
        <time>2021-07-03T10:35:06.000Z</time>
      </trkpt>
      <trkpt lat="42.97111" lon="1.25205">
        <ele>711.79998779297</ele>
        <time>2021-07-03T10:35:07.000Z</time>
      </trkpt>
      <trkpt lat="42.9711" lon="1.25206">
        <ele>712.59997558594</ele>
        <time>2021-07-03T10:35:09.000Z</time>
      </trkpt>
      <trkpt lat="42.97108" lon="1.25207">
        <ele>713</ele>
        <time>2021-07-03T10:35:11.000Z</time>
      </trkpt>
      <trkpt lat="42.97106" lon="1.25208">
        <ele>713.59997558594</ele>
        <time>2021-07-03T10:35:13.000Z</time>
      </trkpt>
      <trkpt lat="42.97105" lon="1.25208">
        <ele>713.40002441406</ele>
        <time>2021-07-03T10:35:14.000Z</time>
      </trkpt>
      <trkpt lat="42.97105" lon="1.25209">
        <ele>713.59997558594</ele>
        <time>2021-07-03T10:35:15.000Z</time>
      </trkpt>
      <trkpt lat="42.97103" lon="1.25213">
        <ele>714.79998779297</ele>
        <time>2021-07-03T10:35:19.000Z</time>
      </trkpt>
      <trkpt lat="42.971" lon="1.25216">
        <ele>715.79998779297</ele>
        <time>2021-07-03T10:35:22.000Z</time>
      </trkpt>
      <trkpt lat="42.97099" lon="1.25216">
        <ele>716</ele>
        <time>2021-07-03T10:35:23.000Z</time>
      </trkpt>
      <trkpt lat="42.97094" lon="1.25221">
        <ele>717</ele>
        <time>2021-07-03T10:35:30.000Z</time>
      </trkpt>
      <trkpt lat="42.97093" lon="1.25224">
        <ele>718.59997558594</ele>
        <time>2021-07-03T10:35:33.000Z</time>
      </trkpt>
      <trkpt lat="42.97092" lon="1.25227">
        <ele>719.40002441406</ele>
        <time>2021-07-03T10:35:36.000Z</time>
      </trkpt>
      <trkpt lat="42.97091" lon="1.25228">
        <ele>719.59997558594</ele>
        <time>2021-07-03T10:35:37.000Z</time>
      </trkpt>
      <trkpt lat="42.97091" lon="1.25229">
        <ele>719.59997558594</ele>
        <time>2021-07-03T10:35:38.000Z</time>
      </trkpt>
      <trkpt lat="42.97089" lon="1.25231">
        <ele>719.79998779297</ele>
        <time>2021-07-03T10:35:40.000Z</time>
      </trkpt>
      <trkpt lat="42.97088" lon="1.25231">
        <ele>720</ele>
        <time>2021-07-03T10:35:41.000Z</time>
      </trkpt>
      <trkpt lat="42.97086" lon="1.25232">
        <ele>720.79998779297</ele>
        <time>2021-07-03T10:35:43.000Z</time>
      </trkpt>
      <trkpt lat="42.97084" lon="1.25233">
        <ele>721</ele>
        <time>2021-07-03T10:35:46.000Z</time>
      </trkpt>
      <trkpt lat="42.97082" lon="1.25234">
        <ele>722</ele>
        <time>2021-07-03T10:35:49.000Z</time>
      </trkpt>
      <trkpt lat="42.97081" lon="1.25234">
        <ele>722.79998779297</ele>
        <time>2021-07-03T10:35:51.000Z</time>
      </trkpt>
      <trkpt lat="42.9708" lon="1.25235">
        <ele>723.20001220703</ele>
        <time>2021-07-03T10:35:52.000Z</time>
      </trkpt>
      <trkpt lat="42.97078" lon="1.25236">
        <ele>723.59997558594</ele>
        <time>2021-07-03T10:35:55.000Z</time>
      </trkpt>
      <trkpt lat="42.97076" lon="1.25238">
        <ele>724.59997558594</ele>
        <time>2021-07-03T10:35:58.000Z</time>
      </trkpt>
      <trkpt lat="42.97074" lon="1.25239">
        <ele>725.40002441406</ele>
        <time>2021-07-03T10:36:00.000Z</time>
      </trkpt>
      <trkpt lat="42.97073" lon="1.25239">
        <ele>725.79998779297</ele>
        <time>2021-07-03T10:36:01.000Z</time>
      </trkpt>
      <trkpt lat="42.97072" lon="1.2524">
        <ele>726.20001220703</ele>
        <time>2021-07-03T10:36:03.000Z</time>
      </trkpt>
      <trkpt lat="42.97072" lon="1.25241">
        <ele>726.20001220703</ele>
        <time>2021-07-03T10:36:04.000Z</time>
      </trkpt>
      <trkpt lat="42.97071" lon="1.25241">
        <ele>726.40002441406</ele>
        <time>2021-07-03T10:36:05.000Z</time>
      </trkpt>
      <trkpt lat="42.9707" lon="1.25244">
        <ele>726.79998779297</ele>
        <time>2021-07-03T10:36:07.000Z</time>
      </trkpt>
      <trkpt lat="42.9707" lon="1.25245">
        <ele>727.40002441406</ele>
        <time>2021-07-03T10:36:08.000Z</time>
      </trkpt>
      <trkpt lat="42.9707" lon="1.25247">
        <ele>728</ele>
        <time>2021-07-03T10:36:09.000Z</time>
      </trkpt>
      <trkpt lat="42.97069" lon="1.25248">
        <ele>728.20001220703</ele>
        <time>2021-07-03T10:36:10.000Z</time>
      </trkpt>
      <trkpt lat="42.97068" lon="1.2525">
        <ele>728.59997558594</ele>
        <time>2021-07-03T10:36:11.000Z</time>
      </trkpt>
      <trkpt lat="42.97066" lon="1.25253">
        <ele>729</ele>
        <time>2021-07-03T10:36:14.000Z</time>
      </trkpt>
      <trkpt lat="42.97063" lon="1.25255">
        <ele>731</ele>
        <time>2021-07-03T10:36:17.000Z</time>
      </trkpt>
      <trkpt lat="42.97063" lon="1.25255">
        <ele>731.79998779297</ele>
        <time>2021-07-03T10:36:18.000Z</time>
      </trkpt>
      <trkpt lat="42.97062" lon="1.25256">
        <ele>732.79998779297</ele>
        <time>2021-07-03T10:36:19.000Z</time>
      </trkpt>
      <trkpt lat="42.97062" lon="1.25257">
        <ele>735.59997558594</ele>
        <time>2021-07-03T10:36:21.000Z</time>
      </trkpt>
      <trkpt lat="42.97061" lon="1.25259">
        <ele>734</ele>
        <time>2021-07-03T10:36:23.000Z</time>
      </trkpt>
      <trkpt lat="42.97061" lon="1.2526">
        <ele>733.20001220703</ele>
        <time>2021-07-03T10:36:24.000Z</time>
      </trkpt>
      <trkpt lat="42.97061" lon="1.25261">
        <ele>732.79998779297</ele>
        <time>2021-07-03T10:36:25.000Z</time>
      </trkpt>
      <trkpt lat="42.9706" lon="1.25261">
        <ele>732.79998779297</ele>
        <time>2021-07-03T10:36:26.000Z</time>
      </trkpt>
      <trkpt lat="42.9706" lon="1.25262">
        <ele>733</ele>
        <time>2021-07-03T10:36:27.000Z</time>
      </trkpt>
      <trkpt lat="42.97059" lon="1.25263">
        <ele>733.20001220703</ele>
        <time>2021-07-03T10:36:28.000Z</time>
      </trkpt>
      <trkpt lat="42.97057" lon="1.25265">
        <ele>734</ele>
        <time>2021-07-03T10:36:31.000Z</time>
      </trkpt>
      <trkpt lat="42.97056" lon="1.25266">
        <ele>734.40002441406</ele>
        <time>2021-07-03T10:36:32.000Z</time>
      </trkpt>
      <trkpt lat="42.97055" lon="1.2527">
        <ele>735.40002441406</ele>
        <time>2021-07-03T10:36:35.000Z</time>
      </trkpt>
      <trkpt lat="42.97054" lon="1.2527">
        <ele>736</ele>
        <time>2021-07-03T10:36:36.000Z</time>
      </trkpt>
      <trkpt lat="42.97053" lon="1.25273">
        <ele>736.40002441406</ele>
        <time>2021-07-03T10:36:38.000Z</time>
      </trkpt>
      <trkpt lat="42.9705" lon="1.25274">
        <ele>737</ele>
        <time>2021-07-03T10:36:42.000Z</time>
      </trkpt>
      <trkpt lat="42.9705" lon="1.25275">
        <ele>737.20001220703</ele>
        <time>2021-07-03T10:36:43.000Z</time>
      </trkpt>
      <trkpt lat="42.97048" lon="1.25277">
        <ele>737.59997558594</ele>
        <time>2021-07-03T10:36:45.000Z</time>
      </trkpt>
      <trkpt lat="42.97047" lon="1.25277">
        <ele>738</ele>
        <time>2021-07-03T10:36:46.000Z</time>
      </trkpt>
      <trkpt lat="42.97047" lon="1.2528">
        <ele>738.79998779297</ele>
        <time>2021-07-03T10:36:49.000Z</time>
      </trkpt>
      <trkpt lat="42.97045" lon="1.25281">
        <ele>739.20001220703</ele>
        <time>2021-07-03T10:36:51.000Z</time>
      </trkpt>
      <trkpt lat="42.97044" lon="1.25282">
        <ele>740</ele>
        <time>2021-07-03T10:36:52.000Z</time>
      </trkpt>
      <trkpt lat="42.97043" lon="1.25283">
        <ele>742</ele>
        <time>2021-07-03T10:36:53.000Z</time>
      </trkpt>
      <trkpt lat="42.97042" lon="1.25284">
        <ele>744.59997558594</ele>
        <time>2021-07-03T10:36:55.000Z</time>
      </trkpt>
      <trkpt lat="42.97038" lon="1.25286">
        <ele>744.20001220703</ele>
        <time>2021-07-03T10:36:59.000Z</time>
      </trkpt>
      <trkpt lat="42.97037" lon="1.25288">
        <ele>743.20001220703</ele>
        <time>2021-07-03T10:37:00.000Z</time>
      </trkpt>
      <trkpt lat="42.97036" lon="1.25289">
        <ele>743.20001220703</ele>
        <time>2021-07-03T10:37:02.000Z</time>
      </trkpt>
      <trkpt lat="42.97033" lon="1.25294">
        <ele>743.79998779297</ele>
        <time>2021-07-03T10:37:06.000Z</time>
      </trkpt>
      <trkpt lat="42.97032" lon="1.25295">
        <ele>743.79998779297</ele>
        <time>2021-07-03T10:37:08.000Z</time>
      </trkpt>
      <trkpt lat="42.9703" lon="1.25298">
        <ele>744.40002441406</ele>
        <time>2021-07-03T10:37:11.000Z</time>
      </trkpt>
      <trkpt lat="42.97029" lon="1.253">
        <ele>745</ele>
        <time>2021-07-03T10:37:13.000Z</time>
      </trkpt>
      <trkpt lat="42.97029" lon="1.25301">
        <ele>745.20001220703</ele>
        <time>2021-07-03T10:37:14.000Z</time>
      </trkpt>
      <trkpt lat="42.97029" lon="1.25302">
        <ele>746</ele>
        <time>2021-07-03T10:37:15.000Z</time>
      </trkpt>
      <trkpt lat="42.97027" lon="1.25304">
        <ele>746.79998779297</ele>
        <time>2021-07-03T10:37:18.000Z</time>
      </trkpt>
      <trkpt lat="42.97027" lon="1.25305">
        <ele>747.20001220703</ele>
        <time>2021-07-03T10:37:19.000Z</time>
      </trkpt>
      <trkpt lat="42.97027" lon="1.25306">
        <ele>747.40002441406</ele>
        <time>2021-07-03T10:37:20.000Z</time>
      </trkpt>
      <trkpt lat="42.97027" lon="1.25309">
        <ele>749</ele>
        <time>2021-07-03T10:37:23.000Z</time>
      </trkpt>
      <trkpt lat="42.97028" lon="1.2531">
        <ele>749</ele>
        <time>2021-07-03T10:37:25.000Z</time>
      </trkpt>
      <trkpt lat="42.97029" lon="1.25311">
        <ele>745.79998779297</ele>
        <time>2021-07-03T10:37:26.000Z</time>
      </trkpt>
      <trkpt lat="42.9703" lon="1.25311">
        <ele>743.20001220703</ele>
        <time>2021-07-03T10:37:27.000Z</time>
      </trkpt>
      <trkpt lat="42.9703" lon="1.25312">
        <ele>742</ele>
        <time>2021-07-03T10:37:28.000Z</time>
      </trkpt>
      <trkpt lat="42.9703" lon="1.25314">
        <ele>744.20001220703</ele>
        <time>2021-07-03T10:37:29.000Z</time>
      </trkpt>
      <trkpt lat="42.97031" lon="1.25315">
        <ele>745.40002441406</ele>
        <time>2021-07-03T10:37:30.000Z</time>
      </trkpt>
      <trkpt lat="42.97031" lon="1.25315">
        <ele>748</ele>
        <time>2021-07-03T10:37:31.000Z</time>
      </trkpt>
      <trkpt lat="42.97031" lon="1.25316">
        <ele>749.40002441406</ele>
        <time>2021-07-03T10:37:32.000Z</time>
      </trkpt>
      <trkpt lat="42.97032" lon="1.25317">
        <ele>750.59997558594</ele>
        <time>2021-07-03T10:37:34.000Z</time>
      </trkpt>
      <trkpt lat="42.97032" lon="1.25318">
        <ele>750.79998779297</ele>
        <time>2021-07-03T10:37:35.000Z</time>
      </trkpt>
      <trkpt lat="42.97033" lon="1.25319">
        <ele>751</ele>
        <time>2021-07-03T10:37:36.000Z</time>
      </trkpt>
      <trkpt lat="42.97038" lon="1.25321">
        <ele>751.59997558594</ele>
        <time>2021-07-03T10:37:39.000Z</time>
      </trkpt>
      <trkpt lat="42.97042" lon="1.25322">
        <ele>752</ele>
        <time>2021-07-03T10:37:41.000Z</time>
      </trkpt>
      <trkpt lat="42.97052" lon="1.25323">
        <ele>752.40002441406</ele>
        <time>2021-07-03T10:37:48.000Z</time>
      </trkpt>
      <trkpt lat="42.97057" lon="1.25325">
        <ele>752.40002441406</ele>
        <time>2021-07-03T10:37:51.000Z</time>
      </trkpt>
      <trkpt lat="42.97063" lon="1.25329">
        <ele>752.79998779297</ele>
        <time>2021-07-03T10:37:55.000Z</time>
      </trkpt>
      <trkpt lat="42.97077" lon="1.25335">
        <ele>753.59997558594</ele>
        <time>2021-07-03T10:38:03.000Z</time>
      </trkpt>
      <trkpt lat="42.97091" lon="1.25344">
        <ele>754</ele>
        <time>2021-07-03T10:38:11.000Z</time>
      </trkpt>
      <trkpt lat="42.97101" lon="1.25352">
        <ele>754.40002441406</ele>
        <time>2021-07-03T10:38:18.000Z</time>
      </trkpt>
      <trkpt lat="42.97106" lon="1.25359">
        <ele>754.79998779297</ele>
        <time>2021-07-03T10:38:22.000Z</time>
      </trkpt>
      <trkpt lat="42.97117" lon="1.25368">
        <ele>755.20001220703</ele>
        <time>2021-07-03T10:38:27.000Z</time>
      </trkpt>
      <trkpt lat="42.97133" lon="1.25385">
        <ele>755.59997558594</ele>
        <time>2021-07-03T10:38:34.000Z</time>
      </trkpt>
      <trkpt lat="42.97135" lon="1.25388">
        <ele>755.59997558594</ele>
        <time>2021-07-03T10:38:35.000Z</time>
      </trkpt>
      <trkpt lat="42.9714" lon="1.25394">
        <ele>755.79998779297</ele>
        <time>2021-07-03T10:38:38.000Z</time>
      </trkpt>
      <trkpt lat="42.9715" lon="1.25402">
        <ele>755.40002441406</ele>
        <time>2021-07-03T10:38:43.000Z</time>
      </trkpt>
      <trkpt lat="42.97166" lon="1.25413">
        <ele>755.40002441406</ele>
        <time>2021-07-03T10:38:52.000Z</time>
      </trkpt>
      <trkpt lat="42.97168" lon="1.25414">
        <ele>755.40002441406</ele>
        <time>2021-07-03T10:38:53.000Z</time>
      </trkpt>
      <trkpt lat="42.97182" lon="1.2543">
        <ele>755.20001220703</ele>
        <time>2021-07-03T10:39:01.000Z</time>
      </trkpt>
      <trkpt lat="42.97184" lon="1.25432">
        <ele>754.79998779297</ele>
        <time>2021-07-03T10:39:02.000Z</time>
      </trkpt>
      <trkpt lat="42.97193" lon="1.25447">
        <ele>755</ele>
        <time>2021-07-03T10:39:08.000Z</time>
      </trkpt>
      <trkpt lat="42.97194" lon="1.25449">
        <ele>755</ele>
        <time>2021-07-03T10:39:09.000Z</time>
      </trkpt>
      <trkpt lat="42.97208" lon="1.25462">
        <ele>755.59997558594</ele>
        <time>2021-07-03T10:39:15.000Z</time>
      </trkpt>
      <trkpt lat="42.97212" lon="1.25467">
        <ele>755.79998779297</ele>
        <time>2021-07-03T10:39:17.000Z</time>
      </trkpt>
      <trkpt lat="42.97223" lon="1.2548">
        <ele>756.79998779297</ele>
        <time>2021-07-03T10:39:23.000Z</time>
      </trkpt>
      <trkpt lat="42.97225" lon="1.25483">
        <ele>757</ele>
        <time>2021-07-03T10:39:24.000Z</time>
      </trkpt>
      <trkpt lat="42.97235" lon="1.25493">
        <ele>757.40002441406</ele>
        <time>2021-07-03T10:39:30.000Z</time>
      </trkpt>
      <trkpt lat="42.97239" lon="1.25498">
        <ele>758</ele>
        <time>2021-07-03T10:39:32.000Z</time>
      </trkpt>
      <trkpt lat="42.97252" lon="1.25513">
        <ele>758.20001220703</ele>
        <time>2021-07-03T10:39:39.000Z</time>
      </trkpt>
      <trkpt lat="42.97255" lon="1.25522">
        <ele>758.79998779297</ele>
        <time>2021-07-03T10:39:44.000Z</time>
      </trkpt>
      <trkpt lat="42.97255" lon="1.25522">
        <ele>759</ele>
        <time>2021-07-03T10:39:45.000Z</time>
      </trkpt>
      <trkpt lat="42.97253" lon="1.25522">
        <ele>759.20001220703</ele>
        <time>2021-07-03T10:39:46.000Z</time>
      </trkpt>
      <trkpt lat="42.97248" lon="1.25518">
        <ele>760.20001220703</ele>
        <time>2021-07-03T10:39:51.000Z</time>
      </trkpt>
      <trkpt lat="42.97243" lon="1.25516">
        <ele>761.40002441406</ele>
        <time>2021-07-03T10:39:55.000Z</time>
      </trkpt>
      <trkpt lat="42.9724" lon="1.25516">
        <ele>762.40002441406</ele>
        <time>2021-07-03T10:39:58.000Z</time>
      </trkpt>
      <trkpt lat="42.97239" lon="1.25516">
        <ele>762.79998779297</ele>
        <time>2021-07-03T10:39:59.000Z</time>
      </trkpt>
      <trkpt lat="42.97235" lon="1.25515">
        <ele>763.79998779297</ele>
        <time>2021-07-03T10:40:02.000Z</time>
      </trkpt>
      <trkpt lat="42.97228" lon="1.25513">
        <ele>765</ele>
        <time>2021-07-03T10:40:07.000Z</time>
      </trkpt>
      <trkpt lat="42.97225" lon="1.25512">
        <ele>765.59997558594</ele>
        <time>2021-07-03T10:40:09.000Z</time>
      </trkpt>
      <trkpt lat="42.97222" lon="1.2551">
        <ele>766</ele>
        <time>2021-07-03T10:40:11.000Z</time>
      </trkpt>
      <trkpt lat="42.97214" lon="1.25508">
        <ele>767.20001220703</ele>
        <time>2021-07-03T10:40:16.000Z</time>
      </trkpt>
      <trkpt lat="42.97211" lon="1.25506">
        <ele>767.40002441406</ele>
        <time>2021-07-03T10:40:18.000Z</time>
      </trkpt>
      <trkpt lat="42.97203" lon="1.25502">
        <ele>768.20001220703</ele>
        <time>2021-07-03T10:40:23.000Z</time>
      </trkpt>
      <trkpt lat="42.97199" lon="1.25501">
        <ele>769</ele>
        <time>2021-07-03T10:40:26.000Z</time>
      </trkpt>
      <trkpt lat="42.97197" lon="1.25501">
        <ele>769.40002441406</ele>
        <time>2021-07-03T10:40:28.000Z</time>
      </trkpt>
      <trkpt lat="42.97191" lon="1.25498">
        <ele>770.40002441406</ele>
        <time>2021-07-03T10:40:32.000Z</time>
      </trkpt>
      <trkpt lat="42.97186" lon="1.25495">
        <ele>770.79998779297</ele>
        <time>2021-07-03T10:40:35.000Z</time>
      </trkpt>
      <trkpt lat="42.9718" lon="1.25493">
        <ele>771.59997558594</ele>
        <time>2021-07-03T10:40:39.000Z</time>
      </trkpt>
      <trkpt lat="42.97171" lon="1.25492">
        <ele>772.59997558594</ele>
        <time>2021-07-03T10:40:43.000Z</time>
      </trkpt>
      <trkpt lat="42.97167" lon="1.2549">
        <ele>773</ele>
        <time>2021-07-03T10:40:45.000Z</time>
      </trkpt>
      <trkpt lat="42.97163" lon="1.2549">
        <ele>773.79998779297</ele>
        <time>2021-07-03T10:40:48.000Z</time>
      </trkpt>
      <trkpt lat="42.97158" lon="1.25489">
        <ele>774.79998779297</ele>
        <time>2021-07-03T10:40:51.000Z</time>
      </trkpt>
      <trkpt lat="42.97153" lon="1.25486">
        <ele>775.79998779297</ele>
        <time>2021-07-03T10:40:54.000Z</time>
      </trkpt>
      <trkpt lat="42.97152" lon="1.25486">
        <ele>776</ele>
        <time>2021-07-03T10:40:55.000Z</time>
      </trkpt>
      <trkpt lat="42.97145" lon="1.25484">
        <ele>777</ele>
        <time>2021-07-03T10:41:00.000Z</time>
      </trkpt>
      <trkpt lat="42.9714" lon="1.25482">
        <ele>777.40002441406</ele>
        <time>2021-07-03T10:41:03.000Z</time>
      </trkpt>
      <trkpt lat="42.97134" lon="1.25479">
        <ele>778.40002441406</ele>
        <time>2021-07-03T10:41:07.000Z</time>
      </trkpt>
      <trkpt lat="42.97127" lon="1.25477">
        <ele>779.40002441406</ele>
        <time>2021-07-03T10:41:12.000Z</time>
      </trkpt>
      <trkpt lat="42.97126" lon="1.25477">
        <ele>779.59997558594</ele>
        <time>2021-07-03T10:41:13.000Z</time>
      </trkpt>
      <trkpt lat="42.9712" lon="1.25478">
        <ele>780.59997558594</ele>
        <time>2021-07-03T10:41:17.000Z</time>
      </trkpt>
      <trkpt lat="42.97114" lon="1.25477">
        <ele>781.59997558594</ele>
        <time>2021-07-03T10:41:21.000Z</time>
      </trkpt>
      <trkpt lat="42.97111" lon="1.25475">
        <ele>782.20001220703</ele>
        <time>2021-07-03T10:41:23.000Z</time>
      </trkpt>
      <trkpt lat="42.97108" lon="1.25474">
        <ele>782.79998779297</ele>
        <time>2021-07-03T10:41:25.000Z</time>
      </trkpt>
      <trkpt lat="42.97098" lon="1.25471">
        <ele>783.79998779297</ele>
        <time>2021-07-03T10:41:30.000Z</time>
      </trkpt>
      <trkpt lat="42.97093" lon="1.25469">
        <ele>784.40002441406</ele>
        <time>2021-07-03T10:41:33.000Z</time>
      </trkpt>
      <trkpt lat="42.97091" lon="1.25467">
        <ele>785</ele>
        <time>2021-07-03T10:41:35.000Z</time>
      </trkpt>
      <trkpt lat="42.97086" lon="1.25468">
        <ele>786</ele>
        <time>2021-07-03T10:41:40.000Z</time>
      </trkpt>
      <trkpt lat="42.97083" lon="1.25468">
        <ele>786.20001220703</ele>
        <time>2021-07-03T10:41:42.000Z</time>
      </trkpt>
      <trkpt lat="42.97077" lon="1.25467">
        <ele>787</ele>
        <time>2021-07-03T10:41:46.000Z</time>
      </trkpt>
      <trkpt lat="42.97062" lon="1.25463">
        <ele>788</ele>
        <time>2021-07-03T10:41:53.000Z</time>
      </trkpt>
      <trkpt lat="42.9706" lon="1.25463">
        <ele>788.20001220703</ele>
        <time>2021-07-03T10:41:54.000Z</time>
      </trkpt>
      <trkpt lat="42.97052" lon="1.25461">
        <ele>789.40002441406</ele>
        <time>2021-07-03T10:41:59.000Z</time>
      </trkpt>
      <trkpt lat="42.97045" lon="1.25457">
        <ele>790.40002441406</ele>
        <time>2021-07-03T10:42:03.000Z</time>
      </trkpt>
      <trkpt lat="42.97043" lon="1.25456">
        <ele>790.79998779297</ele>
        <time>2021-07-03T10:42:04.000Z</time>
      </trkpt>
      <trkpt lat="42.97038" lon="1.25457">
        <ele>791.79998779297</ele>
        <time>2021-07-03T10:42:08.000Z</time>
      </trkpt>
      <trkpt lat="42.9703" lon="1.25459">
        <ele>792.79998779297</ele>
        <time>2021-07-03T10:42:13.000Z</time>
      </trkpt>
      <trkpt lat="42.9702" lon="1.25458">
        <ele>794</ele>
        <time>2021-07-03T10:42:19.000Z</time>
      </trkpt>
      <trkpt lat="42.97015" lon="1.25459">
        <ele>794.79998779297</ele>
        <time>2021-07-03T10:42:22.000Z</time>
      </trkpt>
      <trkpt lat="42.97014" lon="1.25459">
        <ele>795.20001220703</ele>
        <time>2021-07-03T10:42:23.000Z</time>
      </trkpt>
      <trkpt lat="42.97009" lon="1.25459">
        <ele>796.40002441406</ele>
        <time>2021-07-03T10:42:26.000Z</time>
      </trkpt>
      <trkpt lat="42.97007" lon="1.25461">
        <ele>796.79998779297</ele>
        <time>2021-07-03T10:42:28.000Z</time>
      </trkpt>
      <trkpt lat="42.97004" lon="1.25462">
        <ele>797</ele>
        <time>2021-07-03T10:42:30.000Z</time>
      </trkpt>
      <trkpt lat="42.97001" lon="1.25465">
        <ele>797.40002441406</ele>
        <time>2021-07-03T10:42:32.000Z</time>
      </trkpt>
      <trkpt lat="42.97" lon="1.25465">
        <ele>797.79998779297</ele>
        <time>2021-07-03T10:42:33.000Z</time>
      </trkpt>
      <trkpt lat="42.96996" lon="1.25467">
        <ele>798.59997558594</ele>
        <time>2021-07-03T10:42:36.000Z</time>
      </trkpt>
      <trkpt lat="42.96988" lon="1.2547">
        <ele>799.59997558594</ele>
        <time>2021-07-03T10:42:40.000Z</time>
      </trkpt>
      <trkpt lat="42.96982" lon="1.25473">
        <ele>800.40002441406</ele>
        <time>2021-07-03T10:42:43.000Z</time>
      </trkpt>
      <trkpt lat="42.9698" lon="1.25475">
        <ele>800.59997558594</ele>
        <time>2021-07-03T10:42:45.000Z</time>
      </trkpt>
      <trkpt lat="42.96975" lon="1.25476">
        <ele>802.20001220703</ele>
        <time>2021-07-03T10:42:48.000Z</time>
      </trkpt>
      <trkpt lat="42.96972" lon="1.25476">
        <ele>803.20001220703</ele>
        <time>2021-07-03T10:42:51.000Z</time>
      </trkpt>
      <trkpt lat="42.9697" lon="1.25476">
        <ele>803.40002441406</ele>
        <time>2021-07-03T10:42:52.000Z</time>
      </trkpt>
      <trkpt lat="42.96966" lon="1.25477">
        <ele>804.79998779297</ele>
        <time>2021-07-03T10:42:56.000Z</time>
      </trkpt>
      <trkpt lat="42.96962" lon="1.2548">
        <ele>806</ele>
        <time>2021-07-03T10:42:59.000Z</time>
      </trkpt>
      <trkpt lat="42.96957" lon="1.25485">
        <ele>807</ele>
        <time>2021-07-03T10:43:03.000Z</time>
      </trkpt>
      <trkpt lat="42.96954" lon="1.25487">
        <ele>808</ele>
        <time>2021-07-03T10:43:06.000Z</time>
      </trkpt>
      <trkpt lat="42.96952" lon="1.25488">
        <ele>808.40002441406</ele>
        <time>2021-07-03T10:43:07.000Z</time>
      </trkpt>
      <trkpt lat="42.96947" lon="1.25494">
        <ele>809.59997558594</ele>
        <time>2021-07-03T10:43:12.000Z</time>
      </trkpt>
      <trkpt lat="42.96946" lon="1.25494">
        <ele>809.79998779297</ele>
        <time>2021-07-03T10:43:13.000Z</time>
      </trkpt>
      <trkpt lat="42.96945" lon="1.25494">
        <ele>810</ele>
        <time>2021-07-03T10:43:14.000Z</time>
      </trkpt>
      <trkpt lat="42.96942" lon="1.25495">
        <ele>810.79998779297</ele>
        <time>2021-07-03T10:43:17.000Z</time>
      </trkpt>
      <trkpt lat="42.96938" lon="1.25498">
        <ele>811.79998779297</ele>
        <time>2021-07-03T10:43:20.000Z</time>
      </trkpt>
      <trkpt lat="42.96931" lon="1.25497">
        <ele>812.79998779297</ele>
        <time>2021-07-03T10:43:23.000Z</time>
      </trkpt>
      <trkpt lat="42.96924" lon="1.25499">
        <ele>814.20001220703</ele>
        <time>2021-07-03T10:43:28.000Z</time>
      </trkpt>
      <trkpt lat="42.96916" lon="1.25499">
        <ele>815.40002441406</ele>
        <time>2021-07-03T10:43:32.000Z</time>
      </trkpt>
      <trkpt lat="42.96911" lon="1.25501">
        <ele>816.20001220703</ele>
        <time>2021-07-03T10:43:35.000Z</time>
      </trkpt>
      <trkpt lat="42.96909" lon="1.25502">
        <ele>816.40002441406</ele>
        <time>2021-07-03T10:43:36.000Z</time>
      </trkpt>
      <trkpt lat="42.96901" lon="1.25505">
        <ele>817.79998779297</ele>
        <time>2021-07-03T10:43:41.000Z</time>
      </trkpt>
      <trkpt lat="42.969" lon="1.25505">
        <ele>818</ele>
        <time>2021-07-03T10:43:42.000Z</time>
      </trkpt>
      <trkpt lat="42.96891" lon="1.25501">
        <ele>818</ele>
        <time>2021-07-03T10:43:48.000Z</time>
      </trkpt>
      <trkpt lat="42.96888" lon="1.25486">
        <ele>816.59997558594</ele>
        <time>2021-07-03T10:43:53.000Z</time>
      </trkpt>
      <trkpt lat="42.96888" lon="1.25482">
        <ele>816.20001220703</ele>
        <time>2021-07-03T10:43:54.000Z</time>
      </trkpt>
      <trkpt lat="42.96887" lon="1.25473">
        <ele>815.20001220703</ele>
        <time>2021-07-03T10:43:57.000Z</time>
      </trkpt>
      <trkpt lat="42.96888" lon="1.2546">
        <ele>813.79998779297</ele>
        <time>2021-07-03T10:44:01.000Z</time>
      </trkpt>
      <trkpt lat="42.96888" lon="1.25457">
        <ele>813.40002441406</ele>
        <time>2021-07-03T10:44:02.000Z</time>
      </trkpt>
      <trkpt lat="42.96887" lon="1.25447">
        <ele>812.59997558594</ele>
        <time>2021-07-03T10:44:05.000Z</time>
      </trkpt>
      <trkpt lat="42.96886" lon="1.25438">
        <ele>811.40002441406</ele>
        <time>2021-07-03T10:44:08.000Z</time>
      </trkpt>
      <trkpt lat="42.96886" lon="1.25435">
        <ele>810.79998779297</ele>
        <time>2021-07-03T10:44:09.000Z</time>
      </trkpt>
      <trkpt lat="42.96885" lon="1.25429">
        <ele>810.40002441406</ele>
        <time>2021-07-03T10:44:11.000Z</time>
      </trkpt>
      <trkpt lat="42.96881" lon="1.25412">
        <ele>809.20001220703</ele>
        <time>2021-07-03T10:44:17.000Z</time>
      </trkpt>
      <trkpt lat="42.96883" lon="1.25402">
        <ele>808.20001220703</ele>
        <time>2021-07-03T10:44:21.000Z</time>
      </trkpt>
      <trkpt lat="42.96883" lon="1.25394">
        <ele>807.40002441406</ele>
        <time>2021-07-03T10:44:24.000Z</time>
      </trkpt>
      <trkpt lat="42.96884" lon="1.25388">
        <ele>807.20001220703</ele>
        <time>2021-07-03T10:44:26.000Z</time>
      </trkpt>
      <trkpt lat="42.96888" lon="1.25372">
        <ele>806</ele>
        <time>2021-07-03T10:44:31.000Z</time>
      </trkpt>
      <trkpt lat="42.96889" lon="1.25365">
        <ele>805.59997558594</ele>
        <time>2021-07-03T10:44:33.000Z</time>
      </trkpt>
      <trkpt lat="42.9689" lon="1.25355">
        <ele>804.79998779297</ele>
        <time>2021-07-03T10:44:36.000Z</time>
      </trkpt>
      <trkpt lat="42.96892" lon="1.25341">
        <ele>803.59997558594</ele>
        <time>2021-07-03T10:44:40.000Z</time>
      </trkpt>
      <trkpt lat="42.96889" lon="1.25315">
        <ele>802.59997558594</ele>
        <time>2021-07-03T10:44:46.000Z</time>
      </trkpt>
      <trkpt lat="42.9689" lon="1.25288">
        <ele>801.79998779297</ele>
        <time>2021-07-03T10:44:53.000Z</time>
      </trkpt>
      <trkpt lat="42.96889" lon="1.25283">
        <ele>801.59997558594</ele>
        <time>2021-07-03T10:44:54.000Z</time>
      </trkpt>
      <trkpt lat="42.96888" lon="1.25264">
        <ele>801.20001220703</ele>
        <time>2021-07-03T10:44:59.000Z</time>
      </trkpt>
      <trkpt lat="42.96885" lon="1.25237">
        <ele>800.59997558594</ele>
        <time>2021-07-03T10:45:06.000Z</time>
      </trkpt>
      <trkpt lat="42.96884" lon="1.25233">
        <ele>800.40002441406</ele>
        <time>2021-07-03T10:45:07.000Z</time>
      </trkpt>
      <trkpt lat="42.96886" lon="1.25211">
        <ele>800.20001220703</ele>
        <time>2021-07-03T10:45:13.000Z</time>
      </trkpt>
      <trkpt lat="42.96888" lon="1.25193">
        <ele>799.20001220703</ele>
        <time>2021-07-03T10:45:18.000Z</time>
      </trkpt>
      <trkpt lat="42.96889" lon="1.25175">
        <ele>798</ele>
        <time>2021-07-03T10:45:22.000Z</time>
      </trkpt>
      <trkpt lat="42.96889" lon="1.25163">
        <ele>797</ele>
        <time>2021-07-03T10:45:25.000Z</time>
      </trkpt>
      <trkpt lat="42.96888" lon="1.25154">
        <ele>795.79998779297</ele>
        <time>2021-07-03T10:45:28.000Z</time>
      </trkpt>
      <trkpt lat="42.96885" lon="1.25144">
        <ele>794.59997558594</ele>
        <time>2021-07-03T10:45:31.000Z</time>
      </trkpt>
      <trkpt lat="42.96882" lon="1.25136">
        <ele>793.40002441406</ele>
        <time>2021-07-03T10:45:33.000Z</time>
      </trkpt>
      <trkpt lat="42.9688" lon="1.25133">
        <ele>793</ele>
        <time>2021-07-03T10:45:34.000Z</time>
      </trkpt>
      <trkpt lat="42.96879" lon="1.2513">
        <ele>792.40002441406</ele>
        <time>2021-07-03T10:45:35.000Z</time>
      </trkpt>
      <trkpt lat="42.96876" lon="1.25124">
        <ele>791.20001220703</ele>
        <time>2021-07-03T10:45:37.000Z</time>
      </trkpt>
      <trkpt lat="42.9687" lon="1.25107">
        <ele>790.20001220703</ele>
        <time>2021-07-03T10:45:41.000Z</time>
      </trkpt>
      <trkpt lat="42.96869" lon="1.25103">
        <ele>790.20001220703</ele>
        <time>2021-07-03T10:45:42.000Z</time>
      </trkpt>
      <trkpt lat="42.96861" lon="1.2508">
        <ele>789.79998779297</ele>
        <time>2021-07-03T10:45:48.000Z</time>
      </trkpt>
      <trkpt lat="42.96859" lon="1.25076">
        <ele>789.59997558594</ele>
        <time>2021-07-03T10:45:49.000Z</time>
      </trkpt>
      <trkpt lat="42.96848" lon="1.25055">
        <ele>789.79998779297</ele>
        <time>2021-07-03T10:45:56.000Z</time>
      </trkpt>
      <trkpt lat="42.96846" lon="1.25054">
        <ele>790</ele>
        <time>2021-07-03T10:45:57.000Z</time>
      </trkpt>
      <trkpt lat="42.96838" lon="1.25048">
        <ele>791.59997558594</ele>
        <time>2021-07-03T10:46:02.000Z</time>
      </trkpt>
      <trkpt lat="42.96835" lon="1.25046">
        <ele>792</ele>
        <time>2021-07-03T10:46:04.000Z</time>
      </trkpt>
      <trkpt lat="42.96832" lon="1.25045">
        <ele>792.79998779297</ele>
        <time>2021-07-03T10:46:06.000Z</time>
      </trkpt>
      <trkpt lat="42.96826" lon="1.25043">
        <ele>794</ele>
        <time>2021-07-03T10:46:10.000Z</time>
      </trkpt>
      <trkpt lat="42.96824" lon="1.25043">
        <ele>794.20001220703</ele>
        <time>2021-07-03T10:46:11.000Z</time>
      </trkpt>
      <trkpt lat="42.96819" lon="1.25041">
        <ele>795.20001220703</ele>
        <time>2021-07-03T10:46:14.000Z</time>
      </trkpt>
      <trkpt lat="42.96816" lon="1.25041">
        <ele>796.79998779297</ele>
        <time>2021-07-03T10:46:17.000Z</time>
      </trkpt>
      <trkpt lat="42.96814" lon="1.2504">
        <ele>797.20001220703</ele>
        <time>2021-07-03T10:46:19.000Z</time>
      </trkpt>
      <trkpt lat="42.9681" lon="1.25039">
        <ele>798</ele>
        <time>2021-07-03T10:46:21.000Z</time>
      </trkpt>
      <trkpt lat="42.96801" lon="1.25034">
        <ele>799</ele>
        <time>2021-07-03T10:46:26.000Z</time>
      </trkpt>
      <trkpt lat="42.96788" lon="1.25027">
        <ele>800.20001220703</ele>
        <time>2021-07-03T10:46:32.000Z</time>
      </trkpt>
      <trkpt lat="42.96781" lon="1.25022">
        <ele>801.20001220703</ele>
        <time>2021-07-03T10:46:36.000Z</time>
      </trkpt>
      <trkpt lat="42.96771" lon="1.25017">
        <ele>802.40002441406</ele>
        <time>2021-07-03T10:46:43.000Z</time>
      </trkpt>
      <trkpt lat="42.96769" lon="1.25015">
        <ele>802.40002441406</ele>
        <time>2021-07-03T10:46:44.000Z</time>
      </trkpt>
      <trkpt lat="42.96758" lon="1.25002">
        <ele>803.20001220703</ele>
        <time>2021-07-03T10:46:50.000Z</time>
      </trkpt>
      <trkpt lat="42.96752" lon="1.24996">
        <ele>803.40002441406</ele>
        <time>2021-07-03T10:46:53.000Z</time>
      </trkpt>
      <trkpt lat="42.96745" lon="1.2499">
        <ele>803.40002441406</ele>
        <time>2021-07-03T10:46:56.000Z</time>
      </trkpt>
      <trkpt lat="42.96732" lon="1.24974">
        <ele>804.20001220703</ele>
        <time>2021-07-03T10:47:03.000Z</time>
      </trkpt>
      <trkpt lat="42.96728" lon="1.24966">
        <ele>804.40002441406</ele>
        <time>2021-07-03T10:47:06.000Z</time>
      </trkpt>
      <trkpt lat="42.96722" lon="1.24952">
        <ele>805</ele>
        <time>2021-07-03T10:47:11.000Z</time>
      </trkpt>
      <trkpt lat="42.96718" lon="1.24943">
        <ele>805.59997558594</ele>
        <time>2021-07-03T10:47:15.000Z</time>
      </trkpt>
      <trkpt lat="42.96717" lon="1.24941">
        <ele>805.59997558594</ele>
        <time>2021-07-03T10:47:16.000Z</time>
      </trkpt>
      <trkpt lat="42.96712" lon="1.24919">
        <ele>806</ele>
        <time>2021-07-03T10:47:24.000Z</time>
      </trkpt>
      <trkpt lat="42.96703" lon="1.24897">
        <ele>806.59997558594</ele>
        <time>2021-07-03T10:47:31.000Z</time>
      </trkpt>
      <trkpt lat="42.96697" lon="1.24878">
        <ele>806.59997558594</ele>
        <time>2021-07-03T10:47:38.000Z</time>
      </trkpt>
      <trkpt lat="42.9669" lon="1.24852">
        <ele>806.59997558594</ele>
        <time>2021-07-03T10:47:46.000Z</time>
      </trkpt>
      <trkpt lat="42.96686" lon="1.24831">
        <ele>806.79998779297</ele>
        <time>2021-07-03T10:47:54.000Z</time>
      </trkpt>
      <trkpt lat="42.96682" lon="1.24807">
        <ele>807</ele>
        <time>2021-07-03T10:48:01.000Z</time>
      </trkpt>
      <trkpt lat="42.96678" lon="1.24787">
        <ele>806</ele>
        <time>2021-07-03T10:48:08.000Z</time>
      </trkpt>
      <trkpt lat="42.96673" lon="1.24774">
        <ele>805.59997558594</ele>
        <time>2021-07-03T10:48:11.000Z</time>
      </trkpt>
      <trkpt lat="42.9667" lon="1.24768">
        <ele>805</ele>
        <time>2021-07-03T10:48:13.000Z</time>
      </trkpt>
      <trkpt lat="42.96665" lon="1.24757">
        <ele>804.40002441406</ele>
        <time>2021-07-03T10:48:16.000Z</time>
      </trkpt>
      <trkpt lat="42.96662" lon="1.24747">
        <ele>804</ele>
        <time>2021-07-03T10:48:19.000Z</time>
      </trkpt>
      <trkpt lat="42.9666" lon="1.24739">
        <ele>804</ele>
        <time>2021-07-03T10:48:21.000Z</time>
      </trkpt>
      <trkpt lat="42.96658" lon="1.24725">
        <ele>803.59997558594</ele>
        <time>2021-07-03T10:48:24.000Z</time>
      </trkpt>
      <trkpt lat="42.96658" lon="1.24716">
        <ele>803.40002441406</ele>
        <time>2021-07-03T10:48:26.000Z</time>
      </trkpt>
      <trkpt lat="42.96658" lon="1.24704">
        <ele>803.40002441406</ele>
        <time>2021-07-03T10:48:29.000Z</time>
      </trkpt>
      <trkpt lat="42.96658" lon="1.24689">
        <ele>802.79998779297</ele>
        <time>2021-07-03T10:48:33.000Z</time>
      </trkpt>
      <trkpt lat="42.96658" lon="1.24679">
        <ele>802.20001220703</ele>
        <time>2021-07-03T10:48:36.000Z</time>
      </trkpt>
      <trkpt lat="42.96659" lon="1.24662">
        <ele>801.59997558594</ele>
        <time>2021-07-03T10:48:41.000Z</time>
      </trkpt>
      <trkpt lat="42.96659" lon="1.24651">
        <ele>801.20001220703</ele>
        <time>2021-07-03T10:48:44.000Z</time>
      </trkpt>
      <trkpt lat="42.9666" lon="1.2464">
        <ele>800.40002441406</ele>
        <time>2021-07-03T10:48:48.000Z</time>
      </trkpt>
      <trkpt lat="42.96661" lon="1.24634">
        <ele>800</ele>
        <time>2021-07-03T10:48:50.000Z</time>
      </trkpt>
      <trkpt lat="42.96666" lon="1.24619">
        <ele>799.59997558594</ele>
        <time>2021-07-03T10:48:55.000Z</time>
      </trkpt>
      <trkpt lat="42.96678" lon="1.24599">
        <ele>799.40002441406</ele>
        <time>2021-07-03T10:49:02.000Z</time>
      </trkpt>
      <trkpt lat="42.96679" lon="1.24597">
        <ele>799.20001220703</ele>
        <time>2021-07-03T10:49:03.000Z</time>
      </trkpt>
      <trkpt lat="42.96681" lon="1.2459">
        <ele>799</ele>
        <time>2021-07-03T10:49:05.000Z</time>
      </trkpt>
      <trkpt lat="42.96684" lon="1.2458">
        <ele>798.59997558594</ele>
        <time>2021-07-03T10:49:09.000Z</time>
      </trkpt>
      <trkpt lat="42.96687" lon="1.24573">
        <ele>797.79998779297</ele>
        <time>2021-07-03T10:49:12.000Z</time>
      </trkpt>
      <trkpt lat="42.96692" lon="1.24561">
        <ele>796.79998779297</ele>
        <time>2021-07-03T10:49:17.000Z</time>
      </trkpt>
      <trkpt lat="42.96693" lon="1.24559">
        <ele>796.79998779297</ele>
        <time>2021-07-03T10:49:18.000Z</time>
      </trkpt>
      <trkpt lat="42.96697" lon="1.24536">
        <ele>796</ele>
        <time>2021-07-03T10:49:26.000Z</time>
      </trkpt>
      <trkpt lat="42.96699" lon="1.24526">
        <ele>795.79998779297</ele>
        <time>2021-07-03T10:49:29.000Z</time>
      </trkpt>
      <trkpt lat="42.967" lon="1.24514">
        <ele>795.59997558594</ele>
        <time>2021-07-03T10:49:32.000Z</time>
      </trkpt>
      <trkpt lat="42.96696" lon="1.24491">
        <ele>794.79998779297</ele>
        <time>2021-07-03T10:49:39.000Z</time>
      </trkpt>
      <trkpt lat="42.96695" lon="1.24488">
        <ele>794.59997558594</ele>
        <time>2021-07-03T10:49:40.000Z</time>
      </trkpt>
      <trkpt lat="42.9669" lon="1.24473">
        <ele>793.59997558594</ele>
        <time>2021-07-03T10:49:44.000Z</time>
      </trkpt>
      <trkpt lat="42.96688" lon="1.24462">
        <ele>792</ele>
        <time>2021-07-03T10:49:47.000Z</time>
      </trkpt>
      <trkpt lat="42.96683" lon="1.24448">
        <ele>791</ele>
        <time>2021-07-03T10:49:50.000Z</time>
      </trkpt>
      <trkpt lat="42.96679" lon="1.24441">
        <ele>790</ele>
        <time>2021-07-03T10:49:52.000Z</time>
      </trkpt>
      <trkpt lat="42.96676" lon="1.24435">
        <ele>788.79998779297</ele>
        <time>2021-07-03T10:49:54.000Z</time>
      </trkpt>
      <trkpt lat="42.96667" lon="1.24421">
        <ele>787.40002441406</ele>
        <time>2021-07-03T10:49:58.000Z</time>
      </trkpt>
      <trkpt lat="42.9666" lon="1.2441">
        <ele>786.20001220703</ele>
        <time>2021-07-03T10:50:01.000Z</time>
      </trkpt>
      <trkpt lat="42.96659" lon="1.24407">
        <ele>785.79998779297</ele>
        <time>2021-07-03T10:50:02.000Z</time>
      </trkpt>
      <trkpt lat="42.96653" lon="1.24399">
        <ele>785</ele>
        <time>2021-07-03T10:50:05.000Z</time>
      </trkpt>
      <trkpt lat="42.96646" lon="1.24392">
        <ele>783.59997558594</ele>
        <time>2021-07-03T10:50:08.000Z</time>
      </trkpt>
      <trkpt lat="42.96641" lon="1.24387">
        <ele>783</ele>
        <time>2021-07-03T10:50:10.000Z</time>
      </trkpt>
      <trkpt lat="42.96639" lon="1.24384">
        <ele>782.59997558594</ele>
        <time>2021-07-03T10:50:11.000Z</time>
      </trkpt>
      <trkpt lat="42.96635" lon="1.24373">
        <ele>781.40002441406</ele>
        <time>2021-07-03T10:50:14.000Z</time>
      </trkpt>
      <trkpt lat="42.96634" lon="1.24369">
        <ele>781</ele>
        <time>2021-07-03T10:50:15.000Z</time>
      </trkpt>
      <trkpt lat="42.96635" lon="1.24356">
        <ele>780.40002441406</ele>
        <time>2021-07-03T10:50:18.000Z</time>
      </trkpt>
      <trkpt lat="42.96635" lon="1.24347">
        <ele>779.79998779297</ele>
        <time>2021-07-03T10:50:20.000Z</time>
      </trkpt>
      <trkpt lat="42.96637" lon="1.24333">
        <ele>779.20001220703</ele>
        <time>2021-07-03T10:50:23.000Z</time>
      </trkpt>
      <trkpt lat="42.96639" lon="1.2432">
        <ele>778.59997558594</ele>
        <time>2021-07-03T10:50:26.000Z</time>
      </trkpt>
      <trkpt lat="42.96641" lon="1.24295">
        <ele>778.20001220703</ele>
        <time>2021-07-03T10:50:32.000Z</time>
      </trkpt>
      <trkpt lat="42.96641" lon="1.24291">
        <ele>778.20001220703</ele>
        <time>2021-07-03T10:50:33.000Z</time>
      </trkpt>
      <trkpt lat="42.96641" lon="1.24286">
        <ele>778.20001220703</ele>
        <time>2021-07-03T10:50:34.000Z</time>
      </trkpt>
      <trkpt lat="42.96641" lon="1.24264">
        <ele>777</ele>
        <time>2021-07-03T10:50:39.000Z</time>
      </trkpt>
      <trkpt lat="42.96643" lon="1.24255">
        <ele>776.20001220703</ele>
        <time>2021-07-03T10:50:41.000Z</time>
      </trkpt>
      <trkpt lat="42.96643" lon="1.24251">
        <ele>775.79998779297</ele>
        <time>2021-07-03T10:50:42.000Z</time>
      </trkpt>
      <trkpt lat="42.96646" lon="1.24231">
        <ele>774.59997558594</ele>
        <time>2021-07-03T10:50:47.000Z</time>
      </trkpt>
      <trkpt lat="42.96646" lon="1.24223">
        <ele>774.40002441406</ele>
        <time>2021-07-03T10:50:49.000Z</time>
      </trkpt>
      <trkpt lat="42.96646" lon="1.24219">
        <ele>774.20001220703</ele>
        <time>2021-07-03T10:50:50.000Z</time>
      </trkpt>
      <trkpt lat="42.96646" lon="1.24193">
        <ele>773.59997558594</ele>
        <time>2021-07-03T10:50:57.000Z</time>
      </trkpt>
      <trkpt lat="42.96646" lon="1.24185">
        <ele>773</ele>
        <time>2021-07-03T10:50:59.000Z</time>
      </trkpt>
      <trkpt lat="42.96645" lon="1.24169">
        <ele>772.40002441406</ele>
        <time>2021-07-03T10:51:03.000Z</time>
      </trkpt>
      <trkpt lat="42.96645" lon="1.24153">
        <ele>772</ele>
        <time>2021-07-03T10:51:07.000Z</time>
      </trkpt>
      <trkpt lat="42.96647" lon="1.24128">
        <ele>771.79998779297</ele>
        <time>2021-07-03T10:51:14.000Z</time>
      </trkpt>
      <trkpt lat="42.96647" lon="1.24102">
        <ele>771.79998779297</ele>
        <time>2021-07-03T10:51:21.000Z</time>
      </trkpt>
      <trkpt lat="42.96644" lon="1.24079">
        <ele>772.20001220703</ele>
        <time>2021-07-03T10:51:28.000Z</time>
      </trkpt>
      <trkpt lat="42.96643" lon="1.24059">
        <ele>773</ele>
        <time>2021-07-03T10:51:35.000Z</time>
      </trkpt>
      <trkpt lat="42.96643" lon="1.24056">
        <ele>773</ele>
        <time>2021-07-03T10:51:36.000Z</time>
      </trkpt>
      <trkpt lat="42.96643" lon="1.24041">
        <ele>773.40002441406</ele>
        <time>2021-07-03T10:51:41.000Z</time>
      </trkpt>
      <trkpt lat="42.96643" lon="1.24034">
        <ele>773.59997558594</ele>
        <time>2021-07-03T10:51:43.000Z</time>
      </trkpt>
      <trkpt lat="42.96646" lon="1.2401">
        <ele>774.20001220703</ele>
        <time>2021-07-03T10:51:50.000Z</time>
      </trkpt>
      <trkpt lat="42.96648" lon="1.23996">
        <ele>774.59997558594</ele>
        <time>2021-07-03T10:51:54.000Z</time>
      </trkpt>
      <trkpt lat="42.96647" lon="1.23985">
        <ele>775.20001220703</ele>
        <time>2021-07-03T10:51:57.000Z</time>
      </trkpt>
      <trkpt lat="42.96647" lon="1.23978">
        <ele>775.59997558594</ele>
        <time>2021-07-03T10:51:59.000Z</time>
      </trkpt>
      <trkpt lat="42.96645" lon="1.23957">
        <ele>776.40002441406</ele>
        <time>2021-07-03T10:52:05.000Z</time>
      </trkpt>
      <trkpt lat="42.96641" lon="1.23933">
        <ele>776.40002441406</ele>
        <time>2021-07-03T10:52:11.000Z</time>
      </trkpt>
      <trkpt lat="42.96641" lon="1.23907">
        <ele>776.40002441406</ele>
        <time>2021-07-03T10:52:18.000Z</time>
      </trkpt>
      <trkpt lat="42.9664" lon="1.23879">
        <ele>776.59997558594</ele>
        <time>2021-07-03T10:52:25.000Z</time>
      </trkpt>
      <trkpt lat="42.96639" lon="1.23854">
        <ele>777</ele>
        <time>2021-07-03T10:52:32.000Z</time>
      </trkpt>
      <trkpt lat="42.96639" lon="1.23849">
        <ele>777</ele>
        <time>2021-07-03T10:52:33.000Z</time>
      </trkpt>
      <trkpt lat="42.96638" lon="1.23822">
        <ele>777.20001220703</ele>
        <time>2021-07-03T10:52:40.000Z</time>
      </trkpt>
      <trkpt lat="42.96639" lon="1.23815">
        <ele>777.59997558594</ele>
        <time>2021-07-03T10:52:42.000Z</time>
      </trkpt>
      <trkpt lat="42.96641" lon="1.2379">
        <ele>777.20001220703</ele>
        <time>2021-07-03T10:52:49.000Z</time>
      </trkpt>
      <trkpt lat="42.96642" lon="1.23763">
        <ele>777.40002441406</ele>
        <time>2021-07-03T10:52:57.000Z</time>
      </trkpt>
      <trkpt lat="42.96645" lon="1.23739">
        <ele>777.40002441406</ele>
        <time>2021-07-03T10:53:04.000Z</time>
      </trkpt>
      <trkpt lat="42.96646" lon="1.23736">
        <ele>777.79998779297</ele>
        <time>2021-07-03T10:53:05.000Z</time>
      </trkpt>
      <trkpt lat="42.96649" lon="1.23714">
        <ele>778.79998779297</ele>
        <time>2021-07-03T10:53:12.000Z</time>
      </trkpt>
      <trkpt lat="42.96649" lon="1.23711">
        <ele>778.79998779297</ele>
        <time>2021-07-03T10:53:13.000Z</time>
      </trkpt>
      <trkpt lat="42.96651" lon="1.23692">
        <ele>779</ele>
        <time>2021-07-03T10:53:19.000Z</time>
      </trkpt>
      <trkpt lat="42.96651" lon="1.23671">
        <ele>777.59997558594</ele>
        <time>2021-07-03T10:53:25.000Z</time>
      </trkpt>
      <trkpt lat="42.96651" lon="1.23664">
        <ele>777</ele>
        <time>2021-07-03T10:53:27.000Z</time>
      </trkpt>
      <trkpt lat="42.96651" lon="1.2366">
        <ele>776.59997558594</ele>
        <time>2021-07-03T10:53:28.000Z</time>
      </trkpt>
      <trkpt lat="42.96653" lon="1.23642">
        <ele>775.40002441406</ele>
        <time>2021-07-03T10:53:33.000Z</time>
      </trkpt>
      <trkpt lat="42.96653" lon="1.23638">
        <ele>775.20001220703</ele>
        <time>2021-07-03T10:53:34.000Z</time>
      </trkpt>
      <trkpt lat="42.96651" lon="1.23623">
        <ele>774.40002441406</ele>
        <time>2021-07-03T10:53:38.000Z</time>
      </trkpt>
      <trkpt lat="42.96651" lon="1.23615">
        <ele>774</ele>
        <time>2021-07-03T10:53:40.000Z</time>
      </trkpt>
      <trkpt lat="42.9665" lon="1.23607">
        <ele>773</ele>
        <time>2021-07-03T10:53:42.000Z</time>
      </trkpt>
      <trkpt lat="42.96648" lon="1.23595">
        <ele>772</ele>
        <time>2021-07-03T10:53:45.000Z</time>
      </trkpt>
      <trkpt lat="42.96647" lon="1.23591">
        <ele>771.59997558594</ele>
        <time>2021-07-03T10:53:46.000Z</time>
      </trkpt>
      <trkpt lat="42.96646" lon="1.23586">
        <ele>771</ele>
        <time>2021-07-03T10:53:47.000Z</time>
      </trkpt>
      <trkpt lat="42.96645" lon="1.23578">
        <ele>769.79998779297</ele>
        <time>2021-07-03T10:53:49.000Z</time>
      </trkpt>
      <trkpt lat="42.96643" lon="1.23571">
        <ele>769</ele>
        <time>2021-07-03T10:53:51.000Z</time>
      </trkpt>
      <trkpt lat="42.96642" lon="1.23567">
        <ele>768.40002441406</ele>
        <time>2021-07-03T10:53:52.000Z</time>
      </trkpt>
      <trkpt lat="42.96641" lon="1.23559">
        <ele>767.59997558594</ele>
        <time>2021-07-03T10:53:54.000Z</time>
      </trkpt>
      <trkpt lat="42.9664" lon="1.23555">
        <ele>767.20001220703</ele>
        <time>2021-07-03T10:53:55.000Z</time>
      </trkpt>
      <trkpt lat="42.9664" lon="1.23543">
        <ele>766</ele>
        <time>2021-07-03T10:53:58.000Z</time>
      </trkpt>
      <trkpt lat="42.96639" lon="1.2353">
        <ele>765</ele>
        <time>2021-07-03T10:54:01.000Z</time>
      </trkpt>
      <trkpt lat="42.96638" lon="1.23513">
        <ele>763.59997558594</ele>
        <time>2021-07-03T10:54:05.000Z</time>
      </trkpt>
      <trkpt lat="42.9664" lon="1.235">
        <ele>763</ele>
        <time>2021-07-03T10:54:08.000Z</time>
      </trkpt>
      <trkpt lat="42.9664" lon="1.23481">
        <ele>762.59997558594</ele>
        <time>2021-07-03T10:54:13.000Z</time>
      </trkpt>
      <trkpt lat="42.9664" lon="1.23475">
        <ele>762.59997558594</ele>
        <time>2021-07-03T10:54:15.000Z</time>
      </trkpt>
      <trkpt lat="42.96642" lon="1.23449">
        <ele>763.79998779297</ele>
        <time>2021-07-03T10:54:22.000Z</time>
      </trkpt>
      <trkpt lat="42.96647" lon="1.23432">
        <ele>764</ele>
        <time>2021-07-03T10:54:27.000Z</time>
      </trkpt>
      <trkpt lat="42.96654" lon="1.23407">
        <ele>764.40002441406</ele>
        <time>2021-07-03T10:54:35.000Z</time>
      </trkpt>
      <trkpt lat="42.96655" lon="1.234">
        <ele>764.79998779297</ele>
        <time>2021-07-03T10:54:37.000Z</time>
      </trkpt>
      <trkpt lat="42.96656" lon="1.23383">
        <ele>765</ele>
        <time>2021-07-03T10:54:42.000Z</time>
      </trkpt>
      <trkpt lat="42.96657" lon="1.23357">
        <ele>765.20001220703</ele>
        <time>2021-07-03T10:54:49.000Z</time>
      </trkpt>
      <trkpt lat="42.96657" lon="1.23354">
        <ele>765.20001220703</ele>
        <time>2021-07-03T10:54:50.000Z</time>
      </trkpt>
      <trkpt lat="42.96657" lon="1.23328">
        <ele>764</ele>
        <time>2021-07-03T10:54:57.000Z</time>
      </trkpt>
      <trkpt lat="42.96657" lon="1.23325">
        <ele>763.79998779297</ele>
        <time>2021-07-03T10:54:58.000Z</time>
      </trkpt>
      <trkpt lat="42.96657" lon="1.23321">
        <ele>763.59997558594</ele>
        <time>2021-07-03T10:54:59.000Z</time>
      </trkpt>
      <trkpt lat="42.96659" lon="1.23296">
        <ele>763.20001220703</ele>
        <time>2021-07-03T10:55:06.000Z</time>
      </trkpt>
      <trkpt lat="42.96661" lon="1.23283">
        <ele>762.40002441406</ele>
        <time>2021-07-03T10:55:10.000Z</time>
      </trkpt>
      <trkpt lat="42.96662" lon="1.23265">
        <ele>761.79998779297</ele>
        <time>2021-07-03T10:55:15.000Z</time>
      </trkpt>
      <trkpt lat="42.96662" lon="1.23257">
        <ele>761.40002441406</ele>
        <time>2021-07-03T10:55:17.000Z</time>
      </trkpt>
      <trkpt lat="42.96663" lon="1.23235">
        <ele>760.59997558594</ele>
        <time>2021-07-03T10:55:23.000Z</time>
      </trkpt>
      <trkpt lat="42.96664" lon="1.23228">
        <ele>760.20001220703</ele>
        <time>2021-07-03T10:55:25.000Z</time>
      </trkpt>
      <trkpt lat="42.96667" lon="1.2321">
        <ele>760.20001220703</ele>
        <time>2021-07-03T10:55:30.000Z</time>
      </trkpt>
      <trkpt lat="42.96663" lon="1.23186">
        <ele>760</ele>
        <time>2021-07-03T10:55:37.000Z</time>
      </trkpt>
      <trkpt lat="42.96654" lon="1.23171">
        <ele>760.79998779297</ele>
        <time>2021-07-03T10:55:44.000Z</time>
      </trkpt>
      <trkpt lat="42.96651" lon="1.23164">
        <ele>761.40002441406</ele>
        <time>2021-07-03T10:55:48.000Z</time>
      </trkpt>
      <trkpt lat="42.96649" lon="1.23155">
        <ele>762.20001220703</ele>
        <time>2021-07-03T10:55:52.000Z</time>
      </trkpt>
      <trkpt lat="42.96648" lon="1.23153">
        <ele>762.40002441406</ele>
        <time>2021-07-03T10:55:53.000Z</time>
      </trkpt>
      <trkpt lat="42.96645" lon="1.23143">
        <ele>763.59997558594</ele>
        <time>2021-07-03T10:55:57.000Z</time>
      </trkpt>
      <trkpt lat="42.96644" lon="1.23141">
        <ele>763.79998779297</ele>
        <time>2021-07-03T10:55:58.000Z</time>
      </trkpt>
      <trkpt lat="42.96644" lon="1.23138">
        <ele>764</ele>
        <time>2021-07-03T10:55:59.000Z</time>
      </trkpt>
      <trkpt lat="42.96641" lon="1.23127">
        <ele>764.79998779297</ele>
        <time>2021-07-03T10:56:03.000Z</time>
      </trkpt>
      <trkpt lat="42.96639" lon="1.23121">
        <ele>765</ele>
        <time>2021-07-03T10:56:05.000Z</time>
      </trkpt>
      <trkpt lat="42.96636" lon="1.23102">
        <ele>765.40002441406</ele>
        <time>2021-07-03T10:56:11.000Z</time>
      </trkpt>
      <trkpt lat="42.96634" lon="1.23098">
        <ele>765.40002441406</ele>
        <time>2021-07-03T10:56:12.000Z</time>
      </trkpt>
      <trkpt lat="42.96629" lon="1.23073">
        <ele>765.79998779297</ele>
        <time>2021-07-03T10:56:19.000Z</time>
      </trkpt>
      <trkpt lat="42.96625" lon="1.23059">
        <ele>767</ele>
        <time>2021-07-03T10:56:23.000Z</time>
      </trkpt>
      <trkpt lat="42.96625" lon="1.23048">
        <ele>767.79998779297</ele>
        <time>2021-07-03T10:56:26.000Z</time>
      </trkpt>
      <trkpt lat="42.96625" lon="1.23042">
        <ele>768.20001220703</ele>
        <time>2021-07-03T10:56:28.000Z</time>
      </trkpt>
      <trkpt lat="42.96626" lon="1.23021">
        <ele>768.59997558594</ele>
        <time>2021-07-03T10:56:34.000Z</time>
      </trkpt>
      <trkpt lat="42.96626" lon="1.23014">
        <ele>769.40002441406</ele>
        <time>2021-07-03T10:56:36.000Z</time>
      </trkpt>
      <trkpt lat="42.96623" lon="1.22994">
        <ele>769.79998779297</ele>
        <time>2021-07-03T10:56:41.000Z</time>
      </trkpt>
      <trkpt lat="42.9662" lon="1.22969">
        <ele>769.40002441406</ele>
        <time>2021-07-03T10:56:47.000Z</time>
      </trkpt>
      <trkpt lat="42.96619" lon="1.22962">
        <ele>769.40002441406</ele>
        <time>2021-07-03T10:56:49.000Z</time>
      </trkpt>
      <trkpt lat="42.96612" lon="1.22939">
        <ele>769.59997558594</ele>
        <time>2021-07-03T10:56:56.000Z</time>
      </trkpt>
      <trkpt lat="42.96611" lon="1.22936">
        <ele>769.79998779297</ele>
        <time>2021-07-03T10:56:57.000Z</time>
      </trkpt>
      <trkpt lat="42.96602" lon="1.22912">
        <ele>769.79998779297</ele>
        <time>2021-07-03T10:57:04.000Z</time>
      </trkpt>
      <trkpt lat="42.96593" lon="1.22887">
        <ele>768.40002441406</ele>
        <time>2021-07-03T10:57:11.000Z</time>
      </trkpt>
      <trkpt lat="42.96592" lon="1.22883">
        <ele>768.20001220703</ele>
        <time>2021-07-03T10:57:12.000Z</time>
      </trkpt>
      <trkpt lat="42.96588" lon="1.22872">
        <ele>767.59997558594</ele>
        <time>2021-07-03T10:57:15.000Z</time>
      </trkpt>
      <trkpt lat="42.96586" lon="1.22864">
        <ele>767.40002441406</ele>
        <time>2021-07-03T10:57:17.000Z</time>
      </trkpt>
      <trkpt lat="42.96583" lon="1.2285">
        <ele>767.59997558594</ele>
        <time>2021-07-03T10:57:21.000Z</time>
      </trkpt>
      <trkpt lat="42.96576" lon="1.22826">
        <ele>767.40002441406</ele>
        <time>2021-07-03T10:57:28.000Z</time>
      </trkpt>
      <trkpt lat="42.96566" lon="1.22803">
        <ele>767.79998779297</ele>
        <time>2021-07-03T10:57:36.000Z</time>
      </trkpt>
      <trkpt lat="42.96561" lon="1.22786">
        <ele>766.79998779297</ele>
        <time>2021-07-03T10:57:41.000Z</time>
      </trkpt>
      <trkpt lat="42.9656" lon="1.22778">
        <ele>766.20001220703</ele>
        <time>2021-07-03T10:57:43.000Z</time>
      </trkpt>
      <trkpt lat="42.96557" lon="1.22762">
        <ele>765</ele>
        <time>2021-07-03T10:57:47.000Z</time>
      </trkpt>
      <trkpt lat="42.96557" lon="1.22758">
        <ele>764.59997558594</ele>
        <time>2021-07-03T10:57:48.000Z</time>
      </trkpt>
      <trkpt lat="42.96554" lon="1.22751">
        <ele>763.59997558594</ele>
        <time>2021-07-03T10:57:50.000Z</time>
      </trkpt>
      <trkpt lat="42.96549" lon="1.22734">
        <ele>762.59997558594</ele>
        <time>2021-07-03T10:57:55.000Z</time>
      </trkpt>
      <trkpt lat="42.96548" lon="1.2273">
        <ele>762.40002441406</ele>
        <time>2021-07-03T10:57:56.000Z</time>
      </trkpt>
      <trkpt lat="42.96545" lon="1.2272">
        <ele>761.59997558594</ele>
        <time>2021-07-03T10:57:59.000Z</time>
      </trkpt>
      <trkpt lat="42.96542" lon="1.2271">
        <ele>761</ele>
        <time>2021-07-03T10:58:02.000Z</time>
      </trkpt>
      <trkpt lat="42.96539" lon="1.22699">
        <ele>760.79998779297</ele>
        <time>2021-07-03T10:58:05.000Z</time>
      </trkpt>
      <trkpt lat="42.96538" lon="1.22695">
        <ele>760.40002441406</ele>
        <time>2021-07-03T10:58:06.000Z</time>
      </trkpt>
      <trkpt lat="42.96537" lon="1.22688">
        <ele>758.79998779297</ele>
        <time>2021-07-03T10:58:08.000Z</time>
      </trkpt>
      <trkpt lat="42.96534" lon="1.22681">
        <ele>757.59997558594</ele>
        <time>2021-07-03T10:58:10.000Z</time>
      </trkpt>
      <trkpt lat="42.96532" lon="1.22675">
        <ele>756.40002441406</ele>
        <time>2021-07-03T10:58:12.000Z</time>
      </trkpt>
      <trkpt lat="42.96528" lon="1.22662">
        <ele>755.40002441406</ele>
        <time>2021-07-03T10:58:16.000Z</time>
      </trkpt>
      <trkpt lat="42.96524" lon="1.22652">
        <ele>754.20001220703</ele>
        <time>2021-07-03T10:58:19.000Z</time>
      </trkpt>
      <trkpt lat="42.96519" lon="1.22638">
        <ele>752.79998779297</ele>
        <time>2021-07-03T10:58:23.000Z</time>
      </trkpt>
      <trkpt lat="42.96517" lon="1.22632">
        <ele>751.79998779297</ele>
        <time>2021-07-03T10:58:25.000Z</time>
      </trkpt>
      <trkpt lat="42.96513" lon="1.22625">
        <ele>750.20001220703</ele>
        <time>2021-07-03T10:58:27.000Z</time>
      </trkpt>
      <trkpt lat="42.96508" lon="1.22618">
        <ele>749.20001220703</ele>
        <time>2021-07-03T10:58:30.000Z</time>
      </trkpt>
      <trkpt lat="42.96501" lon="1.22613">
        <ele>747.79998779297</ele>
        <time>2021-07-03T10:58:33.000Z</time>
      </trkpt>
      <trkpt lat="42.96488" lon="1.22608">
        <ele>746.59997558594</ele>
        <time>2021-07-03T10:58:39.000Z</time>
      </trkpt>
      <trkpt lat="42.96486" lon="1.22606">
        <ele>746.40002441406</ele>
        <time>2021-07-03T10:58:40.000Z</time>
      </trkpt>
      <trkpt lat="42.96479" lon="1.2259">
        <ele>746.20001220703</ele>
        <time>2021-07-03T10:58:46.000Z</time>
      </trkpt>
      <trkpt lat="42.96482" lon="1.22574">
        <ele>746.40002441406</ele>
        <time>2021-07-03T10:58:51.000Z</time>
      </trkpt>
      <trkpt lat="42.9649" lon="1.22552">
        <ele>747.40002441406</ele>
        <time>2021-07-03T10:58:58.000Z</time>
      </trkpt>
      <trkpt lat="42.96493" lon="1.22545">
        <ele>747.20001220703</ele>
        <time>2021-07-03T10:59:00.000Z</time>
      </trkpt>
      <trkpt lat="42.96501" lon="1.2252">
        <ele>745.59997558594</ele>
        <time>2021-07-03T10:59:07.000Z</time>
      </trkpt>
      <trkpt lat="42.96502" lon="1.22516">
        <ele>745.59997558594</ele>
        <time>2021-07-03T10:59:08.000Z</time>
      </trkpt>
      <trkpt lat="42.96507" lon="1.22491">
        <ele>745.20001220703</ele>
        <time>2021-07-03T10:59:14.000Z</time>
      </trkpt>
      <trkpt lat="42.96508" lon="1.22487">
        <ele>745.20001220703</ele>
        <time>2021-07-03T10:59:15.000Z</time>
      </trkpt>
      <trkpt lat="42.96513" lon="1.22462">
        <ele>744.40002441406</ele>
        <time>2021-07-03T10:59:21.000Z</time>
      </trkpt>
      <trkpt lat="42.96516" lon="1.2245">
        <ele>744</ele>
        <time>2021-07-03T10:59:24.000Z</time>
      </trkpt>
      <trkpt lat="42.96525" lon="1.22427">
        <ele>743.79998779297</ele>
        <time>2021-07-03T10:59:30.000Z</time>
      </trkpt>
      <trkpt lat="42.9653" lon="1.22421">
        <ele>743.40002441406</ele>
        <time>2021-07-03T10:59:32.000Z</time>
      </trkpt>
      <trkpt lat="42.96545" lon="1.22408">
        <ele>742.59997558594</ele>
        <time>2021-07-03T10:59:38.000Z</time>
      </trkpt>
      <trkpt lat="42.96548" lon="1.22406">
        <ele>742.59997558594</ele>
        <time>2021-07-03T10:59:39.000Z</time>
      </trkpt>
      <trkpt lat="42.96562" lon="1.22396">
        <ele>742.20001220703</ele>
        <time>2021-07-03T10:59:44.000Z</time>
      </trkpt>
      <trkpt lat="42.96569" lon="1.2239">
        <ele>742</ele>
        <time>2021-07-03T10:59:47.000Z</time>
      </trkpt>
      <trkpt lat="42.96579" lon="1.22382">
        <ele>741.20001220703</ele>
        <time>2021-07-03T10:59:51.000Z</time>
      </trkpt>
      <trkpt lat="42.96587" lon="1.22376">
        <ele>740.79998779297</ele>
        <time>2021-07-03T10:59:54.000Z</time>
      </trkpt>
      <trkpt lat="42.96603" lon="1.22372">
        <ele>741</ele>
        <time>2021-07-03T11:00:00.000Z</time>
      </trkpt>
      <trkpt lat="42.96623" lon="1.22372">
        <ele>741.59997558594</ele>
        <time>2021-07-03T11:00:07.000Z</time>
      </trkpt>
      <trkpt lat="42.96626" lon="1.22372">
        <ele>741.79998779297</ele>
        <time>2021-07-03T11:00:08.000Z</time>
      </trkpt>
      <trkpt lat="42.96638" lon="1.22367">
        <ele>741.40002441406</ele>
        <time>2021-07-03T11:00:12.000Z</time>
      </trkpt>
      <trkpt lat="42.96655" lon="1.22356">
        <ele>740.20001220703</ele>
        <time>2021-07-03T11:00:19.000Z</time>
      </trkpt>
      <trkpt lat="42.96668" lon="1.22342">
        <ele>740.40002441406</ele>
        <time>2021-07-03T11:00:25.000Z</time>
      </trkpt>
      <trkpt lat="42.96685" lon="1.22319">
        <ele>740.40002441406</ele>
        <time>2021-07-03T11:00:33.000Z</time>
      </trkpt>
      <trkpt lat="42.96687" lon="1.22316">
        <ele>740.40002441406</ele>
        <time>2021-07-03T11:00:34.000Z</time>
      </trkpt>
      <trkpt lat="42.96694" lon="1.22298">
        <ele>740</ele>
        <time>2021-07-03T11:00:39.000Z</time>
      </trkpt>
      <trkpt lat="42.96698" lon="1.22288">
        <ele>740</ele>
        <time>2021-07-03T11:00:42.000Z</time>
      </trkpt>
      <trkpt lat="42.96709" lon="1.22267">
        <ele>740</ele>
        <time>2021-07-03T11:00:49.000Z</time>
      </trkpt>
      <trkpt lat="42.96717" lon="1.22248">
        <ele>739</ele>
        <time>2021-07-03T11:00:55.000Z</time>
      </trkpt>
      <trkpt lat="42.96719" lon="1.2224">
        <ele>738.59997558594</ele>
        <time>2021-07-03T11:00:57.000Z</time>
      </trkpt>
      <trkpt lat="42.96721" lon="1.22226">
        <ele>738</ele>
        <time>2021-07-03T11:01:01.000Z</time>
      </trkpt>
      <trkpt lat="42.96724" lon="1.22208">
        <ele>737</ele>
        <time>2021-07-03T11:01:06.000Z</time>
      </trkpt>
      <trkpt lat="42.96725" lon="1.22205">
        <ele>736.59997558594</ele>
        <time>2021-07-03T11:01:07.000Z</time>
      </trkpt>
      <trkpt lat="42.96725" lon="1.22187">
        <ele>735.59997558594</ele>
        <time>2021-07-03T11:01:12.000Z</time>
      </trkpt>
      <trkpt lat="42.96725" lon="1.22183">
        <ele>735.40002441406</ele>
        <time>2021-07-03T11:01:13.000Z</time>
      </trkpt>
      <trkpt lat="42.96724" lon="1.22167">
        <ele>734.40002441406</ele>
        <time>2021-07-03T11:01:17.000Z</time>
      </trkpt>
      <trkpt lat="42.96723" lon="1.22147">
        <ele>733</ele>
        <time>2021-07-03T11:01:22.000Z</time>
      </trkpt>
      <trkpt lat="42.96723" lon="1.22136">
        <ele>732</ele>
        <time>2021-07-03T11:01:25.000Z</time>
      </trkpt>
      <trkpt lat="42.96725" lon="1.22117">
        <ele>731</ele>
        <time>2021-07-03T11:01:30.000Z</time>
      </trkpt>
      <trkpt lat="42.96726" lon="1.22101">
        <ele>729.79998779297</ele>
        <time>2021-07-03T11:01:34.000Z</time>
      </trkpt>
      <trkpt lat="42.96727" lon="1.22089">
        <ele>728.59997558594</ele>
        <time>2021-07-03T11:01:37.000Z</time>
      </trkpt>
      <trkpt lat="42.96727" lon="1.22078">
        <ele>727.79998779297</ele>
        <time>2021-07-03T11:01:40.000Z</time>
      </trkpt>
      <trkpt lat="42.96727" lon="1.2207">
        <ele>727.40002441406</ele>
        <time>2021-07-03T11:01:42.000Z</time>
      </trkpt>
      <trkpt lat="42.96728" lon="1.2206">
        <ele>726.20001220703</ele>
        <time>2021-07-03T11:01:45.000Z</time>
      </trkpt>
      <trkpt lat="42.96731" lon="1.22046">
        <ele>725.79998779297</ele>
        <time>2021-07-03T11:01:49.000Z</time>
      </trkpt>
      <trkpt lat="42.96736" lon="1.22032">
        <ele>725.20001220703</ele>
        <time>2021-07-03T11:01:53.000Z</time>
      </trkpt>
      <trkpt lat="42.96738" lon="1.22021">
        <ele>724.79998779297</ele>
        <time>2021-07-03T11:01:56.000Z</time>
      </trkpt>
      <trkpt lat="42.96743" lon="1.22009">
        <ele>724.79998779297</ele>
        <time>2021-07-03T11:02:00.000Z</time>
      </trkpt>
      <trkpt lat="42.96749" lon="1.22009">
        <ele>724.79998779297</ele>
        <time>2021-07-03T11:02:02.000Z</time>
      </trkpt>
      <trkpt lat="42.96753" lon="1.22014">
        <ele>724.79998779297</ele>
        <time>2021-07-03T11:02:04.000Z</time>
      </trkpt>
      <trkpt lat="42.96754" lon="1.22021">
        <ele>724.40002441406</ele>
        <time>2021-07-03T11:02:06.000Z</time>
      </trkpt>
      <trkpt lat="42.96754" lon="1.22026">
        <ele>724</ele>
        <time>2021-07-03T11:02:07.000Z</time>
      </trkpt>
      <trkpt lat="42.96754" lon="1.22037">
        <ele>722.59997558594</ele>
        <time>2021-07-03T11:02:10.000Z</time>
      </trkpt>
      <trkpt lat="42.96754" lon="1.22044">
        <ele>721.79998779297</ele>
        <time>2021-07-03T11:02:12.000Z</time>
      </trkpt>
      <trkpt lat="42.96754" lon="1.22047">
        <ele>721.40002441406</ele>
        <time>2021-07-03T11:02:13.000Z</time>
      </trkpt>
      <trkpt lat="42.96755" lon="1.22057">
        <ele>720</ele>
        <time>2021-07-03T11:02:16.000Z</time>
      </trkpt>
      <trkpt lat="42.96756" lon="1.22066">
        <ele>718.59997558594</ele>
        <time>2021-07-03T11:02:19.000Z</time>
      </trkpt>
      <trkpt lat="42.96757" lon="1.22069">
        <ele>717.79998779297</ele>
        <time>2021-07-03T11:02:20.000Z</time>
      </trkpt>
      <trkpt lat="42.96757" lon="1.22072">
        <ele>717</ele>
        <time>2021-07-03T11:02:21.000Z</time>
      </trkpt>
      <trkpt lat="42.96758" lon="1.22081">
        <ele>715.59997558594</ele>
        <time>2021-07-03T11:02:24.000Z</time>
      </trkpt>
      <trkpt lat="42.96759" lon="1.22087">
        <ele>714.59997558594</ele>
        <time>2021-07-03T11:02:26.000Z</time>
      </trkpt>
      <trkpt lat="42.9676" lon="1.22094">
        <ele>713.79998779297</ele>
        <time>2021-07-03T11:02:28.000Z</time>
      </trkpt>
      <trkpt lat="42.96761" lon="1.22097">
        <ele>713.40002441406</ele>
        <time>2021-07-03T11:02:29.000Z</time>
      </trkpt>
      <trkpt lat="42.96764" lon="1.22109">
        <ele>712.20001220703</ele>
        <time>2021-07-03T11:02:32.000Z</time>
      </trkpt>
      <trkpt lat="42.9677" lon="1.22121">
        <ele>711</ele>
        <time>2021-07-03T11:02:36.000Z</time>
      </trkpt>
      <trkpt lat="42.96774" lon="1.22128">
        <ele>709.79998779297</ele>
        <time>2021-07-03T11:02:39.000Z</time>
      </trkpt>
      <trkpt lat="42.9678" lon="1.22142">
        <ele>708.79998779297</ele>
        <time>2021-07-03T11:02:43.000Z</time>
      </trkpt>
      <trkpt lat="42.96785" lon="1.22153">
        <ele>707.59997558594</ele>
        <time>2021-07-03T11:02:46.000Z</time>
      </trkpt>
      <trkpt lat="42.96788" lon="1.22165">
        <ele>706.40002441406</ele>
        <time>2021-07-03T11:02:49.000Z</time>
      </trkpt>
      <trkpt lat="42.9679" lon="1.22168">
        <ele>706</ele>
        <time>2021-07-03T11:02:50.000Z</time>
      </trkpt>
      <trkpt lat="42.96794" lon="1.22178">
        <ele>704.59997558594</ele>
        <time>2021-07-03T11:02:53.000Z</time>
      </trkpt>
      <trkpt lat="42.96796" lon="1.22185">
        <ele>703.59997558594</ele>
        <time>2021-07-03T11:02:55.000Z</time>
      </trkpt>
      <trkpt lat="42.96798" lon="1.22193">
        <ele>703</ele>
        <time>2021-07-03T11:02:58.000Z</time>
      </trkpt>
      <trkpt lat="42.96798" lon="1.22195">
        <ele>702.40002441406</ele>
        <time>2021-07-03T11:02:59.000Z</time>
      </trkpt>
      <trkpt lat="42.96802" lon="1.22203">
        <ele>701.20001220703</ele>
        <time>2021-07-03T11:03:02.000Z</time>
      </trkpt>
      <trkpt lat="42.96805" lon="1.22209">
        <ele>700.20001220703</ele>
        <time>2021-07-03T11:03:04.000Z</time>
      </trkpt>
      <trkpt lat="42.96806" lon="1.22213">
        <ele>699.59997558594</ele>
        <time>2021-07-03T11:03:05.000Z</time>
      </trkpt>
      <trkpt lat="42.96808" lon="1.22221">
        <ele>699</ele>
        <time>2021-07-03T11:03:07.000Z</time>
      </trkpt>
      <trkpt lat="42.9681" lon="1.22229">
        <ele>697.79998779297</ele>
        <time>2021-07-03T11:03:09.000Z</time>
      </trkpt>
      <trkpt lat="42.96812" lon="1.22237">
        <ele>696.79998779297</ele>
        <time>2021-07-03T11:03:11.000Z</time>
      </trkpt>
      <trkpt lat="42.96812" lon="1.22241">
        <ele>696.40002441406</ele>
        <time>2021-07-03T11:03:12.000Z</time>
      </trkpt>
      <trkpt lat="42.96815" lon="1.22251">
        <ele>695</ele>
        <time>2021-07-03T11:03:15.000Z</time>
      </trkpt>
      <trkpt lat="42.96815" lon="1.22262">
        <ele>693.79998779297</ele>
        <time>2021-07-03T11:03:18.000Z</time>
      </trkpt>
      <trkpt lat="42.96815" lon="1.22265">
        <ele>693.20001220703</ele>
        <time>2021-07-03T11:03:19.000Z</time>
      </trkpt>
      <trkpt lat="42.96815" lon="1.22271">
        <ele>692.40002441406</ele>
        <time>2021-07-03T11:03:21.000Z</time>
      </trkpt>
      <trkpt lat="42.96814" lon="1.22278">
        <ele>691.20001220703</ele>
        <time>2021-07-03T11:03:23.000Z</time>
      </trkpt>
      <trkpt lat="42.96812" lon="1.22285">
        <ele>689.79998779297</ele>
        <time>2021-07-03T11:03:25.000Z</time>
      </trkpt>
      <trkpt lat="42.96811" lon="1.22288">
        <ele>689.40002441406</ele>
        <time>2021-07-03T11:03:26.000Z</time>
      </trkpt>
      <trkpt lat="42.96806" lon="1.22294">
        <ele>688.59997558594</ele>
        <time>2021-07-03T11:03:28.000Z</time>
      </trkpt>
      <trkpt lat="42.96802" lon="1.22297">
        <ele>687.40002441406</ele>
        <time>2021-07-03T11:03:30.000Z</time>
      </trkpt>
      <trkpt lat="42.968" lon="1.22301">
        <ele>686.59997558594</ele>
        <time>2021-07-03T11:03:32.000Z</time>
      </trkpt>
      <trkpt lat="42.96799" lon="1.22304">
        <ele>686.40002441406</ele>
        <time>2021-07-03T11:03:33.000Z</time>
      </trkpt>
      <trkpt lat="42.96799" lon="1.22306">
        <ele>686.20001220703</ele>
        <time>2021-07-03T11:03:34.000Z</time>
      </trkpt>
      <trkpt lat="42.96801" lon="1.22309">
        <ele>685.59997558594</ele>
        <time>2021-07-03T11:03:36.000Z</time>
      </trkpt>
      <trkpt lat="42.96803" lon="1.22309">
        <ele>685.20001220703</ele>
        <time>2021-07-03T11:03:37.000Z</time>
      </trkpt>
      <trkpt lat="42.96805" lon="1.22308">
        <ele>684</ele>
        <time>2021-07-03T11:03:39.000Z</time>
      </trkpt>
      <trkpt lat="42.96811" lon="1.22307">
        <ele>682.79998779297</ele>
        <time>2021-07-03T11:03:42.000Z</time>
      </trkpt>
      <trkpt lat="42.96814" lon="1.22303">
        <ele>682</ele>
        <time>2021-07-03T11:03:44.000Z</time>
      </trkpt>
      <trkpt lat="42.96815" lon="1.22302">
        <ele>681.79998779297</ele>
        <time>2021-07-03T11:03:45.000Z</time>
      </trkpt>
      <trkpt lat="42.9682" lon="1.22299">
        <ele>680</ele>
        <time>2021-07-03T11:03:48.000Z</time>
      </trkpt>
      <trkpt lat="42.96823" lon="1.22297">
        <ele>679</ele>
        <time>2021-07-03T11:03:50.000Z</time>
      </trkpt>
      <trkpt lat="42.96827" lon="1.22296">
        <ele>678</ele>
        <time>2021-07-03T11:03:52.000Z</time>
      </trkpt>
      <trkpt lat="42.96828" lon="1.22294">
        <ele>677.59997558594</ele>
        <time>2021-07-03T11:03:53.000Z</time>
      </trkpt>
      <trkpt lat="42.96831" lon="1.22292">
        <ele>676.20001220703</ele>
        <time>2021-07-03T11:03:56.000Z</time>
      </trkpt>
      <trkpt lat="42.96834" lon="1.22289">
        <ele>675.20001220703</ele>
        <time>2021-07-03T11:03:58.000Z</time>
      </trkpt>
      <trkpt lat="42.96836" lon="1.22287">
        <ele>674.59997558594</ele>
        <time>2021-07-03T11:03:59.000Z</time>
      </trkpt>
      <trkpt lat="42.96838" lon="1.22286">
        <ele>673.79998779297</ele>
        <time>2021-07-03T11:04:00.000Z</time>
      </trkpt>
      <trkpt lat="42.96842" lon="1.22283">
        <ele>672.59997558594</ele>
        <time>2021-07-03T11:04:02.000Z</time>
      </trkpt>
      <trkpt lat="42.96846" lon="1.2228">
        <ele>671.20001220703</ele>
        <time>2021-07-03T11:04:04.000Z</time>
      </trkpt>
      <trkpt lat="42.96853" lon="1.22276">
        <ele>669.59997558594</ele>
        <time>2021-07-03T11:04:06.000Z</time>
      </trkpt>
      <trkpt lat="42.9686" lon="1.22272">
        <ele>668.59997558594</ele>
        <time>2021-07-03T11:04:08.000Z</time>
      </trkpt>
      <trkpt lat="42.96866" lon="1.22266">
        <ele>667.59997558594</ele>
        <time>2021-07-03T11:04:10.000Z</time>
      </trkpt>
      <trkpt lat="42.9687" lon="1.22261">
        <ele>666.20001220703</ele>
        <time>2021-07-03T11:04:12.000Z</time>
      </trkpt>
      <trkpt lat="42.96876" lon="1.22255">
        <ele>665.20001220703</ele>
        <time>2021-07-03T11:04:14.000Z</time>
      </trkpt>
      <trkpt lat="42.96881" lon="1.22247">
        <ele>663.79998779297</ele>
        <time>2021-07-03T11:04:17.000Z</time>
      </trkpt>
      <trkpt lat="42.96884" lon="1.22241">
        <ele>662.59997558594</ele>
        <time>2021-07-03T11:04:19.000Z</time>
      </trkpt>
      <trkpt lat="42.96885" lon="1.22236">
        <ele>661.20001220703</ele>
        <time>2021-07-03T11:04:21.000Z</time>
      </trkpt>
      <trkpt lat="42.96886" lon="1.2223">
        <ele>660</ele>
        <time>2021-07-03T11:04:23.000Z</time>
      </trkpt>
      <trkpt lat="42.96887" lon="1.22221">
        <ele>658.59997558594</ele>
        <time>2021-07-03T11:04:26.000Z</time>
      </trkpt>
      <trkpt lat="42.96888" lon="1.22211">
        <ele>657.40002441406</ele>
        <time>2021-07-03T11:04:29.000Z</time>
      </trkpt>
      <trkpt lat="42.96888" lon="1.22202">
        <ele>656.40002441406</ele>
        <time>2021-07-03T11:04:32.000Z</time>
      </trkpt>
      <trkpt lat="42.96885" lon="1.22188">
        <ele>655.79998779297</ele>
        <time>2021-07-03T11:04:36.000Z</time>
      </trkpt>
      <trkpt lat="42.96881" lon="1.22167">
        <ele>655.20001220703</ele>
        <time>2021-07-03T11:04:42.000Z</time>
      </trkpt>
      <trkpt lat="42.96881" lon="1.22162">
        <ele>654.40002441406</ele>
        <time>2021-07-03T11:04:44.000Z</time>
      </trkpt>
      <trkpt lat="42.9688" lon="1.2216">
        <ele>654</ele>
        <time>2021-07-03T11:04:45.000Z</time>
      </trkpt>
      <trkpt lat="42.9688" lon="1.22151">
        <ele>652.79998779297</ele>
        <time>2021-07-03T11:04:49.000Z</time>
      </trkpt>
      <trkpt lat="42.96881" lon="1.22147">
        <ele>652.20001220703</ele>
        <time>2021-07-03T11:04:51.000Z</time>
      </trkpt>
      <trkpt lat="42.96878" lon="1.22139">
        <ele>651.59997558594</ele>
        <time>2021-07-03T11:04:54.000Z</time>
      </trkpt>
      <trkpt lat="42.96875" lon="1.22126">
        <ele>650.59997558594</ele>
        <time>2021-07-03T11:04:57.000Z</time>
      </trkpt>
      <trkpt lat="42.9687" lon="1.22102">
        <ele>650.20001220703</ele>
        <time>2021-07-03T11:05:03.000Z</time>
      </trkpt>
      <trkpt lat="42.96874" lon="1.22079">
        <ele>651.59997558594</ele>
        <time>2021-07-03T11:05:09.000Z</time>
      </trkpt>
      <trkpt lat="42.96874" lon="1.22076">
        <ele>652</ele>
        <time>2021-07-03T11:05:10.000Z</time>
      </trkpt>
      <trkpt lat="42.96876" lon="1.22064">
        <ele>652.59997558594</ele>
        <time>2021-07-03T11:05:14.000Z</time>
      </trkpt>
      <trkpt lat="42.96885" lon="1.22051">
        <ele>652.79998779297</ele>
        <time>2021-07-03T11:05:18.000Z</time>
      </trkpt>
      <trkpt lat="42.96898" lon="1.22036">
        <ele>653.20001220703</ele>
        <time>2021-07-03T11:05:23.000Z</time>
      </trkpt>
      <trkpt lat="42.96901" lon="1.22032">
        <ele>653.79998779297</ele>
        <time>2021-07-03T11:05:25.000Z</time>
      </trkpt>
      <trkpt lat="42.96906" lon="1.22025">
        <ele>654.79998779297</ele>
        <time>2021-07-03T11:05:28.000Z</time>
      </trkpt>
      <trkpt lat="42.96911" lon="1.22016">
        <ele>655.40002441406</ele>
        <time>2021-07-03T11:05:32.000Z</time>
      </trkpt>
      <trkpt lat="42.96912" lon="1.22013">
        <ele>656.20001220703</ele>
        <time>2021-07-03T11:05:34.000Z</time>
      </trkpt>
      <trkpt lat="42.96917" lon="1.22005">
        <ele>657.40002441406</ele>
        <time>2021-07-03T11:05:38.000Z</time>
      </trkpt>
      <trkpt lat="42.96919" lon="1.21999">
        <ele>658</ele>
        <time>2021-07-03T11:05:40.000Z</time>
      </trkpt>
      <trkpt lat="42.96922" lon="1.21994">
        <ele>658.59997558594</ele>
        <time>2021-07-03T11:05:42.000Z</time>
      </trkpt>
      <trkpt lat="42.96927" lon="1.21986">
        <ele>659.40002441406</ele>
        <time>2021-07-03T11:05:46.000Z</time>
      </trkpt>
      <trkpt lat="42.96932" lon="1.21983">
        <ele>659.59997558594</ele>
        <time>2021-07-03T11:05:48.000Z</time>
      </trkpt>
      <trkpt lat="42.96934" lon="1.21983">
        <ele>659.59997558594</ele>
        <time>2021-07-03T11:05:49.000Z</time>
      </trkpt>
      <trkpt lat="42.96939" lon="1.2198">
        <ele>660</ele>
        <time>2021-07-03T11:05:52.000Z</time>
      </trkpt>
      <trkpt lat="42.96942" lon="1.21978">
        <ele>660.20001220703</ele>
        <time>2021-07-03T11:05:54.000Z</time>
      </trkpt>
      <trkpt lat="42.96945" lon="1.21977">
        <ele>660.59997558594</ele>
        <time>2021-07-03T11:05:56.000Z</time>
      </trkpt>
      <trkpt lat="42.96955" lon="1.21967">
        <ele>661.20001220703</ele>
        <time>2021-07-03T11:06:01.000Z</time>
      </trkpt>
      <trkpt lat="42.96971" lon="1.21952">
        <ele>661.40002441406</ele>
        <time>2021-07-03T11:06:10.000Z</time>
      </trkpt>
      <trkpt lat="42.96972" lon="1.21952">
        <ele>661.40002441406</ele>
        <time>2021-07-03T11:06:11.000Z</time>
      </trkpt>
      <trkpt lat="42.96976" lon="1.21952">
        <ele>661.79998779297</ele>
        <time>2021-07-03T11:06:13.000Z</time>
      </trkpt>
      <trkpt lat="42.96983" lon="1.21956">
        <ele>662.59997558594</ele>
        <time>2021-07-03T11:06:17.000Z</time>
      </trkpt>
      <trkpt lat="42.96998" lon="1.21967">
        <ele>661.40002441406</ele>
        <time>2021-07-03T11:06:26.000Z</time>
      </trkpt>
      <trkpt lat="42.97005" lon="1.21975">
        <ele>660.79998779297</ele>
        <time>2021-07-03T11:06:30.000Z</time>
      </trkpt>
      <trkpt lat="42.97008" lon="1.21978">
        <ele>660.59997558594</ele>
        <time>2021-07-03T11:06:32.000Z</time>
      </trkpt>
      <trkpt lat="42.97016" lon="1.21986">
        <ele>659.59997558594</ele>
        <time>2021-07-03T11:06:37.000Z</time>
      </trkpt>
      <trkpt lat="42.97018" lon="1.21987">
        <ele>659.59997558594</ele>
        <time>2021-07-03T11:06:38.000Z</time>
      </trkpt>
      <trkpt lat="42.97039" lon="1.21995">
        <ele>659.20001220703</ele>
        <time>2021-07-03T11:06:46.000Z</time>
      </trkpt>
      <trkpt lat="42.97046" lon="1.21994">
        <ele>658.59997558594</ele>
        <time>2021-07-03T11:06:48.000Z</time>
      </trkpt>
      <trkpt lat="42.97059" lon="1.21988">
        <ele>657.79998779297</ele>
        <time>2021-07-03T11:06:52.000Z</time>
      </trkpt>
      <trkpt lat="42.97062" lon="1.21986">
        <ele>657.59997558594</ele>
        <time>2021-07-03T11:06:53.000Z</time>
      </trkpt>
      <trkpt lat="42.97071" lon="1.21981">
        <ele>656.40002441406</ele>
        <time>2021-07-03T11:06:56.000Z</time>
      </trkpt>
      <trkpt lat="42.97079" lon="1.21978">
        <ele>655.40002441406</ele>
        <time>2021-07-03T11:06:59.000Z</time>
      </trkpt>
      <trkpt lat="42.97081" lon="1.21978">
        <ele>655</ele>
        <time>2021-07-03T11:07:00.000Z</time>
      </trkpt>
      <trkpt lat="42.97089" lon="1.21977">
        <ele>654</ele>
        <time>2021-07-03T11:07:03.000Z</time>
      </trkpt>
      <trkpt lat="42.97096" lon="1.21976">
        <ele>652.79998779297</ele>
        <time>2021-07-03T11:07:07.000Z</time>
      </trkpt>
      <trkpt lat="42.97113" lon="1.21968">
        <ele>651.79998779297</ele>
        <time>2021-07-03T11:07:13.000Z</time>
      </trkpt>
      <trkpt lat="42.97128" lon="1.21953">
        <ele>651</ele>
        <time>2021-07-03T11:07:20.000Z</time>
      </trkpt>
      <trkpt lat="42.9713" lon="1.21951">
        <ele>651</ele>
        <time>2021-07-03T11:07:21.000Z</time>
      </trkpt>
      <trkpt lat="42.97134" lon="1.21946">
        <ele>650.59997558594</ele>
        <time>2021-07-03T11:07:23.000Z</time>
      </trkpt>
      <trkpt lat="42.97141" lon="1.21936">
        <ele>650</ele>
        <time>2021-07-03T11:07:27.000Z</time>
      </trkpt>
      <trkpt lat="42.97144" lon="1.2193">
        <ele>649.59997558594</ele>
        <time>2021-07-03T11:07:29.000Z</time>
      </trkpt>
      <trkpt lat="42.97152" lon="1.21919">
        <ele>648.59997558594</ele>
        <time>2021-07-03T11:07:33.000Z</time>
      </trkpt>
      <trkpt lat="42.97155" lon="1.21914">
        <ele>648.20001220703</ele>
        <time>2021-07-03T11:07:35.000Z</time>
      </trkpt>
      <trkpt lat="42.97167" lon="1.21894">
        <ele>648</ele>
        <time>2021-07-03T11:07:42.000Z</time>
      </trkpt>
      <trkpt lat="42.9717" lon="1.21888">
        <ele>647.40002441406</ele>
        <time>2021-07-03T11:07:44.000Z</time>
      </trkpt>
      <trkpt lat="42.9718" lon="1.21868">
        <ele>646.20001220703</ele>
        <time>2021-07-03T11:07:50.000Z</time>
      </trkpt>
      <trkpt lat="42.97184" lon="1.21865">
        <ele>645.59997558594</ele>
        <time>2021-07-03T11:07:52.000Z</time>
      </trkpt>
      <trkpt lat="42.97191" lon="1.21854">
        <ele>644.79998779297</ele>
        <time>2021-07-03T11:07:56.000Z</time>
      </trkpt>
      <trkpt lat="42.972" lon="1.21845">
        <ele>644.59997558594</ele>
        <time>2021-07-03T11:08:00.000Z</time>
      </trkpt>
      <trkpt lat="42.97207" lon="1.21825">
        <ele>644.59997558594</ele>
        <time>2021-07-03T11:08:06.000Z</time>
      </trkpt>
      <trkpt lat="42.9721" lon="1.21803">
        <ele>644.40002441406</ele>
        <time>2021-07-03T11:08:12.000Z</time>
      </trkpt>
      <trkpt lat="42.97211" lon="1.21783">
        <ele>645.40002441406</ele>
        <time>2021-07-03T11:08:19.000Z</time>
      </trkpt>
      <trkpt lat="42.97217" lon="1.21769">
        <ele>645</ele>
        <time>2021-07-03T11:08:24.000Z</time>
      </trkpt>
      <trkpt lat="42.97223" lon="1.21759">
        <ele>643.40002441406</ele>
        <time>2021-07-03T11:08:28.000Z</time>
      </trkpt>
      <trkpt lat="42.97225" lon="1.21758">
        <ele>642.40002441406</ele>
        <time>2021-07-03T11:08:29.000Z</time>
      </trkpt>
      <trkpt lat="42.97227" lon="1.21755">
        <ele>642</ele>
        <time>2021-07-03T11:08:31.000Z</time>
      </trkpt>
      <trkpt lat="42.97231" lon="1.21753">
        <ele>641.20001220703</ele>
        <time>2021-07-03T11:08:33.000Z</time>
      </trkpt>
      <trkpt lat="42.9724" lon="1.21749">
        <ele>639.79998779297</ele>
        <time>2021-07-03T11:08:37.000Z</time>
      </trkpt>
      <trkpt lat="42.97248" lon="1.21744">
        <ele>638.79998779297</ele>
        <time>2021-07-03T11:08:40.000Z</time>
      </trkpt>
      <trkpt lat="42.97253" lon="1.21741">
        <ele>638.59997558594</ele>
        <time>2021-07-03T11:08:42.000Z</time>
      </trkpt>
      <trkpt lat="42.97263" lon="1.2173">
        <ele>637.40002441406</ele>
        <time>2021-07-03T11:08:47.000Z</time>
      </trkpt>
      <trkpt lat="42.97269" lon="1.21723">
        <ele>636.20001220703</ele>
        <time>2021-07-03T11:08:50.000Z</time>
      </trkpt>
      <trkpt lat="42.97277" lon="1.21713">
        <ele>635.40002441406</ele>
        <time>2021-07-03T11:08:54.000Z</time>
      </trkpt>
      <trkpt lat="42.97281" lon="1.21706">
        <ele>635.20001220703</ele>
        <time>2021-07-03T11:08:56.000Z</time>
      </trkpt>
      <trkpt lat="42.97287" lon="1.21693">
        <ele>634.40002441406</ele>
        <time>2021-07-03T11:09:00.000Z</time>
      </trkpt>
      <trkpt lat="42.9729" lon="1.21684">
        <ele>633.79998779297</ele>
        <time>2021-07-03T11:09:03.000Z</time>
      </trkpt>
      <trkpt lat="42.97293" lon="1.21678">
        <ele>632.59997558594</ele>
        <time>2021-07-03T11:09:05.000Z</time>
      </trkpt>
      <trkpt lat="42.97295" lon="1.21672">
        <ele>631.59997558594</ele>
        <time>2021-07-03T11:09:07.000Z</time>
      </trkpt>
      <trkpt lat="42.97298" lon="1.21661">
        <ele>630.40002441406</ele>
        <time>2021-07-03T11:09:11.000Z</time>
      </trkpt>
      <trkpt lat="42.97301" lon="1.21652">
        <ele>629.59997558594</ele>
        <time>2021-07-03T11:09:14.000Z</time>
      </trkpt>
      <trkpt lat="42.97302" lon="1.21648">
        <ele>628.79998779297</ele>
        <time>2021-07-03T11:09:15.000Z</time>
      </trkpt>
      <trkpt lat="42.97303" lon="1.21642">
        <ele>627.59997558594</ele>
        <time>2021-07-03T11:09:17.000Z</time>
      </trkpt>
      <trkpt lat="42.97304" lon="1.21632">
        <ele>626.59997558594</ele>
        <time>2021-07-03T11:09:20.000Z</time>
      </trkpt>
      <trkpt lat="42.97305" lon="1.21624">
        <ele>625.20001220703</ele>
        <time>2021-07-03T11:09:22.000Z</time>
      </trkpt>
      <trkpt lat="42.97307" lon="1.21613">
        <ele>624</ele>
        <time>2021-07-03T11:09:25.000Z</time>
      </trkpt>
      <trkpt lat="42.9731" lon="1.21602">
        <ele>622.79998779297</ele>
        <time>2021-07-03T11:09:28.000Z</time>
      </trkpt>
      <trkpt lat="42.97311" lon="1.21597">
        <ele>622.59997558594</ele>
        <time>2021-07-03T11:09:29.000Z</time>
      </trkpt>
      <trkpt lat="42.97315" lon="1.21585">
        <ele>621.79998779297</ele>
        <time>2021-07-03T11:09:32.000Z</time>
      </trkpt>
      <trkpt lat="42.97318" lon="1.21574">
        <ele>621.20001220703</ele>
        <time>2021-07-03T11:09:35.000Z</time>
      </trkpt>
      <trkpt lat="42.97318" lon="1.21571">
        <ele>620.59997558594</ele>
        <time>2021-07-03T11:09:36.000Z</time>
      </trkpt>
      <trkpt lat="42.9732" lon="1.2156">
        <ele>619.59997558594</ele>
        <time>2021-07-03T11:09:39.000Z</time>
      </trkpt>
      <trkpt lat="42.97322" lon="1.21553">
        <ele>619.20001220703</ele>
        <time>2021-07-03T11:09:41.000Z</time>
      </trkpt>
      <trkpt lat="42.97323" lon="1.21549">
        <ele>618.79998779297</ele>
        <time>2021-07-03T11:09:42.000Z</time>
      </trkpt>
      <trkpt lat="42.97323" lon="1.21546">
        <ele>618.59997558594</ele>
        <time>2021-07-03T11:09:43.000Z</time>
      </trkpt>
      <trkpt lat="42.97328" lon="1.21523">
        <ele>617.79998779297</ele>
        <time>2021-07-03T11:09:49.000Z</time>
      </trkpt>
      <trkpt lat="42.97331" lon="1.21515">
        <ele>617.59997558594</ele>
        <time>2021-07-03T11:09:51.000Z</time>
      </trkpt>
      <trkpt lat="42.97332" lon="1.21511">
        <ele>617.59997558594</ele>
        <time>2021-07-03T11:09:52.000Z</time>
      </trkpt>
      <trkpt lat="42.97338" lon="1.215">
        <ele>616.79998779297</ele>
        <time>2021-07-03T11:09:56.000Z</time>
      </trkpt>
      <trkpt lat="42.97341" lon="1.2149">
        <ele>616.40002441406</ele>
        <time>2021-07-03T11:09:59.000Z</time>
      </trkpt>
      <trkpt lat="42.97346" lon="1.21476">
        <ele>616</ele>
        <time>2021-07-03T11:10:03.000Z</time>
      </trkpt>
      <trkpt lat="42.9736" lon="1.21457">
        <ele>615.59997558594</ele>
        <time>2021-07-03T11:10:11.000Z</time>
      </trkpt>
      <trkpt lat="42.97362" lon="1.21455">
        <ele>615.79998779297</ele>
        <time>2021-07-03T11:10:12.000Z</time>
      </trkpt>
      <trkpt lat="42.97372" lon="1.21438">
        <ele>616.40002441406</ele>
        <time>2021-07-03T11:10:18.000Z</time>
      </trkpt>
      <trkpt lat="42.97382" lon="1.21412">
        <ele>615.79998779297</ele>
        <time>2021-07-03T11:10:25.000Z</time>
      </trkpt>
      <trkpt lat="42.97386" lon="1.21392">
        <ele>616</ele>
        <time>2021-07-03T11:10:30.000Z</time>
      </trkpt>
      <trkpt lat="42.9739" lon="1.21382">
        <ele>616.20001220703</ele>
        <time>2021-07-03T11:10:33.000Z</time>
      </trkpt>
      <trkpt lat="42.97394" lon="1.21369">
        <ele>616.20001220703</ele>
        <time>2021-07-03T11:10:39.000Z</time>
      </trkpt>
      <trkpt lat="42.97395" lon="1.21367">
        <ele>616.40002441406</ele>
        <time>2021-07-03T11:10:40.000Z</time>
      </trkpt>
      <trkpt lat="42.97403" lon="1.21347">
        <ele>617</ele>
        <time>2021-07-03T11:10:46.000Z</time>
      </trkpt>
      <trkpt lat="42.97413" lon="1.2133">
        <ele>617</ele>
        <time>2021-07-03T11:10:52.000Z</time>
      </trkpt>
      <trkpt lat="42.97423" lon="1.21315">
        <ele>617.20001220703</ele>
        <time>2021-07-03T11:10:58.000Z</time>
      </trkpt>
      <trkpt lat="42.97434" lon="1.21294">
        <ele>617.59997558594</ele>
        <time>2021-07-03T11:11:04.000Z</time>
      </trkpt>
      <trkpt lat="42.97437" lon="1.21288">
        <ele>617.40002441406</ele>
        <time>2021-07-03T11:11:06.000Z</time>
      </trkpt>
      <trkpt lat="42.9744" lon="1.21279">
        <ele>617.59997558594</ele>
        <time>2021-07-03T11:11:09.000Z</time>
      </trkpt>
      <trkpt lat="42.97445" lon="1.21272">
        <ele>618</ele>
        <time>2021-07-03T11:11:12.000Z</time>
      </trkpt>
      <trkpt lat="42.97455" lon="1.21259">
        <ele>617.79998779297</ele>
        <time>2021-07-03T11:11:18.000Z</time>
      </trkpt>
      <trkpt lat="42.97456" lon="1.21257">
        <ele>617.79998779297</ele>
        <time>2021-07-03T11:11:19.000Z</time>
      </trkpt>
      <trkpt lat="42.97464" lon="1.21243">
        <ele>618.59997558594</ele>
        <time>2021-07-03T11:11:24.000Z</time>
      </trkpt>
      <trkpt lat="42.97465" lon="1.2124">
        <ele>618.59997558594</ele>
        <time>2021-07-03T11:11:25.000Z</time>
      </trkpt>
      <trkpt lat="42.97474" lon="1.21217">
        <ele>618.59997558594</ele>
        <time>2021-07-03T11:11:31.000Z</time>
      </trkpt>
      <trkpt lat="42.97486" lon="1.21199">
        <ele>618.40002441406</ele>
        <time>2021-07-03T11:11:37.000Z</time>
      </trkpt>
      <trkpt lat="42.97499" lon="1.2118">
        <ele>618.59997558594</ele>
        <time>2021-07-03T11:11:44.000Z</time>
      </trkpt>
      <trkpt lat="42.97512" lon="1.2116">
        <ele>618.40002441406</ele>
        <time>2021-07-03T11:11:51.000Z</time>
      </trkpt>
      <trkpt lat="42.97513" lon="1.21158">
        <ele>618.40002441406</ele>
        <time>2021-07-03T11:11:52.000Z</time>
      </trkpt>
      <trkpt lat="42.97521" lon="1.21132">
        <ele>618.40002441406</ele>
        <time>2021-07-03T11:11:58.000Z</time>
      </trkpt>
      <trkpt lat="42.97526" lon="1.21107">
        <ele>618.20001220703</ele>
        <time>2021-07-03T11:12:04.000Z</time>
      </trkpt>
      <trkpt lat="42.97528" lon="1.211">
        <ele>618.20001220703</ele>
        <time>2021-07-03T11:12:06.000Z</time>
      </trkpt>
      <trkpt lat="42.9753" lon="1.21088">
        <ele>617.40002441406</ele>
        <time>2021-07-03T11:12:09.000Z</time>
      </trkpt>
      <trkpt lat="42.97534" lon="1.21079">
        <ele>617.20001220703</ele>
        <time>2021-07-03T11:12:12.000Z</time>
      </trkpt>
      <trkpt lat="42.9754" lon="1.21051">
        <ele>616.79998779297</ele>
        <time>2021-07-03T11:12:19.000Z</time>
      </trkpt>
      <trkpt lat="42.9754" lon="1.21039">
        <ele>616.40002441406</ele>
        <time>2021-07-03T11:12:22.000Z</time>
      </trkpt>
      <trkpt lat="42.9754" lon="1.21023">
        <ele>615.59997558594</ele>
        <time>2021-07-03T11:12:27.000Z</time>
      </trkpt>
      <trkpt lat="42.9754" lon="1.21005">
        <ele>615.40002441406</ele>
        <time>2021-07-03T11:12:34.000Z</time>
      </trkpt>
      <trkpt lat="42.97542" lon="1.2098">
        <ele>614.79998779297</ele>
        <time>2021-07-03T11:12:41.000Z</time>
      </trkpt>
      <trkpt lat="42.97541" lon="1.20972">
        <ele>614.59997558594</ele>
        <time>2021-07-03T11:12:43.000Z</time>
      </trkpt>
      <trkpt lat="42.97545" lon="1.20954">
        <ele>614.40002441406</ele>
        <time>2021-07-03T11:12:48.000Z</time>
      </trkpt>
      <trkpt lat="42.97546" lon="1.20942">
        <ele>614.40002441406</ele>
        <time>2021-07-03T11:12:51.000Z</time>
      </trkpt>
      <trkpt lat="42.97551" lon="1.20926">
        <ele>614.40002441406</ele>
        <time>2021-07-03T11:12:56.000Z</time>
      </trkpt>
      <trkpt lat="42.97554" lon="1.209">
        <ele>614.40002441406</ele>
        <time>2021-07-03T11:13:03.000Z</time>
      </trkpt>
      <trkpt lat="42.97553" lon="1.2089">
        <ele>614.40002441406</ele>
        <time>2021-07-03T11:13:06.000Z</time>
      </trkpt>
      <trkpt lat="42.97555" lon="1.20876">
        <ele>614.40002441406</ele>
        <time>2021-07-03T11:13:10.000Z</time>
      </trkpt>
      <trkpt lat="42.9756" lon="1.20852">
        <ele>614.40002441406</ele>
        <time>2021-07-03T11:13:17.000Z</time>
      </trkpt>
      <trkpt lat="42.97561" lon="1.2083">
        <ele>614.20001220703</ele>
        <time>2021-07-03T11:13:24.000Z</time>
      </trkpt>
      <trkpt lat="42.97559" lon="1.20808">
        <ele>613.79998779297</ele>
        <time>2021-07-03T11:13:31.000Z</time>
      </trkpt>
      <trkpt lat="42.97554" lon="1.20793">
        <ele>613.40002441406</ele>
        <time>2021-07-03T11:13:35.000Z</time>
      </trkpt>
      <trkpt lat="42.97554" lon="1.20789">
        <ele>613.20001220703</ele>
        <time>2021-07-03T11:13:36.000Z</time>
      </trkpt>
      <trkpt lat="42.97555" lon="1.20787">
        <ele>613.20001220703</ele>
        <time>2021-07-03T11:13:37.000Z</time>
      </trkpt>
      <trkpt lat="42.97557" lon="1.20776">
        <ele>612.79998779297</ele>
        <time>2021-07-03T11:13:40.000Z</time>
      </trkpt>
      <trkpt lat="42.97562" lon="1.2076">
        <ele>606.59997558594</ele>
        <time>2021-07-03T11:13:45.000Z</time>
      </trkpt>
      <trkpt lat="42.97564" lon="1.20757">
        <ele>603.40002441406</ele>
        <time>2021-07-03T11:13:46.000Z</time>
      </trkpt>
      <trkpt lat="42.97566" lon="1.20753">
        <ele>601.59997558594</ele>
        <time>2021-07-03T11:13:47.000Z</time>
      </trkpt>
      <trkpt lat="42.97568" lon="1.20751">
        <ele>600.20001220703</ele>
        <time>2021-07-03T11:13:48.000Z</time>
      </trkpt>
      <trkpt lat="42.97571" lon="1.20744">
        <ele>599</ele>
        <time>2021-07-03T11:13:50.000Z</time>
      </trkpt>
      <trkpt lat="42.97573" lon="1.20736">
        <ele>597.79998779297</ele>
        <time>2021-07-03T11:13:53.000Z</time>
      </trkpt>
      <trkpt lat="42.97572" lon="1.20734">
        <ele>597.20001220703</ele>
        <time>2021-07-03T11:13:54.000Z</time>
      </trkpt>
      <trkpt lat="42.9757" lon="1.20732">
        <ele>596.40002441406</ele>
        <time>2021-07-03T11:13:55.000Z</time>
      </trkpt>
      <trkpt lat="42.97566" lon="1.20727">
        <ele>595.40002441406</ele>
        <time>2021-07-03T11:13:57.000Z</time>
      </trkpt>
      <trkpt lat="42.97559" lon="1.20719">
        <ele>594.20001220703</ele>
        <time>2021-07-03T11:14:01.000Z</time>
      </trkpt>
      <trkpt lat="42.97553" lon="1.20712">
        <ele>593.20001220703</ele>
        <time>2021-07-03T11:14:05.000Z</time>
      </trkpt>
      <trkpt lat="42.97551" lon="1.20709">
        <ele>593</ele>
        <time>2021-07-03T11:14:06.000Z</time>
      </trkpt>
      <trkpt lat="42.97548" lon="1.20704">
        <ele>591.79998779297</ele>
        <time>2021-07-03T11:14:08.000Z</time>
      </trkpt>
      <trkpt lat="42.97545" lon="1.20694">
        <ele>590.59997558594</ele>
        <time>2021-07-03T11:14:11.000Z</time>
      </trkpt>
      <trkpt lat="42.97544" lon="1.20692">
        <ele>590.20001220703</ele>
        <time>2021-07-03T11:14:12.000Z</time>
      </trkpt>
      <trkpt lat="42.9754" lon="1.20685">
        <ele>589.40002441406</ele>
        <time>2021-07-03T11:14:14.000Z</time>
      </trkpt>
      <trkpt lat="42.97536" lon="1.20678">
        <ele>588.20001220703</ele>
        <time>2021-07-03T11:14:16.000Z</time>
      </trkpt>
      <trkpt lat="42.97533" lon="1.20673">
        <ele>587.59997558594</ele>
        <time>2021-07-03T11:14:18.000Z</time>
      </trkpt>
      <trkpt lat="42.9753" lon="1.20668">
        <ele>587.20001220703</ele>
        <time>2021-07-03T11:14:20.000Z</time>
      </trkpt>
      <trkpt lat="42.97527" lon="1.20659">
        <ele>586</ele>
        <time>2021-07-03T11:14:23.000Z</time>
      </trkpt>
      <trkpt lat="42.97526" lon="1.20653">
        <ele>585</ele>
        <time>2021-07-03T11:14:25.000Z</time>
      </trkpt>
      <trkpt lat="42.97525" lon="1.2065">
        <ele>584.20001220703</ele>
        <time>2021-07-03T11:14:26.000Z</time>
      </trkpt>
      <trkpt lat="42.97523" lon="1.20643">
        <ele>583</ele>
        <time>2021-07-03T11:14:29.000Z</time>
      </trkpt>
      <trkpt lat="42.97521" lon="1.20635">
        <ele>581.59997558594</ele>
        <time>2021-07-03T11:14:32.000Z</time>
      </trkpt>
      <trkpt lat="42.9752" lon="1.20626">
        <ele>580.59997558594</ele>
        <time>2021-07-03T11:14:35.000Z</time>
      </trkpt>
      <trkpt lat="42.97523" lon="1.20617">
        <ele>580</ele>
        <time>2021-07-03T11:14:38.000Z</time>
      </trkpt>
      <trkpt lat="42.97525" lon="1.20609">
        <ele>579.40002441406</ele>
        <time>2021-07-03T11:14:40.000Z</time>
      </trkpt>
      <trkpt lat="42.97529" lon="1.2059">
        <ele>578.40002441406</ele>
        <time>2021-07-03T11:14:45.000Z</time>
      </trkpt>
      <trkpt lat="42.97538" lon="1.20569">
        <ele>578.59997558594</ele>
        <time>2021-07-03T11:14:51.000Z</time>
      </trkpt>
      <trkpt lat="42.97545" lon="1.20548">
        <ele>578.59997558594</ele>
        <time>2021-07-03T11:14:56.000Z</time>
      </trkpt>
      <trkpt lat="42.97545" lon="1.20543">
        <ele>578.59997558594</ele>
        <time>2021-07-03T11:14:57.000Z</time>
      </trkpt>
      <trkpt lat="42.97549" lon="1.20523">
        <ele>578</ele>
        <time>2021-07-03T11:15:03.000Z</time>
      </trkpt>
      <trkpt lat="42.97555" lon="1.20503">
        <ele>577.79998779297</ele>
        <time>2021-07-03T11:15:09.000Z</time>
      </trkpt>
      <trkpt lat="42.97559" lon="1.20482">
        <ele>577.59997558594</ele>
        <time>2021-07-03T11:15:16.000Z</time>
      </trkpt>
      <trkpt lat="42.97562" lon="1.20475">
        <ele>577.40002441406</ele>
        <time>2021-07-03T11:15:19.000Z</time>
      </trkpt>
      <trkpt lat="42.97567" lon="1.20467">
        <ele>577.40002441406</ele>
        <time>2021-07-03T11:15:22.000Z</time>
      </trkpt>
      <trkpt lat="42.97575" lon="1.20447">
        <ele>577.59997558594</ele>
        <time>2021-07-03T11:15:28.000Z</time>
      </trkpt>
      <trkpt lat="42.97587" lon="1.20427">
        <ele>578.20001220703</ele>
        <time>2021-07-03T11:15:35.000Z</time>
      </trkpt>
      <trkpt lat="42.97588" lon="1.20424">
        <ele>578.40002441406</ele>
        <time>2021-07-03T11:15:36.000Z</time>
      </trkpt>
      <trkpt lat="42.97595" lon="1.20402">
        <ele>578.79998779297</ele>
        <time>2021-07-03T11:15:42.000Z</time>
      </trkpt>
      <trkpt lat="42.97602" lon="1.2038">
        <ele>579</ele>
        <time>2021-07-03T11:15:49.000Z</time>
      </trkpt>
      <trkpt lat="42.97613" lon="1.20363">
        <ele>578.20001220703</ele>
        <time>2021-07-03T11:15:56.000Z</time>
      </trkpt>
      <trkpt lat="42.9762" lon="1.20347">
        <ele>578.79998779297</ele>
        <time>2021-07-03T11:16:02.000Z</time>
      </trkpt>
      <trkpt lat="42.97629" lon="1.20323">
        <ele>579</ele>
        <time>2021-07-03T11:16:08.000Z</time>
      </trkpt>
      <trkpt lat="42.97637" lon="1.20301">
        <ele>578.79998779297</ele>
        <time>2021-07-03T11:16:14.000Z</time>
      </trkpt>
      <trkpt lat="42.97647" lon="1.20278">
        <ele>578.59997558594</ele>
        <time>2021-07-03T11:16:21.000Z</time>
      </trkpt>
      <trkpt lat="42.97655" lon="1.20252">
        <ele>578.40002441406</ele>
        <time>2021-07-03T11:16:27.000Z</time>
      </trkpt>
      <trkpt lat="42.97663" lon="1.20231">
        <ele>577.20001220703</ele>
        <time>2021-07-03T11:16:33.000Z</time>
      </trkpt>
      <trkpt lat="42.97664" lon="1.20227">
        <ele>577</ele>
        <time>2021-07-03T11:16:34.000Z</time>
      </trkpt>
      <trkpt lat="42.97669" lon="1.20215">
        <ele>576</ele>
        <time>2021-07-03T11:16:38.000Z</time>
      </trkpt>
      <trkpt lat="42.97672" lon="1.20211">
        <ele>575.79998779297</ele>
        <time>2021-07-03T11:16:40.000Z</time>
      </trkpt>
      <trkpt lat="42.97683" lon="1.20194">
        <ele>575.79998779297</ele>
        <time>2021-07-03T11:16:46.000Z</time>
      </trkpt>
      <trkpt lat="42.97693" lon="1.20171">
        <ele>576</ele>
        <time>2021-07-03T11:16:53.000Z</time>
      </trkpt>
      <trkpt lat="42.97703" lon="1.2015">
        <ele>575.20001220703</ele>
        <time>2021-07-03T11:17:00.000Z</time>
      </trkpt>
      <trkpt lat="42.97705" lon="1.20148">
        <ele>575.20001220703</ele>
        <time>2021-07-03T11:17:01.000Z</time>
      </trkpt>
      <trkpt lat="42.97706" lon="1.20145">
        <ele>574.79998779297</ele>
        <time>2021-07-03T11:17:02.000Z</time>
      </trkpt>
      <trkpt lat="42.97719" lon="1.20125">
        <ele>575.20001220703</ele>
        <time>2021-07-03T11:17:10.000Z</time>
      </trkpt>
      <trkpt lat="42.97733" lon="1.20107">
        <ele>575.59997558594</ele>
        <time>2021-07-03T11:17:18.000Z</time>
      </trkpt>
      <trkpt lat="42.97735" lon="1.20104">
        <ele>575.59997558594</ele>
        <time>2021-07-03T11:17:19.000Z</time>
      </trkpt>
      <trkpt lat="42.97748" lon="1.20088">
        <ele>574.20001220703</ele>
        <time>2021-07-03T11:17:26.000Z</time>
      </trkpt>
      <trkpt lat="42.9775" lon="1.20086">
        <ele>573.79998779297</ele>
        <time>2021-07-03T11:17:27.000Z</time>
      </trkpt>
      <trkpt lat="42.97755" lon="1.2008">
        <ele>572.59997558594</ele>
        <time>2021-07-03T11:17:30.000Z</time>
      </trkpt>
      <trkpt lat="42.97761" lon="1.20074">
        <ele>571.40002441406</ele>
        <time>2021-07-03T11:17:33.000Z</time>
      </trkpt>
      <trkpt lat="42.97766" lon="1.20069">
        <ele>570</ele>
        <time>2021-07-03T11:17:36.000Z</time>
      </trkpt>
      <trkpt lat="42.97768" lon="1.20067">
        <ele>569.59997558594</ele>
        <time>2021-07-03T11:17:37.000Z</time>
      </trkpt>
      <trkpt lat="42.9777" lon="1.20065">
        <ele>569</ele>
        <time>2021-07-03T11:17:38.000Z</time>
      </trkpt>
      <trkpt lat="42.97775" lon="1.20062">
        <ele>568</ele>
        <time>2021-07-03T11:17:40.000Z</time>
      </trkpt>
      <trkpt lat="42.97779" lon="1.20058">
        <ele>566.79998779297</ele>
        <time>2021-07-03T11:17:42.000Z</time>
      </trkpt>
      <trkpt lat="42.97781" lon="1.20047">
        <ele>565.59997558594</ele>
        <time>2021-07-03T11:17:45.000Z</time>
      </trkpt>
      <trkpt lat="42.97784" lon="1.20039">
        <ele>564.40002441406</ele>
        <time>2021-07-03T11:17:48.000Z</time>
      </trkpt>
      <trkpt lat="42.97784" lon="1.20032">
        <ele>563.40002441406</ele>
        <time>2021-07-03T11:17:51.000Z</time>
      </trkpt>
      <trkpt lat="42.97784" lon="1.20029">
        <ele>563</ele>
        <time>2021-07-03T11:17:52.000Z</time>
      </trkpt>
      <trkpt lat="42.97784" lon="1.20021">
        <ele>562.20001220703</ele>
        <time>2021-07-03T11:17:55.000Z</time>
      </trkpt>
      <trkpt lat="42.97785" lon="1.20019">
        <ele>562</ele>
        <time>2021-07-03T11:17:56.000Z</time>
      </trkpt>
      <trkpt lat="42.97786" lon="1.20018">
        <ele>561.59997558594</ele>
        <time>2021-07-03T11:17:57.000Z</time>
      </trkpt>
      <trkpt lat="42.97788" lon="1.20017">
        <ele>561.20001220703</ele>
        <time>2021-07-03T11:17:58.000Z</time>
      </trkpt>
      <trkpt lat="42.97792" lon="1.20016">
        <ele>559.79998779297</ele>
        <time>2021-07-03T11:18:01.000Z</time>
      </trkpt>
      <trkpt lat="42.97793" lon="1.20017">
        <ele>559.59997558594</ele>
        <time>2021-07-03T11:18:02.000Z</time>
      </trkpt>
      <trkpt lat="42.97796" lon="1.20022">
        <ele>557.79998779297</ele>
        <time>2021-07-03T11:18:06.000Z</time>
      </trkpt>
      <trkpt lat="42.97798" lon="1.20023">
        <ele>557</ele>
        <time>2021-07-03T11:18:08.000Z</time>
      </trkpt>
      <trkpt lat="42.97801" lon="1.20028">
        <ele>555.79998779297</ele>
        <time>2021-07-03T11:18:11.000Z</time>
      </trkpt>
      <trkpt lat="42.97803" lon="1.20029">
        <ele>555.20001220703</ele>
        <time>2021-07-03T11:18:12.000Z</time>
      </trkpt>
      <trkpt lat="42.97804" lon="1.2003">
        <ele>554.40002441406</ele>
        <time>2021-07-03T11:18:13.000Z</time>
      </trkpt>
      <trkpt lat="42.97807" lon="1.20033">
        <ele>553.40002441406</ele>
        <time>2021-07-03T11:18:16.000Z</time>
      </trkpt>
      <trkpt lat="42.9781" lon="1.20035">
        <ele>552.20001220703</ele>
        <time>2021-07-03T11:18:18.000Z</time>
      </trkpt>
      <trkpt lat="42.97812" lon="1.20036">
        <ele>551.59997558594</ele>
        <time>2021-07-03T11:18:19.000Z</time>
      </trkpt>
      <trkpt lat="42.97814" lon="1.20038">
        <ele>550.40002441406</ele>
        <time>2021-07-03T11:18:20.000Z</time>
      </trkpt>
      <trkpt lat="42.9782" lon="1.20044">
        <ele>548.79998779297</ele>
        <time>2021-07-03T11:18:24.000Z</time>
      </trkpt>
      <trkpt lat="42.97821" lon="1.20046">
        <ele>548</ele>
        <time>2021-07-03T11:18:25.000Z</time>
      </trkpt>
      <trkpt lat="42.97823" lon="1.20047">
        <ele>547.40002441406</ele>
        <time>2021-07-03T11:18:26.000Z</time>
      </trkpt>
      <trkpt lat="42.97825" lon="1.20049">
        <ele>546.79998779297</ele>
        <time>2021-07-03T11:18:27.000Z</time>
      </trkpt>
      <trkpt lat="42.97828" lon="1.20051">
        <ele>546.40002441406</ele>
        <time>2021-07-03T11:18:28.000Z</time>
      </trkpt>
      <trkpt lat="42.97834" lon="1.20055">
        <ele>545.40002441406</ele>
        <time>2021-07-03T11:18:30.000Z</time>
      </trkpt>
      <trkpt lat="42.97837" lon="1.20057">
        <ele>545.20001220703</ele>
        <time>2021-07-03T11:18:31.000Z</time>
      </trkpt>
      <trkpt lat="42.97839" lon="1.2006">
        <ele>544.59997558594</ele>
        <time>2021-07-03T11:18:32.000Z</time>
      </trkpt>
      <trkpt lat="42.97842" lon="1.20064">
        <ele>544</ele>
        <time>2021-07-03T11:18:33.000Z</time>
      </trkpt>
      <trkpt lat="42.97852" lon="1.20083">
        <ele>543</ele>
        <time>2021-07-03T11:18:38.000Z</time>
      </trkpt>
      <trkpt lat="42.97856" lon="1.2011">
        <ele>543.20001220703</ele>
        <time>2021-07-03T11:18:44.000Z</time>
      </trkpt>
      <trkpt lat="42.97857" lon="1.20115">
        <ele>543.40002441406</ele>
        <time>2021-07-03T11:18:45.000Z</time>
      </trkpt>
      <trkpt lat="42.97856" lon="1.20123">
        <ele>544.40002441406</ele>
        <time>2021-07-03T11:18:47.000Z</time>
      </trkpt>
      <trkpt lat="42.97856" lon="1.20139">
        <ele>545.20001220703</ele>
        <time>2021-07-03T11:18:51.000Z</time>
      </trkpt>
      <trkpt lat="42.97857" lon="1.20145">
        <ele>545.20001220703</ele>
        <time>2021-07-03T11:18:53.000Z</time>
      </trkpt>
      <trkpt lat="42.97857" lon="1.20151">
        <ele>545.40002441406</ele>
        <time>2021-07-03T11:18:55.000Z</time>
      </trkpt>
      <trkpt lat="42.97855" lon="1.20166">
        <ele>545.59997558594</ele>
        <time>2021-07-03T11:19:00.000Z</time>
      </trkpt>
      <trkpt lat="42.97855" lon="1.20168">
        <ele>545.59997558594</ele>
        <time>2021-07-03T11:19:01.000Z</time>
      </trkpt>
      <trkpt lat="42.97857" lon="1.20171">
        <ele>545.59997558594</ele>
        <time>2021-07-03T11:19:03.000Z</time>
      </trkpt>
      <trkpt lat="42.97862" lon="1.20171">
        <ele>545.40002441406</ele>
        <time>2021-07-03T11:19:05.000Z</time>
      </trkpt>
      <trkpt lat="42.97871" lon="1.2017">
        <ele>544</ele>
        <time>2021-07-03T11:19:08.000Z</time>
      </trkpt>
      <trkpt lat="42.97879" lon="1.20166">
        <ele>543</ele>
        <time>2021-07-03T11:19:11.000Z</time>
      </trkpt>
      <trkpt lat="42.97881" lon="1.20165">
        <ele>542.79998779297</ele>
        <time>2021-07-03T11:19:12.000Z</time>
      </trkpt>
      <trkpt lat="42.97886" lon="1.2016">
        <ele>541.59997558594</ele>
        <time>2021-07-03T11:19:15.000Z</time>
      </trkpt>
      <trkpt lat="42.97891" lon="1.20155">
        <ele>540.40002441406</ele>
        <time>2021-07-03T11:19:18.000Z</time>
      </trkpt>
      <trkpt lat="42.97893" lon="1.20153">
        <ele>540</ele>
        <time>2021-07-03T11:19:19.000Z</time>
      </trkpt>
      <trkpt lat="42.97894" lon="1.20152">
        <ele>539.40002441406</ele>
        <time>2021-07-03T11:19:20.000Z</time>
      </trkpt>
      <trkpt lat="42.97899" lon="1.20149">
        <ele>538.20001220703</ele>
        <time>2021-07-03T11:19:22.000Z</time>
      </trkpt>
      <trkpt lat="42.97905" lon="1.20145">
        <ele>536.59997558594</ele>
        <time>2021-07-03T11:19:25.000Z</time>
      </trkpt>
      <trkpt lat="42.9791" lon="1.20142">
        <ele>535.59997558594</ele>
        <time>2021-07-03T11:19:27.000Z</time>
      </trkpt>
      <trkpt lat="42.97917" lon="1.20137">
        <ele>534.40002441406</ele>
        <time>2021-07-03T11:19:30.000Z</time>
      </trkpt>
      <trkpt lat="42.97924" lon="1.20131">
        <ele>533.40002441406</ele>
        <time>2021-07-03T11:19:33.000Z</time>
      </trkpt>
      <trkpt lat="42.97926" lon="1.20129">
        <ele>533</ele>
        <time>2021-07-03T11:19:34.000Z</time>
      </trkpt>
      <trkpt lat="42.97941" lon="1.20123">
        <ele>532.20001220703</ele>
        <time>2021-07-03T11:19:40.000Z</time>
      </trkpt>
      <trkpt lat="42.9796" lon="1.20115">
        <ele>531.40002441406</ele>
        <time>2021-07-03T11:19:47.000Z</time>
      </trkpt>
      <trkpt lat="42.97979" lon="1.20104">
        <ele>531.79998779297</ele>
        <time>2021-07-03T11:19:54.000Z</time>
      </trkpt>
      <trkpt lat="42.97981" lon="1.20102">
        <ele>532.20001220703</ele>
        <time>2021-07-03T11:19:55.000Z</time>
      </trkpt>
      <trkpt lat="42.97984" lon="1.20097">
        <ele>532.79998779297</ele>
        <time>2021-07-03T11:19:57.000Z</time>
      </trkpt>
      <trkpt lat="42.97985" lon="1.2009">
        <ele>533.20001220703</ele>
        <time>2021-07-03T11:19:59.000Z</time>
      </trkpt>
      <trkpt lat="42.97982" lon="1.20069">
        <ele>532.79998779297</ele>
        <time>2021-07-03T11:20:05.000Z</time>
      </trkpt>
      <trkpt lat="42.9798" lon="1.20057">
        <ele>532.20001220703</ele>
        <time>2021-07-03T11:20:08.000Z</time>
      </trkpt>
      <trkpt lat="42.97978" lon="1.20051">
        <ele>531.40002441406</ele>
        <time>2021-07-03T11:20:10.000Z</time>
      </trkpt>
      <trkpt lat="42.97978" lon="1.20048">
        <ele>531</ele>
        <time>2021-07-03T11:20:11.000Z</time>
      </trkpt>
      <trkpt lat="42.97977" lon="1.20042">
        <ele>529.40002441406</ele>
        <time>2021-07-03T11:20:13.000Z</time>
      </trkpt>
      <trkpt lat="42.97976" lon="1.20037">
        <ele>527.40002441406</ele>
        <time>2021-07-03T11:20:15.000Z</time>
      </trkpt>
      <trkpt lat="42.97977" lon="1.20031">
        <ele>527</ele>
        <time>2021-07-03T11:20:17.000Z</time>
      </trkpt>
      <trkpt lat="42.97979" lon="1.20026">
        <ele>526.20001220703</ele>
        <time>2021-07-03T11:20:19.000Z</time>
      </trkpt>
      <trkpt lat="42.97979" lon="1.20017">
        <ele>525.20001220703</ele>
        <time>2021-07-03T11:20:22.000Z</time>
      </trkpt>
      <trkpt lat="42.9798" lon="1.20009">
        <ele>524.59997558594</ele>
        <time>2021-07-03T11:20:24.000Z</time>
      </trkpt>
      <trkpt lat="42.97981" lon="1.20006">
        <ele>524</ele>
        <time>2021-07-03T11:20:25.000Z</time>
      </trkpt>
      <trkpt lat="42.97984" lon="1.19992">
        <ele>522.79998779297</ele>
        <time>2021-07-03T11:20:29.000Z</time>
      </trkpt>
      <trkpt lat="42.97985" lon="1.19982">
        <ele>521.59997558594</ele>
        <time>2021-07-03T11:20:32.000Z</time>
      </trkpt>
      <trkpt lat="42.97987" lon="1.19972">
        <ele>520.40002441406</ele>
        <time>2021-07-03T11:20:35.000Z</time>
      </trkpt>
      <trkpt lat="42.9799" lon="1.19963">
        <ele>519.20001220703</ele>
        <time>2021-07-03T11:20:38.000Z</time>
      </trkpt>
      <trkpt lat="42.97992" lon="1.19946">
        <ele>517.79998779297</ele>
        <time>2021-07-03T11:20:42.000Z</time>
      </trkpt>
      <trkpt lat="42.97993" lon="1.19939">
        <ele>516.79998779297</ele>
        <time>2021-07-03T11:20:44.000Z</time>
      </trkpt>
      <trkpt lat="42.97994" lon="1.19936">
        <ele>516.59997558594</ele>
        <time>2021-07-03T11:20:45.000Z</time>
      </trkpt>
      <trkpt lat="42.97997" lon="1.19925">
        <ele>515.79998779297</ele>
        <time>2021-07-03T11:20:48.000Z</time>
      </trkpt>
      <trkpt lat="42.98" lon="1.19911">
        <ele>514.59997558594</ele>
        <time>2021-07-03T11:20:52.000Z</time>
      </trkpt>
      <trkpt lat="42.98002" lon="1.19902">
        <ele>513.59997558594</ele>
        <time>2021-07-03T11:20:55.000Z</time>
      </trkpt>
      <trkpt lat="42.98004" lon="1.1989">
        <ele>513</ele>
        <time>2021-07-03T11:20:59.000Z</time>
      </trkpt>
      <trkpt lat="42.98007" lon="1.19873">
        <ele>512.40002441406</ele>
        <time>2021-07-03T11:21:04.000Z</time>
      </trkpt>
      <trkpt lat="42.98009" lon="1.19867">
        <ele>511.20001220703</ele>
        <time>2021-07-03T11:21:06.000Z</time>
      </trkpt>
      <trkpt lat="42.98011" lon="1.19859">
        <ele>510.20001220703</ele>
        <time>2021-07-03T11:21:08.000Z</time>
      </trkpt>
      <trkpt lat="42.98016" lon="1.19851">
        <ele>509</ele>
        <time>2021-07-03T11:21:11.000Z</time>
      </trkpt>
      <trkpt lat="42.98019" lon="1.19846">
        <ele>508.60000610352</ele>
        <time>2021-07-03T11:21:13.000Z</time>
      </trkpt>
      <trkpt lat="42.98023" lon="1.1984">
        <ele>507.60000610352</ele>
        <time>2021-07-03T11:21:15.000Z</time>
      </trkpt>
      <trkpt lat="42.98029" lon="1.19835">
        <ele>506.20001220703</ele>
        <time>2021-07-03T11:21:18.000Z</time>
      </trkpt>
      <trkpt lat="42.98033" lon="1.19833">
        <ele>505.39999389648</ele>
        <time>2021-07-03T11:21:20.000Z</time>
      </trkpt>
      <trkpt lat="42.98035" lon="1.19833">
        <ele>505</ele>
        <time>2021-07-03T11:21:21.000Z</time>
      </trkpt>
      <trkpt lat="42.9804" lon="1.19832">
        <ele>503.79998779297</ele>
        <time>2021-07-03T11:21:23.000Z</time>
      </trkpt>
      <trkpt lat="42.98049" lon="1.19833">
        <ele>502.39999389648</ele>
        <time>2021-07-03T11:21:26.000Z</time>
      </trkpt>
      <trkpt lat="42.98052" lon="1.19833">
        <ele>501.79998779297</ele>
        <time>2021-07-03T11:21:27.000Z</time>
      </trkpt>
      <trkpt lat="42.98054" lon="1.19834">
        <ele>501.20001220703</ele>
        <time>2021-07-03T11:21:28.000Z</time>
      </trkpt>
      <trkpt lat="42.98064" lon="1.1984">
        <ele>499.79998779297</ele>
        <time>2021-07-03T11:21:33.000Z</time>
      </trkpt>
      <trkpt lat="42.98066" lon="1.19844">
        <ele>498.60000610352</ele>
        <time>2021-07-03T11:21:35.000Z</time>
      </trkpt>
      <trkpt lat="42.98073" lon="1.19853">
        <ele>497.60000610352</ele>
        <time>2021-07-03T11:21:39.000Z</time>
      </trkpt>
      <trkpt lat="42.98078" lon="1.19862">
        <ele>497.20001220703</ele>
        <time>2021-07-03T11:21:42.000Z</time>
      </trkpt>
      <trkpt lat="42.98085" lon="1.19868">
        <ele>496.20001220703</ele>
        <time>2021-07-03T11:21:45.000Z</time>
      </trkpt>
      <trkpt lat="42.98095" lon="1.19874">
        <ele>495</ele>
        <time>2021-07-03T11:21:49.000Z</time>
      </trkpt>
      <trkpt lat="42.98105" lon="1.19881">
        <ele>493.60000610352</ele>
        <time>2021-07-03T11:21:53.000Z</time>
      </trkpt>
      <trkpt lat="42.98116" lon="1.19887">
        <ele>492.79998779297</ele>
        <time>2021-07-03T11:21:57.000Z</time>
      </trkpt>
      <trkpt lat="42.98123" lon="1.1989">
        <ele>492.60000610352</ele>
        <time>2021-07-03T11:22:00.000Z</time>
      </trkpt>
      <trkpt lat="42.98127" lon="1.19895">
        <ele>491.79998779297</ele>
        <time>2021-07-03T11:22:03.000Z</time>
      </trkpt>
      <trkpt lat="42.98129" lon="1.19897">
        <ele>491.60000610352</ele>
        <time>2021-07-03T11:22:04.000Z</time>
      </trkpt>
      <trkpt lat="42.98141" lon="1.19911">
        <ele>490.60000610352</ele>
        <time>2021-07-03T11:22:10.000Z</time>
      </trkpt>
      <trkpt lat="42.98148" lon="1.19918">
        <ele>489.39999389648</ele>
        <time>2021-07-03T11:22:13.000Z</time>
      </trkpt>
      <trkpt lat="42.98156" lon="1.19928">
        <ele>488</ele>
        <time>2021-07-03T11:22:17.000Z</time>
      </trkpt>
      <trkpt lat="42.98159" lon="1.19931">
        <ele>487.60000610352</ele>
        <time>2021-07-03T11:22:18.000Z</time>
      </trkpt>
      <trkpt lat="42.98164" lon="1.19936">
        <ele>486.79998779297</ele>
        <time>2021-07-03T11:22:20.000Z</time>
      </trkpt>
      <trkpt lat="42.98174" lon="1.19948">
        <ele>485.60000610352</ele>
        <time>2021-07-03T11:22:24.000Z</time>
      </trkpt>
      <trkpt lat="42.98177" lon="1.19952">
        <ele>485</ele>
        <time>2021-07-03T11:22:26.000Z</time>
      </trkpt>
      <trkpt lat="42.98181" lon="1.19956">
        <ele>484.20001220703</ele>
        <time>2021-07-03T11:22:28.000Z</time>
      </trkpt>
      <trkpt lat="42.98188" lon="1.19964">
        <ele>483.20001220703</ele>
        <time>2021-07-03T11:22:31.000Z</time>
      </trkpt>
      <trkpt lat="42.98192" lon="1.1997">
        <ele>482.60000610352</ele>
        <time>2021-07-03T11:22:33.000Z</time>
      </trkpt>
      <trkpt lat="42.98195" lon="1.19976">
        <ele>481.79998779297</ele>
        <time>2021-07-03T11:22:35.000Z</time>
      </trkpt>
      <trkpt lat="42.98202" lon="1.19986">
        <ele>480.60000610352</ele>
        <time>2021-07-03T11:22:39.000Z</time>
      </trkpt>
      <trkpt lat="42.98205" lon="1.1999">
        <ele>479.79998779297</ele>
        <time>2021-07-03T11:22:41.000Z</time>
      </trkpt>
      <trkpt lat="42.98207" lon="1.19992">
        <ele>479.39999389648</ele>
        <time>2021-07-03T11:22:42.000Z</time>
      </trkpt>
      <trkpt lat="42.98211" lon="1.19999">
        <ele>478.20001220703</ele>
        <time>2021-07-03T11:22:45.000Z</time>
      </trkpt>
      <trkpt lat="42.98215" lon="1.20006">
        <ele>477</ele>
        <time>2021-07-03T11:22:48.000Z</time>
      </trkpt>
      <trkpt lat="42.98217" lon="1.20008">
        <ele>476.79998779297</ele>
        <time>2021-07-03T11:22:49.000Z</time>
      </trkpt>
      <trkpt lat="42.98222" lon="1.20013">
        <ele>476</ele>
        <time>2021-07-03T11:22:51.000Z</time>
      </trkpt>
      <trkpt lat="42.98234" lon="1.20024">
        <ele>474.60000610352</ele>
        <time>2021-07-03T11:22:55.000Z</time>
      </trkpt>
      <trkpt lat="42.98236" lon="1.20027">
        <ele>474.20001220703</ele>
        <time>2021-07-03T11:22:56.000Z</time>
      </trkpt>
      <trkpt lat="42.9824" lon="1.20032">
        <ele>473.60000610352</ele>
        <time>2021-07-03T11:22:58.000Z</time>
      </trkpt>
      <trkpt lat="42.98249" lon="1.20041">
        <ele>472.20001220703</ele>
        <time>2021-07-03T11:23:02.000Z</time>
      </trkpt>
      <trkpt lat="42.98255" lon="1.20045">
        <ele>471.20001220703</ele>
        <time>2021-07-03T11:23:04.000Z</time>
      </trkpt>
      <trkpt lat="42.98257" lon="1.20047">
        <ele>470.79998779297</ele>
        <time>2021-07-03T11:23:05.000Z</time>
      </trkpt>
      <trkpt lat="42.98262" lon="1.20051">
        <ele>469.60000610352</ele>
        <time>2021-07-03T11:23:07.000Z</time>
      </trkpt>
      <trkpt lat="42.98264" lon="1.20053">
        <ele>469</ele>
        <time>2021-07-03T11:23:08.000Z</time>
      </trkpt>
      <trkpt lat="42.98267" lon="1.20057">
        <ele>468.39999389648</ele>
        <time>2021-07-03T11:23:10.000Z</time>
      </trkpt>
      <trkpt lat="42.98268" lon="1.2006">
        <ele>467.79998779297</ele>
        <time>2021-07-03T11:23:11.000Z</time>
      </trkpt>
      <trkpt lat="42.9827" lon="1.20065">
        <ele>467</ele>
        <time>2021-07-03T11:23:13.000Z</time>
      </trkpt>
      <trkpt lat="42.98275" lon="1.2007">
        <ele>465.79998779297</ele>
        <time>2021-07-03T11:23:16.000Z</time>
      </trkpt>
      <trkpt lat="42.98277" lon="1.20071">
        <ele>465.39999389648</ele>
        <time>2021-07-03T11:23:17.000Z</time>
      </trkpt>
      <trkpt lat="42.98282" lon="1.20076">
        <ele>464.20001220703</ele>
        <time>2021-07-03T11:23:19.000Z</time>
      </trkpt>
      <trkpt lat="42.98285" lon="1.20081">
        <ele>463.20001220703</ele>
        <time>2021-07-03T11:23:21.000Z</time>
      </trkpt>
      <trkpt lat="42.98287" lon="1.20086">
        <ele>462.60000610352</ele>
        <time>2021-07-03T11:23:23.000Z</time>
      </trkpt>
      <trkpt lat="42.98287" lon="1.20089">
        <ele>462</ele>
        <time>2021-07-03T11:23:24.000Z</time>
      </trkpt>
      <trkpt lat="42.98286" lon="1.20095">
        <ele>461</ele>
        <time>2021-07-03T11:23:26.000Z</time>
      </trkpt>
      <trkpt lat="42.98286" lon="1.20101">
        <ele>459.79998779297</ele>
        <time>2021-07-03T11:23:28.000Z</time>
      </trkpt>
      <trkpt lat="42.98287" lon="1.20109">
        <ele>458.39999389648</ele>
        <time>2021-07-03T11:23:30.000Z</time>
      </trkpt>
      <trkpt lat="42.98287" lon="1.20112">
        <ele>457.79998779297</ele>
        <time>2021-07-03T11:23:31.000Z</time>
      </trkpt>
      <trkpt lat="42.98288" lon="1.20114">
        <ele>457.39999389648</ele>
        <time>2021-07-03T11:23:32.000Z</time>
      </trkpt>
      <trkpt lat="42.9829" lon="1.20114">
        <ele>457.20001220703</ele>
        <time>2021-07-03T11:23:33.000Z</time>
      </trkpt>
      <trkpt lat="42.98301" lon="1.20112">
        <ele>456</ele>
        <time>2021-07-03T11:23:37.000Z</time>
      </trkpt>
      <trkpt lat="42.98305" lon="1.2011">
        <ele>455</ele>
        <time>2021-07-03T11:23:39.000Z</time>
      </trkpt>
      <trkpt lat="42.98308" lon="1.20109">
        <ele>454</ele>
        <time>2021-07-03T11:23:41.000Z</time>
      </trkpt>
      <trkpt lat="42.98316" lon="1.20107">
        <ele>452.79998779297</ele>
        <time>2021-07-03T11:23:44.000Z</time>
      </trkpt>
      <trkpt lat="42.98319" lon="1.20107">
        <ele>452.60000610352</ele>
        <time>2021-07-03T11:23:45.000Z</time>
      </trkpt>
      <trkpt lat="42.98338" lon="1.20101">
        <ele>452.20001220703</ele>
        <time>2021-07-03T11:23:52.000Z</time>
      </trkpt>
      <trkpt lat="42.98341" lon="1.20101">
        <ele>452.20001220703</ele>
        <time>2021-07-03T11:23:53.000Z</time>
      </trkpt>
      <trkpt lat="42.98358" lon="1.20093">
        <ele>452.20001220703</ele>
        <time>2021-07-03T11:23:59.000Z</time>
      </trkpt>
      <trkpt lat="42.98371" lon="1.20088">
        <ele>453.20001220703</ele>
        <time>2021-07-03T11:24:06.000Z</time>
      </trkpt>
      <trkpt lat="42.98375" lon="1.20084">
        <ele>454</ele>
        <time>2021-07-03T11:24:09.000Z</time>
      </trkpt>
      <trkpt lat="42.9838" lon="1.20078">
        <ele>455.39999389648</ele>
        <time>2021-07-03T11:24:12.000Z</time>
      </trkpt>
      <trkpt lat="42.98382" lon="1.20076">
        <ele>455.60000610352</ele>
        <time>2021-07-03T11:24:13.000Z</time>
      </trkpt>
      <trkpt lat="42.98389" lon="1.2007">
        <ele>456.39999389648</ele>
        <time>2021-07-03T11:24:16.000Z</time>
      </trkpt>
      <trkpt lat="42.98398" lon="1.20062">
        <ele>457.39999389648</ele>
        <time>2021-07-03T11:24:20.000Z</time>
      </trkpt>
      <trkpt lat="42.98401" lon="1.20059">
        <ele>457.39999389648</ele>
        <time>2021-07-03T11:24:21.000Z</time>
      </trkpt>
      <trkpt lat="42.98414" lon="1.20054">
        <ele>458.39999389648</ele>
        <time>2021-07-03T11:24:27.000Z</time>
      </trkpt>
      <trkpt lat="42.98416" lon="1.20054">
        <ele>458.60000610352</ele>
        <time>2021-07-03T11:24:28.000Z</time>
      </trkpt>
      <trkpt lat="42.9842" lon="1.20052">
        <ele>458.79998779297</ele>
        <time>2021-07-03T11:24:31.000Z</time>
      </trkpt>
      <trkpt lat="42.98427" lon="1.20049">
        <ele>459.39999389648</ele>
        <time>2021-07-03T11:24:34.000Z</time>
      </trkpt>
      <trkpt lat="42.98429" lon="1.20048">
        <ele>459.79998779297</ele>
        <time>2021-07-03T11:24:35.000Z</time>
      </trkpt>
      <trkpt lat="42.98436" lon="1.20043">
        <ele>460.79998779297</ele>
        <time>2021-07-03T11:24:38.000Z</time>
      </trkpt>
      <trkpt lat="42.98445" lon="1.20039">
        <ele>461.79998779297</ele>
        <time>2021-07-03T11:24:42.000Z</time>
      </trkpt>
      <trkpt lat="42.98449" lon="1.20038">
        <ele>462.20001220703</ele>
        <time>2021-07-03T11:24:44.000Z</time>
      </trkpt>
      <trkpt lat="42.98457" lon="1.20042">
        <ele>463</ele>
        <time>2021-07-03T11:24:48.000Z</time>
      </trkpt>
      <trkpt lat="42.98467" lon="1.20055">
        <ele>462.39999389648</ele>
        <time>2021-07-03T11:24:54.000Z</time>
      </trkpt>
      <trkpt lat="42.98479" lon="1.20071">
        <ele>461.60000610352</ele>
        <time>2021-07-03T11:25:01.000Z</time>
      </trkpt>
      <trkpt lat="42.98482" lon="1.20077">
        <ele>461.39999389648</ele>
        <time>2021-07-03T11:25:03.000Z</time>
      </trkpt>
      <trkpt lat="42.9849" lon="1.20088">
        <ele>460.79998779297</ele>
        <time>2021-07-03T11:25:07.000Z</time>
      </trkpt>
      <trkpt lat="42.98492" lon="1.20091">
        <ele>460.39999389648</ele>
        <time>2021-07-03T11:25:08.000Z</time>
      </trkpt>
      <trkpt lat="42.98497" lon="1.20096">
        <ele>459.60000610352</ele>
        <time>2021-07-03T11:25:10.000Z</time>
      </trkpt>
      <trkpt lat="42.98514" lon="1.20112">
        <ele>459</ele>
        <time>2021-07-03T11:25:17.000Z</time>
      </trkpt>
      <trkpt lat="42.9852" lon="1.20118">
        <ele>458.39999389648</ele>
        <time>2021-07-03T11:25:20.000Z</time>
      </trkpt>
      <trkpt lat="42.98525" lon="1.20122">
        <ele>458</ele>
        <time>2021-07-03T11:25:22.000Z</time>
      </trkpt>
      <trkpt lat="42.9853" lon="1.20125">
        <ele>457.39999389648</ele>
        <time>2021-07-03T11:25:24.000Z</time>
      </trkpt>
      <trkpt lat="42.98542" lon="1.20134">
        <ele>456.20001220703</ele>
        <time>2021-07-03T11:25:29.000Z</time>
      </trkpt>
      <trkpt lat="42.98545" lon="1.20136">
        <ele>456.20001220703</ele>
        <time>2021-07-03T11:25:30.000Z</time>
      </trkpt>
      <trkpt lat="42.98568" lon="1.2015">
        <ele>454.79998779297</ele>
        <time>2021-07-03T11:25:38.000Z</time>
      </trkpt>
      <trkpt lat="42.98571" lon="1.20152">
        <ele>454.39999389648</ele>
        <time>2021-07-03T11:25:39.000Z</time>
      </trkpt>
      <trkpt lat="42.98583" lon="1.2016">
        <ele>453.79998779297</ele>
        <time>2021-07-03T11:25:44.000Z</time>
      </trkpt>
      <trkpt lat="42.98591" lon="1.20163">
        <ele>453.79998779297</ele>
        <time>2021-07-03T11:25:47.000Z</time>
      </trkpt>
      <trkpt lat="42.986" lon="1.20169">
        <ele>452.60000610352</ele>
        <time>2021-07-03T11:25:51.000Z</time>
      </trkpt>
      <trkpt lat="42.9861" lon="1.20173">
        <ele>451.39999389648</ele>
        <time>2021-07-03T11:25:55.000Z</time>
      </trkpt>
      <trkpt lat="42.98629" lon="1.20184">
        <ele>450.79998779297</ele>
        <time>2021-07-03T11:26:02.000Z</time>
      </trkpt>
      <trkpt lat="42.98631" lon="1.20186">
        <ele>450.39999389648</ele>
        <time>2021-07-03T11:26:03.000Z</time>
      </trkpt>
      <trkpt lat="42.98633" lon="1.20187">
        <ele>450.20001220703</ele>
        <time>2021-07-03T11:26:04.000Z</time>
      </trkpt>
      <trkpt lat="42.98643" lon="1.20193">
        <ele>449</ele>
        <time>2021-07-03T11:26:08.000Z</time>
      </trkpt>
      <trkpt lat="42.9865" lon="1.20197">
        <ele>448.79998779297</ele>
        <time>2021-07-03T11:26:11.000Z</time>
      </trkpt>
      <trkpt lat="42.98664" lon="1.20206">
        <ele>448</ele>
        <time>2021-07-03T11:26:17.000Z</time>
      </trkpt>
      <trkpt lat="42.98668" lon="1.20209">
        <ele>447.39999389648</ele>
        <time>2021-07-03T11:26:19.000Z</time>
      </trkpt>
      <trkpt lat="42.98675" lon="1.20214">
        <ele>447</ele>
        <time>2021-07-03T11:26:22.000Z</time>
      </trkpt>
      <trkpt lat="42.98686" lon="1.20221">
        <ele>446</ele>
        <time>2021-07-03T11:26:27.000Z</time>
      </trkpt>
      <trkpt lat="42.98688" lon="1.20223">
        <ele>445.79998779297</ele>
        <time>2021-07-03T11:26:28.000Z</time>
      </trkpt>
      <trkpt lat="42.98703" lon="1.20234">
        <ele>444.39999389648</ele>
        <time>2021-07-03T11:26:34.000Z</time>
      </trkpt>
      <trkpt lat="42.98705" lon="1.20235">
        <ele>444.20001220703</ele>
        <time>2021-07-03T11:26:35.000Z</time>
      </trkpt>
      <trkpt lat="42.9872" lon="1.20247">
        <ele>443.39999389648</ele>
        <time>2021-07-03T11:26:42.000Z</time>
      </trkpt>
      <trkpt lat="42.98725" lon="1.20251">
        <ele>443</ele>
        <time>2021-07-03T11:26:44.000Z</time>
      </trkpt>
      <trkpt lat="42.98732" lon="1.20254">
        <ele>442.20001220703</ele>
        <time>2021-07-03T11:26:47.000Z</time>
      </trkpt>
      <trkpt lat="42.98743" lon="1.20257">
        <ele>441.39999389648</ele>
        <time>2021-07-03T11:26:52.000Z</time>
      </trkpt>
      <trkpt lat="42.98746" lon="1.20257">
        <ele>441</ele>
        <time>2021-07-03T11:26:53.000Z</time>
      </trkpt>
      <trkpt lat="42.98762" lon="1.20258">
        <ele>440.60000610352</ele>
        <time>2021-07-03T11:26:58.000Z</time>
      </trkpt>
      <trkpt lat="42.98773" lon="1.20259">
        <ele>440</ele>
        <time>2021-07-03T11:27:01.000Z</time>
      </trkpt>
      <trkpt lat="42.98794" lon="1.2026">
        <ele>438.79998779297</ele>
        <time>2021-07-03T11:27:07.000Z</time>
      </trkpt>
      <trkpt lat="42.98797" lon="1.2026">
        <ele>438.60000610352</ele>
        <time>2021-07-03T11:27:08.000Z</time>
      </trkpt>
      <trkpt lat="42.98812" lon="1.20261">
        <ele>437.79998779297</ele>
        <time>2021-07-03T11:27:13.000Z</time>
      </trkpt>
      <trkpt lat="42.98821" lon="1.20261">
        <ele>437.39999389648</ele>
        <time>2021-07-03T11:27:16.000Z</time>
      </trkpt>
      <trkpt lat="42.98832" lon="1.20262">
        <ele>436.60000610352</ele>
        <time>2021-07-03T11:27:20.000Z</time>
      </trkpt>
      <trkpt lat="42.98849" lon="1.20264">
        <ele>436.39999389648</ele>
        <time>2021-07-03T11:27:26.000Z</time>
      </trkpt>
      <trkpt lat="42.98866" lon="1.20267">
        <ele>435.60000610352</ele>
        <time>2021-07-03T11:27:32.000Z</time>
      </trkpt>
      <trkpt lat="42.98869" lon="1.20267">
        <ele>435.60000610352</ele>
        <time>2021-07-03T11:27:33.000Z</time>
      </trkpt>
      <trkpt lat="42.98888" lon="1.2027">
        <ele>435.39999389648</ele>
        <time>2021-07-03T11:27:40.000Z</time>
      </trkpt>
      <trkpt lat="42.98904" lon="1.20271">
        <ele>435.20001220703</ele>
        <time>2021-07-03T11:27:46.000Z</time>
      </trkpt>
      <trkpt lat="42.98923" lon="1.20274">
        <ele>435</ele>
        <time>2021-07-03T11:27:53.000Z</time>
      </trkpt>
      <trkpt lat="42.98926" lon="1.20275">
        <ele>435</ele>
        <time>2021-07-03T11:27:54.000Z</time>
      </trkpt>
      <trkpt lat="42.98937" lon="1.20277">
        <ele>434.60000610352</ele>
        <time>2021-07-03T11:27:58.000Z</time>
      </trkpt>
      <trkpt lat="42.98948" lon="1.20278">
        <ele>434.39999389648</ele>
        <time>2021-07-03T11:28:02.000Z</time>
      </trkpt>
      <trkpt lat="42.98967" lon="1.20278">
        <ele>434</ele>
        <time>2021-07-03T11:28:09.000Z</time>
      </trkpt>
      <trkpt lat="42.98978" lon="1.20277">
        <ele>433.60000610352</ele>
        <time>2021-07-03T11:28:13.000Z</time>
      </trkpt>
      <trkpt lat="42.98985" lon="1.20273">
        <ele>433.20001220703</ele>
        <time>2021-07-03T11:28:16.000Z</time>
      </trkpt>
      <trkpt lat="42.98995" lon="1.20262">
        <ele>433</ele>
        <time>2021-07-03T11:28:21.000Z</time>
      </trkpt>
      <trkpt lat="42.99004" lon="1.2025">
        <ele>432.39999389648</ele>
        <time>2021-07-03T11:28:26.000Z</time>
      </trkpt>
      <trkpt lat="42.99011" lon="1.2024">
        <ele>432.20001220703</ele>
        <time>2021-07-03T11:28:30.000Z</time>
      </trkpt>
      <trkpt lat="42.99023" lon="1.20223">
        <ele>433</ele>
        <time>2021-07-03T11:28:37.000Z</time>
      </trkpt>
      <trkpt lat="42.99036" lon="1.20204">
        <ele>433.20001220703</ele>
        <time>2021-07-03T11:28:45.000Z</time>
      </trkpt>
      <trkpt lat="42.99041" lon="1.20201">
        <ele>433.39999389648</ele>
        <time>2021-07-03T11:28:47.000Z</time>
      </trkpt>
      <trkpt lat="42.99048" lon="1.20201">
        <ele>433.39999389648</ele>
        <time>2021-07-03T11:28:50.000Z</time>
      </trkpt>
      <trkpt lat="42.99065" lon="1.20202">
        <ele>433</ele>
        <time>2021-07-03T11:28:56.000Z</time>
      </trkpt>
      <trkpt lat="42.99083" lon="1.20195">
        <ele>432.79998779297</ele>
        <time>2021-07-03T11:29:03.000Z</time>
      </trkpt>
      <trkpt lat="42.99091" lon="1.20192">
        <ele>432.60000610352</ele>
        <time>2021-07-03T11:29:06.000Z</time>
      </trkpt>
      <trkpt lat="42.99109" lon="1.20184">
        <ele>432.20001220703</ele>
        <time>2021-07-03T11:29:13.000Z</time>
      </trkpt>
      <trkpt lat="42.99111" lon="1.20183">
        <ele>432.20001220703</ele>
        <time>2021-07-03T11:29:14.000Z</time>
      </trkpt>
      <trkpt lat="42.99128" lon="1.20175">
        <ele>431.39999389648</ele>
        <time>2021-07-03T11:29:21.000Z</time>
      </trkpt>
      <trkpt lat="42.99131" lon="1.20174">
        <ele>431.39999389648</ele>
        <time>2021-07-03T11:29:22.000Z</time>
      </trkpt>
      <trkpt lat="42.9915" lon="1.20166">
        <ele>431.20001220703</ele>
        <time>2021-07-03T11:29:29.000Z</time>
      </trkpt>
      <trkpt lat="42.99158" lon="1.20163">
        <ele>430.79998779297</ele>
        <time>2021-07-03T11:29:32.000Z</time>
      </trkpt>
      <trkpt lat="42.99168" lon="1.20159">
        <ele>430.39999389648</ele>
        <time>2021-07-03T11:29:36.000Z</time>
      </trkpt>
      <trkpt lat="42.99179" lon="1.20155">
        <ele>430.60000610352</ele>
        <time>2021-07-03T11:29:40.000Z</time>
      </trkpt>
      <trkpt lat="42.99196" lon="1.20148">
        <ele>429.79998779297</ele>
        <time>2021-07-03T11:29:46.000Z</time>
      </trkpt>
      <trkpt lat="42.99202" lon="1.20146">
        <ele>429.60000610352</ele>
        <time>2021-07-03T11:29:48.000Z</time>
      </trkpt>
      <trkpt lat="42.99209" lon="1.20143">
        <ele>429.39999389648</ele>
        <time>2021-07-03T11:29:51.000Z</time>
      </trkpt>
      <trkpt lat="42.99219" lon="1.20138">
        <ele>429</ele>
        <time>2021-07-03T11:29:55.000Z</time>
      </trkpt>
      <trkpt lat="42.99234" lon="1.20134">
        <ele>428.39999389648</ele>
        <time>2021-07-03T11:30:01.000Z</time>
      </trkpt>
      <trkpt lat="42.99239" lon="1.20134">
        <ele>428.20001220703</ele>
        <time>2021-07-03T11:30:03.000Z</time>
      </trkpt>
      <trkpt lat="42.99251" lon="1.20142">
        <ele>427.79998779297</ele>
        <time>2021-07-03T11:30:09.000Z</time>
      </trkpt>
      <trkpt lat="42.99257" lon="1.20149">
        <ele>427.20001220703</ele>
        <time>2021-07-03T11:30:12.000Z</time>
      </trkpt>
      <trkpt lat="42.99268" lon="1.20161">
        <ele>426.79998779297</ele>
        <time>2021-07-03T11:30:17.000Z</time>
      </trkpt>
      <trkpt lat="42.99271" lon="1.20165">
        <ele>426.20001220703</ele>
        <time>2021-07-03T11:30:19.000Z</time>
      </trkpt>
      <trkpt lat="42.9928" lon="1.2018">
        <ele>425.39999389648</ele>
        <time>2021-07-03T11:30:25.000Z</time>
      </trkpt>
      <trkpt lat="42.99276" lon="1.202">
        <ele>425.20001220703</ele>
        <time>2021-07-03T11:30:30.000Z</time>
      </trkpt>
      <trkpt lat="42.99274" lon="1.20212">
        <ele>425.20001220703</ele>
        <time>2021-07-03T11:30:33.000Z</time>
      </trkpt>
      <trkpt lat="42.99272" lon="1.20231">
        <ele>425.60000610352</ele>
        <time>2021-07-03T11:30:38.000Z</time>
      </trkpt>
      <trkpt lat="42.99267" lon="1.20257">
        <ele>425.20001220703</ele>
        <time>2021-07-03T11:30:45.000Z</time>
      </trkpt>
      <trkpt lat="42.99267" lon="1.20261">
        <ele>425.20001220703</ele>
        <time>2021-07-03T11:30:46.000Z</time>
      </trkpt>
      <trkpt lat="42.99263" lon="1.20286">
        <ele>425.39999389648</ele>
        <time>2021-07-03T11:30:53.000Z</time>
      </trkpt>
      <trkpt lat="42.9926" lon="1.20312">
        <ele>425.39999389648</ele>
        <time>2021-07-03T11:31:00.000Z</time>
      </trkpt>
      <trkpt lat="42.9926" lon="1.20319">
        <ele>425.60000610352</ele>
        <time>2021-07-03T11:31:02.000Z</time>
      </trkpt>
      <trkpt lat="42.99256" lon="1.20345">
        <ele>425.79998779297</ele>
        <time>2021-07-03T11:31:09.000Z</time>
      </trkpt>
      <trkpt lat="42.99256" lon="1.20348">
        <ele>425.60000610352</ele>
        <time>2021-07-03T11:31:10.000Z</time>
      </trkpt>
      <trkpt lat="42.99253" lon="1.20374">
        <ele>425.79998779297</ele>
        <time>2021-07-03T11:31:17.000Z</time>
      </trkpt>
      <trkpt lat="42.99253" lon="1.20377">
        <ele>425.79998779297</ele>
        <time>2021-07-03T11:31:18.000Z</time>
      </trkpt>
      <trkpt lat="42.9925" lon="1.20403">
        <ele>425.60000610352</ele>
        <time>2021-07-03T11:31:25.000Z</time>
      </trkpt>
      <trkpt lat="42.9925" lon="1.20406">
        <ele>425.79998779297</ele>
        <time>2021-07-03T11:31:26.000Z</time>
      </trkpt>
      <trkpt lat="42.99247" lon="1.20432">
        <ele>425.79998779297</ele>
        <time>2021-07-03T11:31:33.000Z</time>
      </trkpt>
      <trkpt lat="42.99246" lon="1.20439">
        <ele>425.60000610352</ele>
        <time>2021-07-03T11:31:35.000Z</time>
      </trkpt>
      <trkpt lat="42.99244" lon="1.20456">
        <ele>426.20001220703</ele>
        <time>2021-07-03T11:31:40.000Z</time>
      </trkpt>
      <trkpt lat="42.99242" lon="1.20469">
        <ele>426.60000610352</ele>
        <time>2021-07-03T11:31:44.000Z</time>
      </trkpt>
      <trkpt lat="42.9924" lon="1.2049">
        <ele>426</ele>
        <time>2021-07-03T11:31:50.000Z</time>
      </trkpt>
      <trkpt lat="42.99237" lon="1.20515">
        <ele>426.20001220703</ele>
        <time>2021-07-03T11:31:57.000Z</time>
      </trkpt>
      <trkpt lat="42.99236" lon="1.20518">
        <ele>426.39999389648</ele>
        <time>2021-07-03T11:31:58.000Z</time>
      </trkpt>
      <trkpt lat="42.99233" lon="1.20544">
        <ele>426.79998779297</ele>
        <time>2021-07-03T11:32:05.000Z</time>
      </trkpt>
      <trkpt lat="42.99232" lon="1.20551">
        <ele>426.39999389648</ele>
        <time>2021-07-03T11:32:07.000Z</time>
      </trkpt>
      <trkpt lat="42.99229" lon="1.20578">
        <ele>426.79998779297</ele>
        <time>2021-07-03T11:32:14.000Z</time>
      </trkpt>
      <trkpt lat="42.99229" lon="1.20582">
        <ele>427</ele>
        <time>2021-07-03T11:32:15.000Z</time>
      </trkpt>
      <trkpt lat="42.99226" lon="1.20607">
        <ele>426.60000610352</ele>
        <time>2021-07-03T11:32:22.000Z</time>
      </trkpt>
      <trkpt lat="42.99225" lon="1.20611">
        <ele>426.60000610352</ele>
        <time>2021-07-03T11:32:23.000Z</time>
      </trkpt>
      <trkpt lat="42.99222" lon="1.20635">
        <ele>426.79998779297</ele>
        <time>2021-07-03T11:32:30.000Z</time>
      </trkpt>
      <trkpt lat="42.99222" lon="1.20639">
        <ele>427</ele>
        <time>2021-07-03T11:32:31.000Z</time>
      </trkpt>
      <trkpt lat="42.99221" lon="1.20642">
        <ele>427.20001220703</ele>
        <time>2021-07-03T11:32:32.000Z</time>
      </trkpt>
      <trkpt lat="42.99219" lon="1.20667">
        <ele>427</ele>
        <time>2021-07-03T11:32:39.000Z</time>
      </trkpt>
      <trkpt lat="42.99216" lon="1.20691">
        <ele>427.39999389648</ele>
        <time>2021-07-03T11:32:46.000Z</time>
      </trkpt>
      <trkpt lat="42.99215" lon="1.20699">
        <ele>427.39999389648</ele>
        <time>2021-07-03T11:32:48.000Z</time>
      </trkpt>
      <trkpt lat="42.99213" lon="1.20726">
        <ele>427.20001220703</ele>
        <time>2021-07-03T11:32:56.000Z</time>
      </trkpt>
      <trkpt lat="42.99211" lon="1.20752">
        <ele>427.79998779297</ele>
        <time>2021-07-03T11:33:03.000Z</time>
      </trkpt>
      <trkpt lat="42.9921" lon="1.20759">
        <ele>428</ele>
        <time>2021-07-03T11:33:05.000Z</time>
      </trkpt>
      <trkpt lat="42.99208" lon="1.20784">
        <ele>427.60000610352</ele>
        <time>2021-07-03T11:33:12.000Z</time>
      </trkpt>
      <trkpt lat="42.99207" lon="1.2079">
        <ele>427.60000610352</ele>
        <time>2021-07-03T11:33:14.000Z</time>
      </trkpt>
      <trkpt lat="42.99203" lon="1.20814">
        <ele>428.20001220703</ele>
        <time>2021-07-03T11:33:21.000Z</time>
      </trkpt>
      <trkpt lat="42.99202" lon="1.20821">
        <ele>428.20001220703</ele>
        <time>2021-07-03T11:33:23.000Z</time>
      </trkpt>
      <trkpt lat="42.99199" lon="1.20848">
        <ele>428</ele>
        <time>2021-07-03T11:33:31.000Z</time>
      </trkpt>
      <trkpt lat="42.99199" lon="1.20851">
        <ele>428.20001220703</ele>
        <time>2021-07-03T11:33:32.000Z</time>
      </trkpt>
      <trkpt lat="42.99197" lon="1.20878">
        <ele>429</ele>
        <time>2021-07-03T11:33:40.000Z</time>
      </trkpt>
      <trkpt lat="42.99194" lon="1.20905">
        <ele>428.79998779297</ele>
        <time>2021-07-03T11:33:48.000Z</time>
      </trkpt>
      <trkpt lat="42.99193" lon="1.2093">
        <ele>429</ele>
        <time>2021-07-03T11:33:55.000Z</time>
      </trkpt>
      <trkpt lat="42.99192" lon="1.20934">
        <ele>429.39999389648</ele>
        <time>2021-07-03T11:33:56.000Z</time>
      </trkpt>
      <trkpt lat="42.99189" lon="1.20958">
        <ele>429.39999389648</ele>
        <time>2021-07-03T11:34:03.000Z</time>
      </trkpt>
      <trkpt lat="42.99189" lon="1.20961">
        <ele>429.39999389648</ele>
        <time>2021-07-03T11:34:04.000Z</time>
      </trkpt>
      <trkpt lat="42.99186" lon="1.20987">
        <ele>428.79998779297</ele>
        <time>2021-07-03T11:34:11.000Z</time>
      </trkpt>
      <trkpt lat="42.99186" lon="1.2099">
        <ele>428.79998779297</ele>
        <time>2021-07-03T11:34:12.000Z</time>
      </trkpt>
      <trkpt lat="42.99183" lon="1.21015">
        <ele>429.39999389648</ele>
        <time>2021-07-03T11:34:19.000Z</time>
      </trkpt>
      <trkpt lat="42.99183" lon="1.21019">
        <ele>429.39999389648</ele>
        <time>2021-07-03T11:34:20.000Z</time>
      </trkpt>
      <trkpt lat="42.99181" lon="1.21045">
        <ele>428.79998779297</ele>
        <time>2021-07-03T11:34:27.000Z</time>
      </trkpt>
      <trkpt lat="42.9918" lon="1.21052">
        <ele>428.79998779297</ele>
        <time>2021-07-03T11:34:29.000Z</time>
      </trkpt>
      <trkpt lat="42.9918" lon="1.21072">
        <ele>429.39999389648</ele>
        <time>2021-07-03T11:34:35.000Z</time>
      </trkpt>
      <trkpt lat="42.99179" lon="1.21094">
        <ele>429.39999389648</ele>
        <time>2021-07-03T11:34:41.000Z</time>
      </trkpt>
      <trkpt lat="42.99176" lon="1.21118">
        <ele>429.20001220703</ele>
        <time>2021-07-03T11:34:48.000Z</time>
      </trkpt>
      <trkpt lat="42.99176" lon="1.21122">
        <ele>429.39999389648</ele>
        <time>2021-07-03T11:34:49.000Z</time>
      </trkpt>
      <trkpt lat="42.99175" lon="1.21147">
        <ele>430</ele>
        <time>2021-07-03T11:34:57.000Z</time>
      </trkpt>
      <trkpt lat="42.99175" lon="1.2115">
        <ele>429.79998779297</ele>
        <time>2021-07-03T11:34:58.000Z</time>
      </trkpt>
      <trkpt lat="42.99178" lon="1.21176">
        <ele>430</ele>
        <time>2021-07-03T11:35:06.000Z</time>
      </trkpt>
      <trkpt lat="42.99179" lon="1.21179">
        <ele>429.79998779297</ele>
        <time>2021-07-03T11:35:07.000Z</time>
      </trkpt>
      <trkpt lat="42.99181" lon="1.21206">
        <ele>430.20001220703</ele>
        <time>2021-07-03T11:35:15.000Z</time>
      </trkpt>
      <trkpt lat="42.99181" lon="1.21213">
        <ele>430.39999389648</ele>
        <time>2021-07-03T11:35:17.000Z</time>
      </trkpt>
      <trkpt lat="42.99182" lon="1.21216">
        <ele>430.39999389648</ele>
        <time>2021-07-03T11:35:18.000Z</time>
      </trkpt>
      <trkpt lat="42.99183" lon="1.21239">
        <ele>430.39999389648</ele>
        <time>2021-07-03T11:35:25.000Z</time>
      </trkpt>
      <trkpt lat="42.99185" lon="1.21264">
        <ele>430.79998779297</ele>
        <time>2021-07-03T11:35:32.000Z</time>
      </trkpt>
      <trkpt lat="42.99186" lon="1.21285">
        <ele>430.79998779297</ele>
        <time>2021-07-03T11:35:39.000Z</time>
      </trkpt>
      <trkpt lat="42.9919" lon="1.21306">
        <ele>431</ele>
        <time>2021-07-03T11:35:46.000Z</time>
      </trkpt>
      <trkpt lat="42.9919" lon="1.21319">
        <ele>431.39999389648</ele>
        <time>2021-07-03T11:35:50.000Z</time>
      </trkpt>
      <trkpt lat="42.9919" lon="1.21329">
        <ele>431.60000610352</ele>
        <time>2021-07-03T11:35:53.000Z</time>
      </trkpt>
      <trkpt lat="42.99194" lon="1.21356">
        <ele>431</ele>
        <time>2021-07-03T11:36:01.000Z</time>
      </trkpt>
      <trkpt lat="42.99195" lon="1.21381">
        <ele>431.60000610352</ele>
        <time>2021-07-03T11:36:09.000Z</time>
      </trkpt>
      <trkpt lat="42.99194" lon="1.21384">
        <ele>431.60000610352</ele>
        <time>2021-07-03T11:36:10.000Z</time>
      </trkpt>
      <trkpt lat="42.99196" lon="1.21409">
        <ele>431.39999389648</ele>
        <time>2021-07-03T11:36:18.000Z</time>
      </trkpt>
      <trkpt lat="42.99197" lon="1.21416">
        <ele>431.39999389648</ele>
        <time>2021-07-03T11:36:20.000Z</time>
      </trkpt>
      <trkpt lat="42.99196" lon="1.21425">
        <ele>431.60000610352</ele>
        <time>2021-07-03T11:36:23.000Z</time>
      </trkpt>
      <trkpt lat="42.99197" lon="1.21442">
        <ele>431.79998779297</ele>
        <time>2021-07-03T11:36:28.000Z</time>
      </trkpt>
      <trkpt lat="42.99197" lon="1.21467">
        <ele>431.79998779297</ele>
        <time>2021-07-03T11:36:36.000Z</time>
      </trkpt>
      <trkpt lat="42.99199" lon="1.2147">
        <ele>432</ele>
        <time>2021-07-03T11:36:37.000Z</time>
      </trkpt>
      <trkpt lat="42.99204" lon="1.21495">
        <ele>431.60000610352</ele>
        <time>2021-07-03T11:36:44.000Z</time>
      </trkpt>
      <trkpt lat="42.99206" lon="1.21506">
        <ele>431.79998779297</ele>
        <time>2021-07-03T11:36:47.000Z</time>
      </trkpt>
      <trkpt lat="42.99206" lon="1.21532">
        <ele>432</ele>
        <time>2021-07-03T11:36:54.000Z</time>
      </trkpt>
      <trkpt lat="42.99206" lon="1.21553">
        <ele>432.20001220703</ele>
        <time>2021-07-03T11:37:00.000Z</time>
      </trkpt>
      <trkpt lat="42.99204" lon="1.21578">
        <ele>432</ele>
        <time>2021-07-03T11:37:07.000Z</time>
      </trkpt>
      <trkpt lat="42.99203" lon="1.21584">
        <ele>432</ele>
        <time>2021-07-03T11:37:09.000Z</time>
      </trkpt>
      <trkpt lat="42.99203" lon="1.21603">
        <ele>432.39999389648</ele>
        <time>2021-07-03T11:37:15.000Z</time>
      </trkpt>
      <trkpt lat="42.99202" lon="1.21607">
        <ele>432.60000610352</ele>
        <time>2021-07-03T11:37:16.000Z</time>
      </trkpt>
      <trkpt lat="42.99201" lon="1.21627">
        <ele>432.79998779297</ele>
        <time>2021-07-03T11:37:22.000Z</time>
      </trkpt>
      <trkpt lat="42.992" lon="1.21654">
        <ele>433.60000610352</ele>
        <time>2021-07-03T11:37:30.000Z</time>
      </trkpt>
      <trkpt lat="42.992" lon="1.21658">
        <ele>433.39999389648</ele>
        <time>2021-07-03T11:37:31.000Z</time>
      </trkpt>
      <trkpt lat="42.99199" lon="1.21684">
        <ele>433</ele>
        <time>2021-07-03T11:37:38.000Z</time>
      </trkpt>
      <trkpt lat="42.99198" lon="1.21688">
        <ele>433</ele>
        <time>2021-07-03T11:37:39.000Z</time>
      </trkpt>
      <trkpt lat="42.99196" lon="1.21715">
        <ele>432.79998779297</ele>
        <time>2021-07-03T11:37:46.000Z</time>
      </trkpt>
      <trkpt lat="42.99196" lon="1.21719">
        <ele>432.79998779297</ele>
        <time>2021-07-03T11:37:47.000Z</time>
      </trkpt>
      <trkpt lat="42.99191" lon="1.21745">
        <ele>432.79998779297</ele>
        <time>2021-07-03T11:37:54.000Z</time>
      </trkpt>
      <trkpt lat="42.99189" lon="1.21752">
        <ele>432.79998779297</ele>
        <time>2021-07-03T11:37:56.000Z</time>
      </trkpt>
      <trkpt lat="42.99185" lon="1.21776">
        <ele>433.60000610352</ele>
        <time>2021-07-03T11:38:03.000Z</time>
      </trkpt>
      <trkpt lat="42.99183" lon="1.21783">
        <ele>433.60000610352</ele>
        <time>2021-07-03T11:38:05.000Z</time>
      </trkpt>
      <trkpt lat="42.99178" lon="1.21807">
        <ele>433.39999389648</ele>
        <time>2021-07-03T11:38:12.000Z</time>
      </trkpt>
      <trkpt lat="42.99176" lon="1.21814">
        <ele>433.39999389648</ele>
        <time>2021-07-03T11:38:14.000Z</time>
      </trkpt>
      <trkpt lat="42.9917" lon="1.21838">
        <ele>433.79998779297</ele>
        <time>2021-07-03T11:38:21.000Z</time>
      </trkpt>
      <trkpt lat="42.99169" lon="1.21845">
        <ele>433.79998779297</ele>
        <time>2021-07-03T11:38:23.000Z</time>
      </trkpt>
      <trkpt lat="42.99162" lon="1.21869">
        <ele>433.39999389648</ele>
        <time>2021-07-03T11:38:30.000Z</time>
      </trkpt>
      <trkpt lat="42.99161" lon="1.21872">
        <ele>433.39999389648</ele>
        <time>2021-07-03T11:38:31.000Z</time>
      </trkpt>
      <trkpt lat="42.99153" lon="1.21898">
        <ele>434</ele>
        <time>2021-07-03T11:38:39.000Z</time>
      </trkpt>
      <trkpt lat="42.99152" lon="1.219">
        <ele>434</ele>
        <time>2021-07-03T11:38:40.000Z</time>
      </trkpt>
      <trkpt lat="42.99145" lon="1.21923">
        <ele>434.20001220703</ele>
        <time>2021-07-03T11:38:47.000Z</time>
      </trkpt>
      <trkpt lat="42.99144" lon="1.21927">
        <ele>434.39999389648</ele>
        <time>2021-07-03T11:38:48.000Z</time>
      </trkpt>
      <trkpt lat="42.99137" lon="1.2195">
        <ele>434.39999389648</ele>
        <time>2021-07-03T11:38:55.000Z</time>
      </trkpt>
      <trkpt lat="42.99134" lon="1.2196">
        <ele>434</ele>
        <time>2021-07-03T11:38:58.000Z</time>
      </trkpt>
      <trkpt lat="42.99133" lon="1.2197">
        <ele>434.60000610352</ele>
        <time>2021-07-03T11:39:01.000Z</time>
      </trkpt>
      <trkpt lat="42.99129" lon="1.21986">
        <ele>434.79998779297</ele>
        <time>2021-07-03T11:39:06.000Z</time>
      </trkpt>
      <trkpt lat="42.99124" lon="1.22011">
        <ele>434.39999389648</ele>
        <time>2021-07-03T11:39:14.000Z</time>
      </trkpt>
      <trkpt lat="42.99118" lon="1.22037">
        <ele>434.60000610352</ele>
        <time>2021-07-03T11:39:22.000Z</time>
      </trkpt>
      <trkpt lat="42.99117" lon="1.22062">
        <ele>434.60000610352</ele>
        <time>2021-07-03T11:39:29.000Z</time>
      </trkpt>
      <trkpt lat="42.99116" lon="1.22066">
        <ele>434.60000610352</ele>
        <time>2021-07-03T11:39:30.000Z</time>
      </trkpt>
      <trkpt lat="42.99118" lon="1.22092">
        <ele>434.79998779297</ele>
        <time>2021-07-03T11:39:37.000Z</time>
      </trkpt>
      <trkpt lat="42.99119" lon="1.22118">
        <ele>435.39999389648</ele>
        <time>2021-07-03T11:39:44.000Z</time>
      </trkpt>
      <trkpt lat="42.99119" lon="1.22129">
        <ele>435.60000610352</ele>
        <time>2021-07-03T11:39:47.000Z</time>
      </trkpt>
      <trkpt lat="42.99121" lon="1.22154">
        <ele>435.20001220703</ele>
        <time>2021-07-03T11:39:54.000Z</time>
      </trkpt>
      <trkpt lat="42.99123" lon="1.22164">
        <ele>435.60000610352</ele>
        <time>2021-07-03T11:39:57.000Z</time>
      </trkpt>
      <trkpt lat="42.99123" lon="1.22167">
        <ele>435.79998779297</ele>
        <time>2021-07-03T11:39:58.000Z</time>
      </trkpt>
      <trkpt lat="42.99125" lon="1.22187">
        <ele>435.60000610352</ele>
        <time>2021-07-03T11:40:04.000Z</time>
      </trkpt>
      <trkpt lat="42.99125" lon="1.22197">
        <ele>435.39999389648</ele>
        <time>2021-07-03T11:40:07.000Z</time>
      </trkpt>
      <trkpt lat="42.99121" lon="1.22199">
        <ele>435.60000610352</ele>
        <time>2021-07-03T11:40:09.000Z</time>
      </trkpt>
      <trkpt lat="42.99118" lon="1.22194">
        <ele>435.79998779297</ele>
        <time>2021-07-03T11:40:11.000Z</time>
      </trkpt>
      <trkpt lat="42.99117" lon="1.22186">
        <ele>436</ele>
        <time>2021-07-03T11:40:13.000Z</time>
      </trkpt>
      <trkpt lat="42.99114" lon="1.22162">
        <ele>436</ele>
        <time>2021-07-03T11:40:19.000Z</time>
      </trkpt>
      <trkpt lat="42.99112" lon="1.22149">
        <ele>436</ele>
        <time>2021-07-03T11:40:22.000Z</time>
      </trkpt>
      <trkpt lat="42.99109" lon="1.22124">
        <ele>435</ele>
        <time>2021-07-03T11:40:28.000Z</time>
      </trkpt>
      <trkpt lat="42.99107" lon="1.22116">
        <ele>435</ele>
        <time>2021-07-03T11:40:30.000Z</time>
      </trkpt>
      <trkpt lat="42.99105" lon="1.22101">
        <ele>435.79998779297</ele>
        <time>2021-07-03T11:40:34.000Z</time>
      </trkpt>
      <trkpt lat="42.99099" lon="1.22103">
        <ele>436</ele>
        <time>2021-07-03T11:41:30.000Z</time>
      </trkpt>
      <trkpt lat="42.99099" lon="1.22103">
        <ele>436</ele>
        <time>2021-07-03T11:41:31.000Z</time>
      </trkpt>
    </trkseg>
  </trk>
</gpx>